[[{"header":{"parameterUnit":"m.s-1","parameterCategory":1,"la1":30.6,"la2":29.2853,"lo1":-89.7004,"lo2":-87.6739,"dy":0.0162,"dx":0.0183,"nx":112,"ny":82,"refTime":"2023-09-10T18:00:00:Z","depth":0,"parameterNumber":2,"parameterNumberName":"U-component_of_WINDS"},"data":[0.0,0.0,0.0,0.0,0.0,0.0,0.0,0.0,0.0,0.0,0.0,0.0,0.0,0.0,0.0,0.0,0.0,0.0,0.0,0.0,0.0,0.0,0.0,0.0,0.0,0.0,0.0,0.0,0.0,0.0,0.0,0.0,0.0,0.0,0.0,0.0,0.0,0.0,0.0,0.0,0.0,0.0,0.0,0.0,0.0,0.0,0.0,0.0,0.0,0.0,0.0,0.0,0.0,0.0,0.0,0.0,0.0,0.0,0.0,0.0,0.0,0.0,0.0,0.0,0.0,0.0,0.0,0.0,0.0,0.0,0.0,0.0,0.0,0.0,0.0,0.0,0.0,0.0,0.0,0.0,0.0,0.0,0.0,0.0,0.0,0.0,0.0,0.0,0.0,0.0,2.797,2.8202,2.9651,3.0606,3.0607,3.0492,2.9597,2.7676,0.0,0.0,0.0,0.0,0.0,0.0,0.0,0.0,0.0,0.0,0.0,0.0,0.0,0.0,0.0,0.0,0.0,0.0,0.0,0.0,0.0,0.0,0.0,0.0,0.0,0.0,0.0,0.0,0.0,0.0,0.0,0.0,0.0,0.0,0.0,0.0,0.0,0.0,0.0,0.0,0.0,0.0,0.0,0.0,0.0,0.0,0.0,0.0,0.0,0.0,0.0,0.0,0.0,0.0,0.0,0.0,0.0,0.0,0.0,0.0,0.0,0.0,0.0,0.0,0.0,0.0,0.0,0.0,0.0,0.0,0.0,0.0,0.0,0.0,0.0,0.0,0.0,0.0,0.0,0.0,0.0,0.0,0.0,0.0,0.0,0.0,0.0,0.0,0.0,0.0,0.0,0.0,0.0,0.0,0.0,0.0,0.0,0.0,0.0,0.0,0.0,0.0,0.0,0.0,2.8422,3.0008,3.0443,3.0597,3.0595,3.0585,2.9785,2.7941,0.0,0.0,0.0,0.0,0.0,0.0,0.0,0.0,0.0,0.0,0.0,0.0,0.0,0.0,0.0,0.0,0.0,0.0,0.0,0.0,0.0,0.0,0.0,0.0,0.0,0.0,0.0,0.0,0.0,0.0,0.0,0.0,0.0,0.0,0.0,0.0,0.0,0.0,0.0,0.0,0.0,0.0,0.0,0.0,0.0,0.0,0.0,0.0,0.0,0.0,0.0,0.0,0.0,0.0,0.0,0.0,0.0,0.0,0.0,0.0,0.0,0.0,0.0,0.0,0.0,0.0,0.0,0.0,0.0,0.0,0.0,0.0,0.0,0.0,0.0,0.0,0.0,0.0,0.0,0.0,0.0,0.0,0.0,0.0,0.0,0.0,0.0,0.0,0.0,0.0,0.0,0.0,0.0,0.0,0.0,0.0,0.0,0.0,0.0,0.0,0.0,0.0,0.0,2.7832,2.8589,3.0414,3.0588,3.0597,3.0597,3.1039,3.0317,2.7997,2.8089,0.0,0.0,0.0,0.0,0.0,0.0,0.0,0.0,0.0,0.0,0.0,0.0,0.0,0.0,0.0,0.0,0.0,0.0,0.0,0.0,0.0,0.0,0.0,0.0,0.0,0.0,0.0,0.0,0.0,0.0,0.0,0.0,0.0,0.0,0.0,0.0,0.0,0.0,0.0,0.0,0.0,0.0,0.0,0.0,0.0,0.0,0.0,0.0,0.0,0.0,0.0,0.0,0.0,0.0,0.0,0.0,0.0,0.0,0.0,0.0,0.0,0.0,0.0,0.0,0.0,0.0,0.0,0.0,0.0,0.0,0.0,0.0,0.0,0.0,0.0,0.0,0.0,0.0,0.0,0.0,0.0,0.0,0.0,0.0,0.0,0.0,0.0,0.0,0.0,0.0,0.0,0.0,0.0,0.0,0.0,0.0,0.0,0.0,0.0,0.0,0.0,0.0,2.8647,2.9419,3.0752,3.109,3.1206,3.1197,3.1805,3.1052,2.8332,2.8728,0.0,0.0,0.0,0.0,0.0,0.0,0.0,0.0,0.0,0.0,0.0,0.0,0.0,0.0,0.0,0.0,0.0,0.0,0.0,0.0,0.0,0.0,0.0,0.0,0.0,0.0,0.0,0.0,0.0,0.0,0.0,0.0,0.0,0.0,0.0,0.0,0.0,0.0,0.0,0.0,0.0,0.0,0.0,0.0,0.0,0.0,0.0,0.0,0.0,0.0,0.0,0.0,0.0,0.0,0.0,0.0,0.0,0.0,0.0,0.0,0.0,0.0,0.0,0.0,0.0,0.0,0.0,0.0,0.0,0.0,0.0,0.0,0.0,0.0,0.0,0.0,0.0,0.0,0.0,0.0,0.0,0.0,0.0,0.0,0.0,0.0,0.0,0.0,0.0,0.0,0.0,0.0,0.0,0.0,0.0,0.0,0.0,0.0,0.0,0.0,0.0,0.0,3.0559,3.1574,3.17,3.2503,3.2987,3.2938,3.3045,3.1999,2.9361,2.9187,0.0,0.0,0.0,0.0,0.0,0.0,0.0,0.0,0.0,0.0,0.0,0.0,0.0,0.0,0.0,0.0,0.0,0.0,0.0,0.0,0.0,0.0,0.0,0.0,0.0,0.0,0.0,0.0,0.0,0.0,0.0,0.0,0.0,0.0,0.0,0.0,0.0,0.0,0.0,0.0,0.0,0.0,0.0,0.0,0.0,0.0,0.0,0.0,0.0,0.0,0.0,0.0,0.0,0.0,0.0,0.0,0.0,0.0,0.0,0.0,0.0,0.0,0.0,0.0,0.0,0.0,0.0,0.0,0.0,0.0,0.0,0.0,0.0,0.0,0.0,0.0,0.0,0.0,0.0,0.0,0.0,0.0,0.0,0.0,0.0,0.0,0.0,0.0,0.0,0.0,0.0,0.0,0.0,0.0,0.0,0.0,0.0,0.0,0.0,0.0,0.0,0.0,3.1101,3.2019,0.0,3.2958,3.3122,3.3102,3.3616,3.2832,3.0201,0.0,0.0,0.0,0.0,0.0,0.0,0.0,0.0,0.0,0.0,0.0,0.0,0.0,0.0,0.0,0.0,0.0,0.0,0.0,0.0,0.0,0.0,0.0,0.0,0.0,0.0,0.0,0.0,0.0,0.0,0.0,0.0,0.0,0.0,0.0,0.0,0.0,0.0,0.0,0.0,0.0,0.0,0.0,0.0,0.0,0.0,0.0,0.0,0.0,0.0,0.0,0.0,0.0,0.0,0.0,0.0,0.0,0.0,0.0,0.0,0.0,0.0,0.0,0.0,0.0,0.0,0.0,0.0,0.0,0.0,0.0,0.0,0.0,0.0,0.0,0.0,0.0,0.0,0.0,0.0,0.0,0.0,0.0,0.0,0.0,0.0,0.0,0.0,0.0,0.0,0.0,0.0,0.0,0.0,0.0,0.0,0.0,0.0,0.0,0.0,0.0,0.0,3.0946,3.1932,3.288,0.0,3.379,3.3935,3.3924,3.4476,3.3692,3.107,0.0,0.0,0.0,0.0,0.0,0.0,0.0,0.0,0.0,0.0,0.0,0.0,0.0,0.0,0.0,0.0,0.0,0.0,0.0,0.0,0.0,0.0,0.0,0.0,0.0,0.0,0.0,0.0,0.0,0.0,0.0,0.0,0.0,0.0,0.0,0.0,0.0,0.0,0.0,0.0,0.0,0.0,0.0,0.0,0.0,0.0,0.0,0.0,0.0,0.0,0.0,0.0,0.0,0.0,0.0,0.0,0.0,0.0,0.0,0.0,0.0,0.0,0.0,0.0,0.0,0.0,0.0,0.0,0.0,0.0,0.0,0.0,0.0,0.0,0.0,0.0,0.0,0.0,0.0,0.0,0.0,0.0,0.0,0.0,0.0,0.0,0.0,0.0,0.0,0.0,0.0,0.0,0.0,0.0,0.0,0.0,0.0,0.0,0.0,0.0,0.0,0.0,3.1709,3.3334,3.4408,3.4408,3.5194,3.5697,3.5704,3.5697,3.4583,0.0,0.0,0.0,0.0,0.0,0.0,0.0,0.0,0.0,0.0,0.0,0.0,0.0,0.0,0.0,0.0,0.0,0.0,0.0,0.0,0.0,0.0,0.0,0.0,0.0,0.0,0.0,0.0,0.0,0.0,0.0,0.0,0.0,0.0,0.0,0.0,0.0,0.0,0.0,0.0,0.0,0.0,0.0,0.0,0.0,0.0,0.0,0.0,0.0,0.0,0.0,0.0,0.0,0.0,0.0,0.0,0.0,0.0,0.0,0.0,0.0,0.0,0.0,0.0,0.0,0.0,0.0,0.0,0.0,0.0,0.0,0.0,0.0,0.0,0.0,0.0,0.0,0.0,0.0,0.0,0.0,0.0,0.0,0.0,0.0,0.0,0.0,0.0,0.0,0.0,0.0,0.0,0.0,0.0,0.0,0.0,0.0,0.0,0.0,0.0,0.0,0.0,0.0,3.2755,3.4265,3.5329,3.5329,3.5551,3.5695,3.5704,3.5695,3.4863,3.285,0.0,0.0,0.0,0.0,0.0,0.0,0.0,0.0,0.0,0.0,0.0,0.0,0.0,0.0,0.0,0.0,0.0,0.0,0.0,0.0,0.0,0.0,0.0,0.0,0.0,0.0,0.0,0.0,0.0,0.0,0.0,0.0,0.0,0.0,0.0,0.0,0.0,0.0,0.0,0.0,0.0,0.0,0.0,0.0,0.0,0.0,0.0,0.0,0.0,0.0,0.0,0.0,0.0,0.0,0.0,0.0,0.0,0.0,0.0,0.0,0.0,0.0,0.0,0.0,0.0,0.0,0.0,0.0,0.0,0.0,0.0,0.0,0.0,0.0,0.0,0.0,0.0,0.0,0.0,0.0,0.0,0.0,0.0,0.0,0.0,0.0,0.0,0.0,0.0,0.0,0.0,0.0,0.0,0.0,0.0,0.0,0.0,0.0,0.0,0.0,0.0,0.0,3.3171,3.4642,3.5687,3.5687,3.5695,3.5704,3.5704,3.5704,3.5104,3.3712,0.0,0.0,0.0,0.0,0.0,0.0,0.0,0.0,0.0,0.0,0.0,0.0,0.0,0.0,0.0,0.0,0.0,0.0,0.0,0.0,0.0,0.0,0.0,0.0,0.0,0.0,0.0,0.0,0.0,0.0,0.0,0.0,0.0,0.0,0.0,0.0,0.0,0.0,0.0,0.0,0.0,0.0,0.0,0.0,0.0,0.0,0.0,0.0,0.0,0.0,0.0,0.0,0.0,0.0,0.0,0.0,0.0,0.0,0.0,0.0,0.0,0.0,0.0,0.0,0.0,0.0,0.0,0.0,0.0,0.0,0.0,0.0,0.0,0.0,0.0,0.0,0.0,0.0,0.0,0.0,0.0,0.0,0.0,0.0,0.0,0.0,0.0,0.0,0.0,0.0,0.0,0.0,0.0,0.0,0.0,0.0,0.0,0.0,0.0,0.0,0.0,0.0,3.31,3.4629,3.5704,3.5695,3.5695,3.5715,3.5695,3.5695,3.5336,3.4447,0.0,0.0,0.0,0.0,0.0,0.0,0.0,0.0,0.0,0.0,0.0,0.0,0.0,0.0,0.0,0.0,0.0,0.0,0.0,0.0,0.0,0.0,0.0,0.0,0.0,0.0,0.0,0.0,0.0,0.0,0.0,0.0,0.0,0.0,0.0,0.0,0.0,0.0,0.0,0.0,0.0,0.0,0.0,0.0,0.0,0.0,0.0,0.0,0.0,0.0,0.0,0.0,0.0,0.0,0.0,0.0,0.0,0.0,0.0,0.0,2.1733,0.0,0.0,0.0,0.0,0.0,0.0,0.0,0.0,0.0,0.0,0.0,0.0,0.0,0.0,0.0,0.0,0.0,0.0,0.0,0.0,0.0,0.0,0.0,0.0,0.0,0.0,0.0,0.0,0.0,0.0,0.0,0.0,0.0,0.0,0.0,0.0,0.0,0.0,0.0,0.0,0.0,3.31,3.4629,3.5697,3.5698,3.5707,3.5697,3.5698,3.5707,3.5336,3.4447,3.4234,0.0,0.0,0.0,0.0,0.0,0.0,0.0,0.0,0.0,0.0,0.0,0.0,0.0,0.0,0.0,0.0,0.0,0.0,0.0,0.0,0.0,0.0,0.0,0.0,0.0,0.0,0.0,0.0,0.0,0.0,0.0,0.0,0.0,0.0,0.0,0.0,0.0,0.0,0.0,0.0,0.0,0.0,0.0,0.0,0.0,0.0,0.0,0.0,0.0,0.0,0.0,0.0,0.0,0.0,0.0,0.0,0.0,0.0,0.0,0.0,2.2605,0.0,0.0,0.0,0.0,0.0,0.0,0.0,0.0,0.0,0.0,0.0,0.0,0.0,0.0,0.0,0.0,0.0,0.0,0.0,0.0,0.0,0.0,0.0,0.0,0.0,0.0,0.0,0.0,0.0,0.0,0.0,0.0,0.0,0.0,0.0,0.0,0.0,0.0,0.0,0.0,3.3132,3.4642,3.5718,3.5749,3.5743,3.5745,3.5754,3.5718,3.5503,3.5044,3.4629,0.0,0.0,0.0,0.0,0.0,0.0,0.0,0.0,0.0,0.0,0.0,0.0,0.0,0.0,0.0,0.0,0.0,0.0,0.0,0.0,0.0,0.0,0.0,0.0,0.0,0.0,0.0,0.0,0.0,0.0,0.0,0.0,0.0,0.0,0.0,0.0,0.0,0.0,0.0,0.0,0.0,0.0,0.0,0.0,0.0,0.0,0.0,0.0,0.0,0.0,0.0,0.0,0.0,2.6108,2.6149,2.6131,2.5988,2.6217,2.6592,2.4983,2.4857,2.561,2.3692,0.0,0.0,0.0,0.0,0.0,0.0,0.0,0.0,0.0,0.0,0.0,0.0,0.0,0.0,0.0,0.0,0.0,0.0,0.0,0.0,0.0,0.0,0.0,0.0,3.1738,3.2019,0.0,0.0,0.0,0.0,0.0,0.0,0.0,0.0,0.0,0.0,0.0,0.0,3.3382,3.4747,3.5732,3.5807,3.5814,3.5813,3.5795,3.5743,3.5708,3.5709,3.5005,3.4513,0.0,0.0,0.0,0.0,0.0,0.0,0.0,0.0,0.0,0.0,0.0,0.0,0.0,0.0,0.0,0.0,0.0,0.0,0.0,0.0,0.0,0.0,0.0,0.0,0.0,0.0,0.0,0.0,0.0,0.0,0.0,0.0,1.9714,1.9788,0.0,0.0,0.0,0.0,0.0,0.0,0.0,0.0,0.0,0.0,0.0,0.0,0.0,2.5472,2.5014,2.6521,2.7315,2.735,2.8049,2.8621,2.9036,2.9136,2.9138,2.9041,2.9027,0.0,2.72,2.6784,0.0,0.0,0.0,0.0,0.0,0.0,0.0,0.0,0.0,0.0,0.0,0.0,0.0,0.0,0.0,0.0,0.0,0.0,0.0,0.0,0.0,0.0,3.3872,3.4711,3.4415,3.4137,0.0,3.3186,3.1834,3.2607,3.2761,0.0,0.0,0.0,0.0,0.0,0.0,0.0,3.4129,3.5106,3.5749,3.5875,3.5889,3.5852,3.5801,3.5795,3.5756,3.5704,3.5546,3.5121,3.4427,3.4232,0.0,0.0,0.0,0.0,0.0,0.0,0.0,0.0,0.0,0.0,0.0,0.0,0.0,0.0,0.0,0.0,0.0,0.0,0.0,0.0,0.0,0.0,0.0,0.0,0.0,0.0,0.0,0.0,0.0,2.0218,2.0273,2.0656,2.0978,2.0971,0.0,0.0,0.0,0.0,0.0,0.0,0.0,0.0,0.0,2.6169,2.659,2.6928,2.7179,2.8624,2.9535,2.9902,3.0923,3.1742,3.2334,3.2369,3.2332,3.226,3.2369,3.2039,3.122,2.9077,2.8145,2.801,0.0,0.0,0.0,0.0,2.7926,2.8406,2.9229,3.0101,0.0,3.0426,0.0,0.0,0.0,0.0,0.0,0.0,0.0,0.0,0.0,0.0,3.3891,3.5817,3.563,3.5391,3.6723,3.5739,3.4438,0.0,3.3407,3.2817,3.1904,0.0,0.0,0.0,0.0,3.3974,3.4404,3.5635,3.6545,3.6672,3.7125,3.7219,3.6699,3.6605,3.6354,3.5792,3.5693,3.5469,3.5082,3.4599,3.4,0.0,0.0,0.0,0.0,0.0,0.0,0.0,0.0,0.0,0.0,0.0,0.0,0.0,0.0,0.0,0.0,0.0,0.0,0.0,0.0,0.0,0.0,0.0,0.0,0.0,0.0,0.0,0.0,2.1159,2.1345,2.1675,2.2605,2.2979,0.0,0.0,0.0,0.0,0.0,0.0,2.5983,2.5963,2.6628,2.8152,2.8501,2.905,2.9994,3.0903,3.1721,3.2429,3.3066,3.3787,3.4466,3.4408,3.4387,3.4387,3.437,3.4349,3.4144,3.12,2.993,2.981,2.9112,2.8794,2.8767,2.9002,2.9376,2.9856,3.0772,3.1765,3.2582,3.2418,3.2533,3.2683,3.2478,0.0,0.0,0.0,0.0,3.2987,3.4419,3.432,3.4378,3.6607,3.6691,3.6575,3.7816,3.7411,3.6428,0.0,3.4291,3.3431,3.2492,0.0,0.0,0.0,0.0,3.4836,3.5127,3.6511,3.7501,3.7614,3.8207,3.8324,3.7658,3.7566,3.7222,3.6512,3.6212,3.6037,3.5996,3.5185,3.4662,3.4458,0.0,0.0,0.0,0.0,0.0,0.0,0.0,0.0,0.0,0.0,0.0,0.0,0.0,0.0,0.0,0.0,0.0,0.0,0.0,0.0,0.0,0.0,0.0,0.0,0.0,0.0,0.0,0.0,0.0,2.2698,2.4683,0.0,0.0,0.0,0.0,2.6194,2.6345,2.6911,2.7913,2.8258,2.909,3.0577,3.1866,3.2738,3.3265,3.33,3.3666,3.4327,3.37,3.375,3.4387,3.4387,3.4387,3.4387,3.4254,3.4198,3.4129,3.3266,3.2577,3.1969,3.1319,3.0695,3.0287,3.1199,3.175,3.2173,3.3186,3.3747,3.3889,3.3314,3.2128,3.1215,3.2753,3.2135,0.0,0.0,3.3684,3.4096,3.6136,3.6633,3.6851,3.7816,3.799,3.799,3.8086,3.7411,3.6775,0.0,3.5971,3.5111,3.4231,0.0,3.4129,3.4077,3.4955,3.5963,3.6842,3.7821,3.8453,3.8526,3.8568,3.8568,3.8451,3.8432,3.8397,3.8277,3.7486,3.7023,3.7023,3.6184,3.5371,3.4607,3.4478,0.0,0.0,0.0,0.0,0.0,0.0,0.0,0.0,0.0,0.0,0.0,0.0,0.0,0.0,0.0,0.0,0.0,0.0,0.0,0.0,0.0,0.0,0.0,0.0,0.0,0.0,0.0,0.0,2.5295,2.6681,0.0,2.606,2.7348,2.8314,2.8427,2.8938,2.9814,3.1106,3.1113,3.1489,3.2439,3.2946,3.3259,3.3419,3.4211,3.4727,3.4966,3.5465,3.5861,3.6085,3.6085,3.6007,3.5928,3.5871,3.5849,3.5717,3.4914,3.4172,3.3556,3.3583,3.3458,3.333,3.4038,3.4486,3.4851,3.5449,3.582,3.6002,3.5773,3.5327,3.497,3.5556,3.533,3.5018,3.5874,3.6159,3.64,3.7294,3.7569,3.786,3.8676,3.8868,3.9022,3.9533,3.8994,3.8416,3.8416,3.728,3.6221,3.588,3.6311,3.6537,3.6021,3.6772,3.7521,3.7941,3.878,3.9365,3.9435,3.9938,4.0039,3.9453,3.9394,3.9138,3.8506,3.8166,3.773,3.7112,3.68,3.6229,3.5392,3.5359,3.4641,0.0,0.0,0.0,0.0,0.0,0.0,0.0,0.0,0.0,0.0,0.0,0.0,0.0,0.0,0.0,0.0,0.0,0.0,0.0,0.0,0.0,0.0,0.0,0.0,0.0,0.0,2.7097,2.6995,2.8322,2.9057,2.8494,2.964,3.0674,3.1289,3.167,3.2325,3.3273,3.3231,3.3427,3.4086,3.4117,3.4295,3.4627,3.5184,3.5566,3.5763,3.6544,3.6908,3.6908,3.6908,3.6829,3.6748,3.6708,3.6667,3.6568,3.5965,3.5428,3.497,3.4865,3.4853,3.4995,3.5515,3.583,3.6087,3.6517,3.6845,3.7057,3.7057,3.708,3.7136,3.7418,3.7493,3.7539,3.7743,3.8097,3.8403,3.8328,3.8608,3.9028,3.9572,3.9706,3.9846,4.0389,4.0065,3.9715,3.9715,3.8397,3.7222,3.7189,3.7693,3.7816,3.698,3.7928,3.8672,3.8487,3.9526,4.0285,4.0322,4.0835,4.0935,4.0349,4.0057,3.9746,3.9394,3.8847,3.8387,3.8049,3.7479,3.6904,3.6323,3.6006,3.512,3.3666,0.0,0.0,0.0,0.0,0.0,0.0,0.0,0.0,0.0,0.0,0.0,0.0,0.0,0.0,0.0,0.0,0.0,0.0,0.0,0.0,0.0,0.0,0.0,2.7029,2.7808,2.8288,2.7732,2.9643,3.1185,3.1728,3.2784,3.3771,3.467,3.4408,3.4237,3.4272,3.4603,3.4991,3.5451,3.56,3.6088,3.7023,3.6444,3.6402,3.6788,3.6725,3.6702,3.6702,3.6702,3.6719,3.6737,3.6579,3.6554,3.6572,3.6429,3.6353,3.6222,3.5186,3.4868,3.512,3.5606,3.5792,3.5884,3.6491,3.687,3.7084,3.7084,3.7127,3.7305,3.8112,3.8338,3.8385,3.8572,3.9292,3.9852,3.9293,3.9794,4.0489,4.0489,4.0489,4.0489,4.0504,4.0504,4.0523,4.0588,3.9292,3.8175,3.8175,3.8182,3.79,3.7051,3.8471,0.0,3.8572,4.0067,4.1191,4.1152,4.1086,4.103,4.1049,4.0322,4.0212,4.1054,3.9582,3.9041,3.9864,3.828,3.736,3.7301,3.6342,3.544,3.4601,0.0,0.0,0.0,0.0,0.0,0.0,0.0,0.0,0.0,0.0,0.0,0.0,0.0,0.0,0.0,0.0,0.0,0.0,0.0,0.0,0.0,0.0,2.921,2.887,2.9592,3.0491,3.1526,3.2191,3.2854,3.3578,3.3972,3.4521,3.5213,3.5343,3.557,3.6068,3.6237,3.6661,3.7341,3.737,3.7533,3.7795,3.7615,3.7312,3.6788,3.6788,3.6766,3.6702,3.6702,3.6939,3.7359,3.7299,3.7586,3.8018,3.7956,3.7733,3.7314,3.6606,3.6394,3.6567,3.7413,3.8026,3.8486,3.8689,3.8808,3.8901,3.8901,3.8901,3.8939,3.9133,3.9164,3.9164,3.9171,3.9528,3.9905,3.9717,4.0095,4.0489,4.0489,4.0489,4.0504,4.0573,4.0573,4.0588,4.0612,4.0274,3.9965,3.9932,3.9946,3.9921,3.9724,4.0189,0.0,4.0313,4.0782,4.0906,4.032,3.9671,3.9532,4.0171,3.9451,3.9574,4.1004,4.068,4.0252,3.9901,3.9447,3.8583,3.7311,3.5763,3.4837,0.0,0.0,0.0,0.0,0.0,0.0,0.0,0.0,0.0,0.0,0.0,0.0,0.0,0.0,0.0,0.0,0.0,0.0,0.0,0.0,0.0,0.0,2.985,3.0681,3.0835,3.1376,3.2104,3.2988,3.3462,3.4004,3.4805,3.4934,3.5325,3.6094,3.6225,3.6597,3.7288,3.7421,3.7812,3.8585,3.8419,3.8262,3.8111,3.8203,3.7753,3.6788,3.7039,3.6998,3.662,3.6908,3.723,3.756,3.7871,3.8225,3.8594,3.8594,3.8424,0.0,0.0,0.0,0.0,0.0,3.8921,3.9469,3.952,3.952,3.952,3.952,3.952,3.952,3.9469,3.9444,3.9469,3.9508,3.9717,3.9941,4.0041,4.0267,4.0489,4.0489,4.0777,4.1062,4.1131,4.1147,4.1142,4.1181,4.0919,0.0,4.07,4.0713,4.0642,4.0335,4.0671,4.083,4.0532,4.087,4.0969,4.048,3.9967,3.9845,4.0352,3.9624,0.0,0.0,0.0,4.039,3.9922,3.9545,0.0,0.0,0.0,3.5186,3.5194,0.0,0.0,0.0,3.3946,3.3707,0.0,0.0,0.0,0.0,0.0,0.0,0.0,0.0,0.0,0.0,0.0,0.0,0.0,0.0,0.0,0.0,3.0976,3.2197,3.2712,3.3108,3.3269,3.3101,3.3946,3.4822,3.5571,3.5737,3.6151,3.6895,3.6987,3.7303,3.8018,0.0,0.0,0.0,0.0,3.866,3.8333,3.8556,3.8088,3.705,3.76,3.7438,3.678,3.7344,3.7646,3.7767,3.8422,3.8767,3.8853,3.8853,3.8846,3.8789,3.8321,3.7835,3.7466,3.8267,3.8921,3.9373,3.9373,0.0,0.0,3.9391,3.9391,3.9391,3.9373,3.9391,3.9425,3.9623,3.9769,3.9962,4.0233,4.0468,4.0642,4.0642,4.1316,4.1966,4.2017,4.2033,4.2044,4.1986,4.1454,4.0984,4.0933,4.0868,4.0558,3.9835,4.0459,4.0734,4.0023,4.0676,4.1152,4.1055,0.0,0.0,4.0962,4.0216,4.0135,4.103,4.042,4.0037,4.0039,3.9211,3.8341,3.7458,3.6599,3.6091,3.5996,3.5996,3.5999,3.5942,3.4335,3.4009,0.0,0.0,0.0,0.0,0.0,0.0,0.0,0.0,0.0,0.0,0.0,0.0,0.0,0.0,0.0,3.0838,3.1983,3.3062,3.3866,3.4454,3.4659,3.4316,3.4882,3.5605,3.6388,3.6539,3.6591,3.6609,3.6869,3.7224,3.7829,3.8029,3.8778,4.02,4.0192,4.0036,3.9896,4.0036,3.959,3.8572,0.0,0.0,3.8356,3.8363,3.8698,3.9267,3.9422,3.9853,4.044,4.044,4.0408,4.0176,3.8925,3.8256,3.8,3.8603,3.9007,3.9256,3.9373,3.9391,3.9391,3.9391,3.9391,3.9373,3.9256,3.9256,0.0,3.9477,3.966,3.9861,4.0139,4.0893,4.1546,4.1546,4.222,4.2852,4.288,4.2861,4.2684,4.2054,4.2353,4.2516,4.1892,4.1242,4.0752,4.0578,4.082,4.0933,4.0785,4.1013,4.0937,4.0234,3.9509,3.9369,4.0072,3.9349,3.9483,4.0994,4.0952,4.0879,4.0879,4.0078,3.9234,3.8378,3.7497,3.6687,3.5917,3.5917,3.5918,3.5909,3.5566,3.5485,0.0,0.0,0.0,0.0,0.0,0.0,0.0,0.0,0.0,0.0,0.0,2.7782,0.0,0.0,3.102,3.1665,3.2388,3.3037,3.3607,3.4684,3.5431,3.551,3.5995,3.6492,3.6856,3.6788,3.6725,3.6602,3.6766,3.712,3.7788,3.8314,3.9151,4.0359,4.0806,4.0823,4.0307,4.0718,4.0272,3.8947,3.9303,3.9197,3.8807,3.9036,3.9353,3.9715,4.0112,4.0509,4.0888,4.0888,4.0829,4.0648,4.0167,3.9554,3.8944,3.8891,3.8979,3.9156,3.9248,3.9248,3.9248,3.9248,3.9248,3.9248,3.9156,3.9245,3.9383,3.9585,3.9816,4.0062,4.0304,4.0751,4.1143,4.1143,4.1816,4.2467,4.2495,4.2495,4.2375,4.1981,4.2261,4.229,4.1538,4.1427,4.1447,4.1512,4.1236,4.1054,4.1097,4.1167,4.1035,4.0605,4.0156,4.0076,4.0503,4.0112,4.0207,4.1052,4.1101,4.1091,4.1094,4.033,3.9484,3.8622,3.7736,3.6858,3.5951,3.5917,3.5898,3.5893,3.5901,3.5903,0.0,0.0,0.0,0.0,0.0,0.0,0.0,0.0,2.5987,2.7056,2.8303,2.9449,3.0154,3.0931,3.1711,3.2297,3.2636,3.2965,3.3363,3.4573,3.5642,3.6249,3.6916,3.7301,3.7243,3.7048,3.6908,3.6886,3.6829,3.7161,3.7959,3.8723,3.9483,4.0243,4.1113,4.1192,4.0351,4.1041,4.0707,3.9355,3.9891,3.9829,3.9257,3.9628,3.9905,4.0078,4.0856,4.1163,4.1192,4.1192,4.1217,4.126,4.1484,4.099,4.005,3.9398,3.9108,3.9101,3.9101,3.9101,3.9101,3.9101,3.9101,3.9101,3.9165,3.9324,3.9556,3.9816,4.0042,4.0251,4.0457,4.0623,4.0739,4.0739,4.1412,4.2066,4.2133,4.2133,4.2071,4.1909,4.2035,4.1917,4.1172,4.1651,4.2097,4.1966,4.1443,4.1101,4.1166,4.1189,4.1191,4.1191,4.1191,4.1191,4.1207,4.1146,4.1101,4.1091,4.1108,4.1099,4.1093,4.048,3.966,3.8593,3.7886,3.7024,3.5972,3.5937,3.5894,3.587,3.5875,3.588,2.4892,2.4783,0.0,2.5731,2.5841,2.6269,0.0,0.0,2.8326,3.0321,3.097,3.1501,3.2519,3.284,3.2973,3.3063,3.3208,3.3599,3.4425,3.4691,3.5109,3.5939,3.7045,3.7739,3.7703,3.7667,3.765,3.7595,3.7319,3.76,3.8611,3.8936,3.9412,4.0119,4.1071,4.1218,4.0496,4.1068,4.122,4.0834,4.092,4.092,4.0816,4.0411,4.0613,4.1305,4.1828,4.2121,4.2253,4.2253,4.2569,4.3047,4.2433,4.1857,4.1319,4.0588,3.9807,3.9101,3.9101,3.9101,3.9101,3.9101,3.9101,3.9137,3.9401,3.9477,3.9604,4.0022,4.0196,4.0251,4.0457,4.1066,4.1662,4.1662,4.2316,4.2951,4.2951,4.297,4.2739,4.1966,4.2526,4.2866,4.2001,4.2082,4.2004,4.117,4.1019,4.1046,4.11,4.1159,4.1191,4.1191,4.1191,4.1191,4.1191,4.1144,4.1091,4.1108,4.1108,4.1091,4.1094,4.1071,4.0251,3.8541,3.8417,3.7552,3.5919,3.589,3.5864,3.5818,3.5815,3.5833,2.6695,0.0,0.0,0.0,2.7268,2.7822,2.855,2.9269,3.0132,3.1288,3.2014,3.2505,3.2809,3.319,3.3397,0.0,3.3541,3.3835,3.4073,3.466,3.5128,3.5334,3.6717,3.7526,3.7228,3.7434,3.7559,3.7596,3.7432,3.7574,3.8006,3.8369,3.8942,3.98,4.0235,4.0475,4.0623,4.0624,4.0512,4.0345,4.0345,4.0574,4.1039,4.0813,4.1162,4.1906,4.2115,4.2284,4.2393,4.2393,4.2831,4.3502,4.3185,4.2835,4.237,4.0989,3.9909,3.9101,3.9101,3.9101,3.9101,3.9101,3.9554,4.0106,4.0215,4.0457,4.0701,4.0864,4.065,4.0389,4.0473,4.0758,4.1046,4.1046,4.1316,4.1585,4.1585,4.1585,4.147,4.1104,4.1817,4.2221,4.1449,4.1818,4.1967,4.1134,4.1078,4.1124,4.115,4.1179,4.1191,4.1146,4.1144,4.1144,4.1144,4.1116,4.1108,4.1108,4.1108,4.1094,4.1101,4.1091,4.0268,3.853,3.8463,3.7605,3.5892,3.5904,3.5897,3.5866,3.5823,3.5823,2.7604,0.0,0.0,2.8014,2.8804,2.9459,2.9738,3.0711,3.1681,3.2159,3.2798,3.328,3.3093,3.3437,3.368,3.3532,3.3797,3.3954,3.3813,3.4452,3.4958,3.4991,3.6268,3.7177,3.7124,3.7444,3.7703,3.7756,3.765,3.765,3.7791,3.8142,3.8649,3.933,3.9605,3.9984,4.0453,4.0125,3.9985,3.9944,3.985,4.0125,4.0659,4.076,4.1092,4.1566,4.1782,4.2116,4.243,4.2486,4.3008,4.3799,4.3831,4.3569,4.3007,4.1707,4.0505,3.9472,3.9266,3.9368,3.96,3.9616,4.0359,4.1254,4.1307,4.1556,4.1839,4.1857,4.137,4.0854,4.0854,4.0681,4.0581,4.0808,4.0693,4.0581,4.0827,4.0703,4.0564,4.0564,4.1158,4.1479,4.0954,4.1441,4.1715,4.1172,4.1146,4.117,4.1171,4.1171,4.115,4.1116,4.1091,4.1108,4.1108,4.1108,4.1108,4.1108,4.1103,4.1091,4.1094,4.103,4.0194,3.8516,3.841,3.7559,3.5864,3.5864,3.5866,3.5859,3.5823,3.5807,0.0,0.0,2.7897,2.9598,3.043,3.1186,3.255,3.2888,3.3064,3.3534,3.3758,3.3895,3.3947,3.4023,3.4074,3.4074,3.4023,3.3998,3.3998,3.4016,3.433,3.5106,3.5919,3.6804,0.0,3.8168,3.8382,3.8382,3.8,3.7982,3.8446,3.8618,3.869,3.8737,3.9607,3.9994,3.9818,3.9935,4.0095,4.0262,3.9939,3.98,3.9857,4.0256,4.0268,4.0015,4.0804,4.1654,4.2511,4.2724,4.336,4.4285,4.4411,4.3858,4.3025,4.31,4.1997,4.0364,3.9708,4.0052,4.0779,4.0999,4.1616,4.2386,4.2581,4.2641,4.2719,4.2977,4.2431,4.1758,4.1758,4.1123,4.0731,4.1634,4.1147,4.075,4.1654,4.1241,4.0694,4.0694,4.0869,4.1026,4.1007,4.1076,4.1127,4.1108,4.1091,4.1097,4.1107,4.1107,4.1107,4.1107,4.1097,4.1108,4.1108,4.1108,4.1108,4.1108,4.1093,4.1104,4.11,4.1037,4.0181,3.8447,3.8399,3.7544,3.5799,3.5799,3.5799,3.5799,3.5799,3.5807,2.7252,0.0,2.9072,3.0641,3.1602,3.2405,3.3325,3.345,3.3389,3.3387,3.3047,3.2729,3.2579,3.3131,3.3649,3.3649,3.4054,3.4404,3.4404,3.4404,3.4614,3.5261,3.5646,0.0,0.0,0.0,0.0,3.8713,3.8415,3.8285,3.8415,3.8218,3.8402,3.9021,3.8813,3.8959,3.9463,3.924,3.9164,3.9227,3.969,3.9886,3.9904,4.0552,4.0796,4.0726,4.0983,4.1714,4.2718,4.2767,4.3431,4.4458,4.4632,4.4497,4.4131,4.3712,4.3151,4.2497,4.1544,4.1499,4.1869,4.1939,4.2623,4.3477,4.3539,4.3292,4.2979,4.3069,4.2499,4.172,4.1101,4.1639,4.227,4.1972,4.2121,4.2292,4.2083,4.1817,4.1461,4.0885,4.0883,4.0992,4.0992,4.106,4.1091,4.1091,4.1101,4.1091,4.1097,4.1097,4.1097,4.1097,4.1091,4.1108,4.1108,4.1108,4.1099,4.1093,4.1105,4.1078,4.1047,4.0979,4.0118,3.8438,3.8354,3.7491,3.5799,3.5799,3.5799,3.5799,3.5799,3.5815,2.7199,2.8251,2.9318,3.1187,3.2046,3.2725,3.3769,3.3882,3.3636,3.3105,3.2862,3.2618,3.2108,3.2599,3.3091,3.3072,3.3506,3.3938,3.4198,3.4235,3.4677,3.5875,3.5829,3.6278,0.0,0.0,0.0,3.8905,3.846,3.8273,3.8504,3.7976,3.808,3.8898,3.8391,3.8484,3.9193,3.882,3.8658,3.8707,3.9221,3.946,3.9496,4.0349,4.0749,4.0767,4.1125,4.1915,4.2928,4.2967,4.3624,4.4621,4.4821,4.4895,4.4776,4.4364,4.4205,4.4056,4.2758,4.2614,4.2971,4.3075,4.375,4.4576,4.4576,4.4075,4.3585,4.3912,4.298,4.1817,4.1505,4.2101,4.2623,4.2049,4.2356,4.2666,4.2208,4.1885,4.1544,4.0978,4.0964,4.1045,4.1045,4.1073,4.1094,4.1094,4.109,4.1101,4.1097,4.1094,4.1108,4.1108,4.1108,4.1108,4.1108,4.1099,4.111,4.1093,4.1072,4.1037,4.0992,4.0952,4.0112,3.843,3.8354,3.7491,3.5807,3.5807,3.5815,3.5842,3.5842,3.5857,2.6482,2.7552,2.8773,3.1284,3.1845,3.2241,3.3949,3.4158,3.3704,3.2705,3.3077,3.3296,0.0,0.0,3.239,3.2384,3.2447,3.276,3.3507,3.3601,3.4469,0.0,0.0,0.0,0.0,0.0,0.0,3.8821,0.0,3.7979,3.8564,3.7842,3.7716,3.8269,3.8342,3.8528,3.8924,3.8631,3.8559,3.8719,3.8738,3.8738,3.8756,3.9667,4.0059,4.0145,4.1126,4.2146,4.3071,4.3224,4.3914,4.4843,4.5042,4.5023,4.4938,4.5065,4.5175,4.4993,4.3387,4.3388,4.4116,4.4303,4.4932,4.5586,4.5586,4.4989,4.4451,4.524,4.372,4.2047,4.2777,4.2428,4.1882,4.1899,4.1944,4.2013,4.2092,4.1572,4.1051,4.1013,4.1051,4.1094,4.1094,4.1094,4.1094,4.1094,4.1094,4.1094,4.1108,4.1099,4.1091,4.1091,4.1094,4.1094,4.1094,4.1092,4.1074,4.1073,4.1022,4.1,4.0981,4.0885,4.0063,3.8421,3.8363,3.7497,3.5784,3.5784,3.5838,3.5878,3.5878,3.5898,2.7227,2.8376,2.9531,3.1481,3.1923,3.216,3.3254,3.2959,3.22,3.1291,3.0799,3.025,0.0,0.0,0.0,3.0786,3.1752,0.0,3.3634,3.3748,0.0,3.6274,0.0,3.6043,3.7737,3.7108,0.0,0.0,3.7175,3.6842,3.6989,3.6777,3.6748,3.6922,3.7393,3.7705,3.7831,3.8277,3.8615,3.8847,3.896,3.9073,3.9237,3.9518,3.9664,3.9713,4.0672,4.1606,4.254,4.3256,4.4104,4.5042,4.5178,4.5241,4.5222,4.54,4.5476,4.5437,4.5013,4.5013,4.5206,4.5259,4.5413,4.5586,4.5586,4.4989,4.422,4.3835,4.3307,4.2568,4.1447,4.2073,4.2819,4.2197,4.2622,4.3017,4.2458,4.2177,4.1854,4.1207,4.1084,4.1099,4.1099,4.1099,4.1099,4.1099,4.1107,4.1092,4.1094,4.1093,4.1092,4.1092,4.1054,4.1029,4.1029,4.0925,4.0877,4.0888,4.0854,4.0831,4.0787,4.0184,3.9348,3.8263,3.7616,3.6765,3.5736,3.5736,3.5763,3.5838,3.5838,3.5852,2.6937,2.8108,2.9233,3.096,3.1399,3.1542,3.2046,3.1743,3.1025,2.976,2.9421,0.0,0.0,0.0,0.0,0.0,0.0,0.0,3.2752,3.2891,3.3623,0.0,3.519,0.0,3.7045,3.6454,3.6121,0.0,3.6415,3.6416,3.656,3.6237,3.6165,3.6381,3.6767,3.7172,3.7618,3.8479,3.898,3.9152,3.9268,3.9389,3.9489,3.9991,4.0203,4.0236,0.0,4.2177,4.3126,4.3602,4.4412,4.532,4.54,4.5438,4.5419,4.5194,4.5109,4.5067,4.4757,4.4636,4.4737,4.5387,4.5387,4.5186,4.5505,4.4989,4.4218,4.3789,4.3168,4.2402,4.1403,4.1985,4.2607,4.1727,4.2278,4.2767,4.1969,4.1816,4.1677,4.1192,4.1108,4.1108,4.1108,4.1108,4.1108,4.1108,4.1097,4.1099,4.1055,4.1064,4.1069,4.1069,4.0968,4.0905,4.0905,4.0831,4.0799,4.0792,4.0771,4.0746,4.0694,3.9932,3.9093,3.821,3.7362,3.6541,3.5747,3.5747,3.5765,3.5795,3.5795,3.5823,2.6193,2.7336,2.8407,2.9869,3.0505,3.069,3.0494,3.0484,3.0058,2.8301,0.0,2.8735,2.7916,2.8421,2.9039,2.9198,0.0,3.0731,3.1598,3.1728,3.2593,3.492,3.4572,3.4769,3.6326,3.5801,3.5361,3.5335,3.5863,3.6312,3.6555,3.5866,3.5721,3.6251,3.6288,3.6739,3.7705,3.8696,3.9295,3.9524,3.9599,3.9724,3.9879,4.0672,4.1076,4.1228,4.2172,4.3174,4.4135,4.425,4.4766,4.5447,4.5447,4.5387,4.5227,4.4578,4.4363,4.426,4.3613,4.3325,4.346,4.4862,4.4866,4.4471,4.5105,4.4765,4.4183,4.424,4.3131,4.1974,4.2131,4.2081,4.1785,4.1148,4.1538,4.1861,4.1168,4.1054,4.1103,4.1091,4.1108,4.1108,4.1108,4.1108,4.1108,4.1108,4.1085,4.107,4.1019,4.0998,4.0984,4.0976,4.0869,4.0785,4.0785,4.077,4.0771,4.0771,4.0711,4.063,4.0526,3.9739,3.8899,3.8028,3.7228,3.6464,3.5766,3.5766,3.5784,3.5791,3.5791,3.5793,2.6178,2.7099,2.7875,2.8268,2.9433,3.0133,2.886,2.9156,0.0,0.0,2.7221,2.705,2.6199,2.6746,2.7539,2.8229,0.0,0.0,0.0,0.0,3.2566,0.0,0.0,0.0,0.0,0.0,0.0,0.0,0.0,3.5513,3.5229,3.4929,3.503,3.5653,3.5671,3.5985,3.6666,3.7642,3.8671,3.9679,3.9794,4.0344,4.1246,4.0803,4.0936,4.157,4.2561,0.0,4.432,4.5031,4.5095,4.4699,4.4699,4.4324,4.3765,4.3632,4.3585,4.3566,4.3432,4.2965,4.256,4.3479,4.3668,4.3532,4.3742,4.3635,4.3479,4.3556,4.286,4.2225,4.2967,4.2173,4.1333,4.19,4.166,4.124,4.1101,4.1097,4.1091,4.1111,4.1108,4.1108,4.1108,4.1108,4.1108,4.1108,4.1057,4.1006,4.0994,4.1,4.0968,4.0843,4.0752,4.0726,4.0726,4.0623,4.0559,4.0559,4.053,4.0241,3.9576,3.8709,3.7874,3.7051,3.6245,3.5778,3.5629,3.5629,3.5689,3.5803,3.5803,3.5718,2.5782,2.6412,2.6915,2.7963,2.883,2.9133,2.8077,0.0,0.0,0.0,2.6116,2.6045,2.5637,0.0,0.0,0.0,0.0,0.0,0.0,0.0,0.0,0.0,0.0,0.0,0.0,0.0,0.0,0.0,0.0,3.5412,3.5062,3.5362,3.5665,3.5964,3.6769,3.7363,3.7648,3.8641,3.9667,4.0747,4.0807,4.1379,4.2366,4.2016,4.2036,4.2403,4.2896,0.0,4.3771,4.4195,4.4186,4.3935,4.3935,4.3718,4.3345,4.2935,4.2777,4.2727,4.2344,4.1947,4.1696,4.2071,4.2432,4.282,4.3219,4.3325,4.3238,4.2868,4.2799,4.2844,4.2869,4.2301,4.1833,4.2244,4.1709,4.1108,4.1108,4.1108,4.1108,4.1108,4.1108,4.1108,4.1108,4.1108,4.1081,4.1061,4.1011,4.0967,4.0858,4.084,4.082,4.0749,4.0649,4.0607,4.0607,4.0534,4.0489,4.0489,4.0489,4.0138,3.9336,3.8502,3.7681,3.687,3.6064,3.5662,3.5646,3.5646,3.5687,3.5747,3.5747,3.5637,2.4519,2.515,2.5656,2.6949,2.7705,2.7926,2.7141,2.7158,0.0,0.0,2.5352,2.5447,2.5428,0.0,0.0,0.0,0.0,0.0,0.0,0.0,0.0,0.0,0.0,0.0,0.0,0.0,0.0,0.0,0.0,0.0,3.522,3.5787,3.614,3.614,3.7389,3.8136,3.8326,3.931,4.0372,4.1459,4.147,4.1979,4.2892,4.268,4.2699,4.2888,4.2888,0.0,0.0,4.3234,4.3191,4.3141,4.3141,4.3053,4.2827,4.2195,4.1961,4.1869,4.1293,4.1091,4.1094,4.1091,4.1486,4.2064,4.2652,4.282,4.2751,4.2357,4.2734,4.3173,4.2771,4.2535,4.2341,4.2165,4.1599,4.1108,4.1081,4.1078,4.1074,4.107,4.1046,4.1042,4.1042,4.1042,4.1008,4.0981,4.0933,4.0876,4.0718,4.0668,4.0655,4.0655,4.0545,4.0489,4.0489,4.0489,4.0489,4.0489,4.035,3.9884,3.9066,3.8279,3.7469,3.6656,3.6021,3.5704,3.5704,3.5704,3.5704,3.5704,3.5662,3.5521,2.1497,2.2831,2.4026,2.3472,2.5149,2.6591,2.5194,0.0,0.0,2.5267,2.5175,2.5226,2.5232,2.5395,0.0,0.0,0.0,0.0,0.0,0.0,0.0,0.0,0.0,0.0,0.0,0.0,0.0,0.0,0.0,0.0,3.5219,3.5259,3.5315,3.5315,3.5508,3.5998,3.6781,3.7737,3.9044,4.07,4.0757,4.1269,4.2164,4.1362,4.1441,4.2188,4.2188,0.0,0.0,4.3382,4.2956,4.2318,4.2318,4.1889,4.1293,4.1238,4.1202,4.1182,4.1127,4.1099,4.1105,4.1094,4.1152,4.1213,4.1272,4.1309,4.1456,4.2184,4.244,4.2663,4.339,4.2997,4.2192,4.1404,4.1166,4.1081,4.1013,4.1011,4.0987,4.0918,4.0874,4.0837,4.0837,4.0837,4.0837,4.082,4.0759,4.0718,4.0694,4.0588,4.0519,4.0519,4.0504,4.0489,4.0489,4.0489,4.0489,4.0489,3.9807,3.9047,3.824,3.745,3.6636,3.5839,3.5742,3.5704,3.5704,3.5704,3.5704,3.5704,3.5509,3.5316,2.0951,2.1586,2.1927,2.2765,2.37,2.4208,2.3456,0.0,0.0,2.3758,2.3742,2.402,2.4708,2.4949,2.5187,0.0,0.0,0.0,0.0,0.0,0.0,0.0,0.0,0.0,0.0,0.0,0.0,0.0,0.0,0.0,3.5564,3.6009,3.6284,3.628,3.6734,3.7394,3.828,3.8672,3.9721,4.1441,4.1478,4.1959,4.2818,4.246,4.2509,4.2879,4.2879,4.2791,0.0,4.2688,4.2234,4.1588,4.2115,4.1816,4.1225,4.2279,4.1992,4.1162,4.1656,4.1501,4.109,4.1054,4.1071,4.1091,4.1108,4.1108,4.1169,4.1513,4.197,4.2424,4.2812,4.2659,4.2165,4.1265,4.1037,4.1022,4.0942,4.094,4.0918,4.091,4.0874,4.0866,4.0857,4.0857,4.083,4.0749,4.073,4.0668,4.0588,4.0534,4.0489,4.0489,4.0489,4.0489,4.0489,4.0489,4.0292,3.9807,3.9475,3.8728,3.743,3.7057,3.652,3.5723,3.5704,3.5704,3.5704,3.5577,3.5577,3.5704,3.5477,3.5288,1.9033,1.9411,1.9513,2.1129,2.1677,2.1819,0.0,0.0,0.0,2.2278,2.2282,2.2551,2.3368,2.3694,2.3865,0.0,0.0,2.5649,0.0,0.0,0.0,0.0,0.0,0.0,0.0,0.0,0.0,0.0,0.0,0.0,3.5775,3.6324,3.6651,3.6665,3.719,3.8016,3.9122,3.9122,3.9869,4.1354,4.1607,4.1917,4.2274,4.2518,4.268,4.2712,4.2716,0.0,0.0,4.2153,4.1954,4.1576,4.2441,4.2405,4.1975,4.2941,4.234,4.1152,4.1696,4.1362,4.0719,4.0906,4.1009,4.0996,4.0757,4.0697,4.0779,4.1033,4.1316,4.1538,4.1583,4.1608,4.1432,4.0772,4.0792,4.0948,4.0874,4.0848,4.082,4.082,4.0801,4.0791,4.077,4.0789,4.0757,4.0655,4.0642,4.0621,4.0504,4.0489,4.0489,4.0489,4.0489,4.0489,4.0489,4.0273,3.9903,3.9336,3.8849,3.808,3.6953,3.6675,3.6281,3.5704,3.5704,3.5673,3.562,3.5464,3.5451,3.5509,3.5336,3.5149,1.4758,1.5735,1.6833,1.7645,1.8696,1.9663,0.0,0.0,0.0,2.1026,2.101,2.0932,2.095,2.1261,2.1516,2.1452,2.2736,0.0,0.0,0.0,0.0,0.0,0.0,0.0,0.0,0.0,0.0,0.0,0.0,0.0,3.5706,3.5772,3.5838,3.5916,3.5986,3.6823,3.8495,3.8514,3.8947,3.9832,4.0701,4.0671,3.9864,4.0727,4.1111,4.1111,4.1116,4.1123,0.0,4.2036,4.2396,4.2474,4.3349,4.3686,4.3551,4.2651,4.1765,4.0984,4.0937,4.0379,3.9842,4.0649,4.0894,4.0749,3.9964,3.9763,3.9981,4.0858,4.0449,3.974,3.9738,3.9723,3.9738,3.9719,4.0315,4.0882,4.082,4.0738,4.068,4.0615,4.0549,4.0504,4.0504,4.0504,4.0504,4.0504,4.0504,4.0504,4.0489,4.0489,4.0489,4.0489,4.0489,4.0489,4.0489,3.9769,3.9316,3.9297,3.7804,3.6914,3.6895,3.6137,3.5704,3.5704,3.5704,3.5608,3.5405,3.5405,3.5302,3.5114,3.4963,3.4811,1.422,1.4616,1.5037,1.6471,1.6864,1.7011,1.7484,0.0,0.0,1.9823,1.9767,1.9855,2.0906,2.0982,2.0936,2.1111,2.166,0.0,0.0,0.0,0.0,0.0,0.0,0.0,0.0,0.0,0.0,0.0,0.0,0.0,3.562,3.5696,3.5755,3.5827,3.5934,3.6523,3.7604,3.7604,3.8055,3.8916,3.9186,3.917,3.8925,3.9198,3.9648,0.0,4.0215,4.0546,0.0,4.1345,4.1463,4.158,4.2415,4.2373,4.196,4.2868,4.2225,4.1008,4.1546,4.1198,4.0563,4.082,4.0529,4.0024,3.9791,3.97,3.9666,3.9295,3.901,3.8811,3.8753,3.8788,3.8805,3.8741,3.8898,3.9209,3.9743,3.9843,3.9992,4.0552,4.064,4.0626,4.0579,4.0569,4.0539,4.0523,4.0489,4.0489,4.0489,4.0489,4.0489,4.0489,4.0019,3.9687,3.9687,3.9437,3.883,3.7726,3.7172,3.6656,3.6099,3.5839,3.5651,3.5509,3.5631,3.5521,3.5193,3.5331,3.5302,3.5098,3.4963,3.487,0.0,1.2869,1.3041,1.467,1.4948,0.0,0.0,0.0,0.0,0.0,1.7792,1.7831,1.9142,1.9234,1.919,1.9499,2.0389,0.0,0.0,0.0,0.0,0.0,0.0,0.0,0.0,0.0,0.0,0.0,0.0,0.0,3.5339,3.5465,3.5582,3.5655,3.5877,3.6403,3.7225,3.7206,3.746,3.8008,3.8339,3.832,3.8023,3.8358,3.8805,3.9305,3.931,0.0,0.0,4.0896,4.1231,4.1621,4.2436,4.2422,4.2027,4.2797,4.2156,4.0976,4.1441,4.1072,4.043,4.0761,4.0099,3.9104,3.8764,3.8879,3.8921,3.7674,3.7564,3.776,3.7404,3.7589,3.7812,3.7793,3.7994,3.833,3.8832,3.8955,3.9116,3.9657,3.9978,4.0163,4.013,4.0357,4.0558,4.0539,4.0539,4.0423,4.013,4.0072,3.9957,3.9629,3.9143,3.8714,3.8433,3.8395,3.7964,3.6953,3.6617,3.6192,3.5596,3.5577,3.5521,3.5405,3.5451,3.535,3.5114,3.5098,3.503,3.4925,3.4831,3.4791,0.0,0.0,0.0,0.0,0.0,0.0,0.0,0.0,0.0,0.0,0.0,0.0,0.0,1.6496,1.6719,1.7101,1.8967,0.0,0.0,0.0,0.0,0.0,0.0,0.0,0.0,0.0,0.0,0.0,0.0,0.0,3.4906,3.5136,3.5328,3.5406,3.5768,3.6345,3.7164,3.7102,3.7077,3.707,3.7965,3.7964,3.722,3.8098,3.8524,0.0,3.86,0.0,0.0,4.0684,4.1472,4.2268,4.3019,4.3312,4.3208,4.241,4.1597,4.0888,4.0823,4.0266,3.97,4.0401,3.9561,3.8109,3.7127,3.7425,3.7785,3.6149,3.6245,3.6632,3.5897,3.6245,3.6826,3.6872,3.751,3.8129,3.8168,3.8182,3.8189,3.8208,3.8755,3.922,3.922,3.9826,4.0346,4.0414,4.0414,4.0159,3.9397,3.9301,3.8992,3.8182,3.8047,3.7694,3.6941,3.6895,3.6876,3.6786,3.6087,3.5577,3.5391,3.5378,3.5378,3.5364,3.5162,3.5081,3.5098,3.4753,3.4642,3.4698,3.4717,3.4714,0.898,0.0,0.9903,1.0955,1.0961,0.0,0.0,0.0,0.0,0.0,0.0,0.0,0.0,0.0,0.0,0.0,0.0,0.0,0.0,0.0,0.0,0.0,0.0,0.0,0.0,0.0,0.0,0.0,0.0,3.4555,3.4888,3.5057,3.5225,3.5387,3.5542,3.5726,3.5926,3.5918,3.5862,3.5824,3.6802,3.7175,3.7,3.7988,3.8799,3.9427,0.0,0.0,4.0641,4.0799,4.0993,4.1235,4.1383,4.1431,4.1412,4.1188,4.1011,4.0823,4.0815,4.0676,4.0324,3.9232,3.8612,3.8012,3.645,3.6129,3.6226,3.582,3.5839,3.5936,3.5742,3.5839,3.6118,3.6677,3.6974,3.7302,3.7912,3.8086,3.8132,3.8189,3.8331,3.8453,3.8453,3.8581,3.867,3.8689,3.8689,3.8626,3.8433,3.8414,3.8317,3.8125,3.7553,3.7038,3.6699,3.6813,3.6581,3.5811,3.5579,3.5378,3.5178,3.5178,3.5133,3.5016,3.4812,3.4832,3.5098,3.4753,3.4988,3.5737,3.5647,3.5916,0.7893,0.852,0.9417,1.0102,1.0398,1.0841,0.0,0.0,0.0,0.0,0.0,0.0,0.0,0.0,0.0,0.0,0.0,0.0,0.0,0.0,0.0,0.0,0.0,0.0,0.0,0.0,0.0,0.0,0.0,3.3629,3.4367,3.4579,3.4756,3.4865,3.4986,3.5235,3.5502,3.5461,3.5438,3.5407,3.5947,3.6209,3.6218,3.6784,3.7541,3.8423,3.8423,0.0,4.0296,4.0227,4.0469,4.0897,4.0823,4.0792,4.0749,4.0316,4.0145,4.0037,3.9567,3.9464,3.9303,3.7996,3.7552,3.7269,3.5913,3.5457,3.5411,3.5651,3.562,3.563,3.6072,3.6151,3.615,3.6536,3.6618,3.6738,3.7164,3.7294,3.7358,3.7481,3.7747,3.7805,3.7401,3.7539,3.774,3.7855,3.7886,3.7829,3.7546,3.7527,3.736,3.6922,3.6473,3.6131,3.5933,3.6008,3.583,3.5292,3.5273,3.5197,3.5015,3.4997,3.4926,3.4771,3.4751,3.4792,3.487,3.5105,3.5475,3.6015,3.6321,3.6663,0.7138,0.8002,0.9104,0.9538,1.0231,1.0867,0.0,0.0,0.0,0.0,0.0,0.0,0.0,0.0,0.0,0.0,0.0,0.0,0.0,0.0,0.0,0.0,0.0,0.0,0.0,0.0,0.0,0.0,0.0,3.2566,3.3739,3.4012,3.416,3.42,3.4413,3.4775,3.529,3.5316,3.5335,3.5335,3.5509,3.5586,3.5586,3.5733,3.6265,3.7069,0.0,0.0,3.9315,3.9262,3.9696,4.0416,4.037,4.0351,4.0258,3.9457,3.9141,3.897,3.8082,3.7862,3.78,3.6916,3.6594,3.6387,3.5496,3.5119,3.5066,3.5438,3.5405,3.5456,3.6309,3.6415,3.6293,3.6339,3.636,3.636,3.636,3.636,3.6372,3.642,3.6845,3.6955,3.6193,3.6482,3.6896,3.7128,3.7217,3.7067,3.6559,3.653,3.6228,3.5374,3.5283,3.5224,3.5028,3.5011,3.4994,3.4959,3.503,3.4997,3.4851,3.4851,3.4771,3.4583,3.4751,3.4807,3.4789,3.5477,3.5983,3.6269,3.6944,3.7296,0.671,0.7464,0.8305,0.8759,0.8916,0.9429,0.0,0.0,0.0,0.0,0.0,0.0,0.0,0.0,0.0,0.0,0.0,0.0,0.0,0.0,0.0,0.0,0.0,0.0,0.0,0.0,0.0,0.0,0.0,3.249,3.3813,3.3921,3.4012,3.42,3.4232,3.4307,3.4395,3.4832,3.5051,3.507,3.5975,3.643,3.6449,3.7242,3.7693,3.7833,0.0,3.7873,3.8084,3.807,3.8146,3.8262,3.8247,3.8315,3.8344,3.818,3.8108,3.8074,3.7808,3.768,3.7526,3.6638,3.6353,3.6167,3.5243,3.4943,3.4925,3.4942,3.4996,3.5069,3.5238,3.524,3.5396,3.6008,3.616,3.616,3.616,3.616,3.5951,3.5284,3.5265,3.5229,3.4983,3.5022,3.5097,3.5135,3.5211,3.5191,3.5038,3.5037,3.4981,3.483,3.4811,3.4737,3.4615,3.4595,3.4529,3.4348,3.4694,3.4851,3.4647,3.4666,3.4626,3.4602,3.4517,3.4873,3.5709,3.5552,3.6267,3.7773,3.7904,3.8315,0.5941,0.664,0.7524,0.8455,0.9068,0.9622,0.0,0.0,0.0,0.0,0.0,0.0,0.0,0.0,0.0,0.0,0.0,0.0,0.0,0.0,0.0,0.0,0.0,0.0,0.0,0.0,0.0,0.0,0.0,0.0,3.2906,3.2973,3.3141,3.3496,3.3652,3.3715,3.3723,3.4096,3.4383,3.4586,3.521,3.5533,3.5533,3.6093,3.6632,3.7124,0.0,3.737,3.7801,3.7801,3.7836,3.7851,3.7851,3.7851,3.7778,3.7118,3.6519,3.6065,3.6083,3.6064,3.597,3.5571,3.5382,3.5247,3.4807,3.4569,3.4442,3.4508,3.4614,3.481,3.5343,3.5376,3.5346,3.5653,3.5706,3.5706,3.5706,3.5706,3.5656,3.543,3.5273,3.4996,3.4524,3.4319,3.4274,3.4427,3.4492,3.4557,3.4621,3.468,3.4661,3.46,3.4598,3.4534,3.4348,3.4325,3.4298,3.4197,3.439,3.448,3.4386,3.4386,3.4386,3.4386,3.4764,3.5168,3.5632,3.6378,3.7169,3.7958,3.8366,3.8748,0.5117,0.5796,0.6629,0.7811,0.0,0.9798,0.9826,0.0,0.0,0.0,0.0,0.0,0.0,0.0,0.0,0.0,0.0,0.0,0.0,0.0,0.0,0.0,0.0,0.0,0.0,0.0,0.0,0.0,0.0,0.0,3.1969,3.2161,3.2366,3.2702,3.3032,3.3214,3.3214,3.3413,3.3695,3.4093,3.4302,3.4458,3.4542,3.4672,3.5211,3.5988,3.6007,3.6385,3.7061,3.7061,3.7077,3.7132,3.7132,3.7113,3.6948,3.6008,3.516,3.4476,3.4588,3.4609,3.4569,3.4569,3.4505,3.4398,3.4386,3.4197,3.3998,3.4148,3.4208,3.4437,3.5255,3.531,3.5157,3.5089,3.5089,3.5089,3.5082,3.5064,3.5113,3.5324,3.5205,3.4853,3.4235,3.3947,3.3868,3.4074,3.416,3.4242,3.4386,3.4457,3.4454,3.4353,3.433,3.426,3.4124,3.4099,3.4099,3.4099,3.4173,3.4197,3.4197,3.4197,3.4197,3.4197,3.4964,3.5484,3.5713,3.7126,3.7887,3.809,3.8682,3.8892,0.4238,0.4875,0.556,0.6121,0.0,0.0,0.9815,0.0,0.0,0.0,0.0,0.0,0.0,0.0,0.0,0.0,0.0,0.0,0.0,0.0,0.0,0.0,0.0,0.0,0.0,0.0,0.0,0.0,0.0,0.0,3.156,3.2004,3.2213,3.2247,3.2684,3.293,3.293,3.2961,3.3237,3.3736,3.382,3.4024,3.4311,3.4269,3.4458,3.4823,3.4741,3.4779,3.4816,3.4816,3.4837,3.4837,3.4837,3.4837,3.4816,3.4739,3.4595,3.4427,3.4409,3.434,3.4245,3.4245,3.4197,3.4124,3.4049,3.3972,3.3895,3.3842,3.3842,3.3887,3.4097,3.4173,3.4173,3.4116,3.4166,3.4191,3.4097,3.4097,3.409,3.4039,3.4039,3.3968,3.386,3.3815,3.3807,3.3834,3.3815,3.3842,3.3868,3.385,3.385,3.3842,3.3842,3.3842,3.3815,3.3815,3.3815,3.3815,3.4074,3.4197,3.4197,3.4197,3.4197,3.4197,3.4862,3.5684,3.6612,3.7229,3.7982,3.8818,3.8815,3.8822,0.4152,0.4941,0.5668,0.6039,0.0,0.0,0.0,0.0,0.0,0.0,0.0,0.0,0.0,0.0,0.0,0.0,0.0,0.0,0.0,0.0,0.0,0.0,0.0,0.0,0.0,0.0,0.0,0.0,0.0,0.0,3.0328,3.0951,3.1456,3.1861,3.2144,3.237,3.2574,3.2574,3.2705,3.2903,3.3317,3.357,3.3697,3.381,3.3956,3.4074,3.4049,3.4049,3.4049,3.4049,3.4049,3.4049,3.4179,3.4111,3.4018,3.425,3.4105,3.3805,3.3954,3.3998,3.3947,3.3947,3.4023,3.4099,3.4023,3.3947,3.3895,3.3815,3.3807,3.3815,3.3868,3.3895,3.3895,3.3868,3.3895,3.3895,3.3868,3.3868,3.3868,3.3842,3.386,3.3842,3.3842,3.3868,3.3868,3.3921,3.3895,3.3868,3.3868,3.3834,3.3807,3.3807,3.3807,3.3807,3.3807,3.3807,3.3834,3.3842,3.3921,3.3947,3.3947,3.3947,3.3947,3.3947,3.522,3.6067,3.6436,3.7665,3.8377,3.8634,3.8572,3.8528,0.4118,0.4793,0.0,0.0,0.0,0.0,0.0,0.0,0.0,0.0,0.0,0.0,0.0,0.0,0.0,0.0,0.0,0.0,0.0,0.0,0.0,0.0,0.0,0.0,0.0,0.0,0.0,0.0,0.0,0.0,0.0,2.9805,3.047,3.0849,3.137,3.1748,3.2001,3.1929,3.202,3.2284,3.2634,3.2934,3.3214,3.3411,3.3579,3.3661,3.3661,3.3661,3.3661,3.3661,3.3661,3.368,3.3823,3.3743,3.3643,3.3902,3.377,3.3419,3.3606,3.3652,3.3652,3.3726,3.3716,3.3733,3.3868,3.377,3.3662,3.3726,3.3652,3.3597,3.3726,3.378,3.3834,3.3807,3.3834,3.3815,3.3815,3.3815,3.3807,3.3834,3.3815,3.3815,3.3842,3.3895,3.3921,3.3947,3.3947,3.3921,3.3921,3.3895,3.3868,3.3868,3.3868,3.3868,3.3868,3.3868,3.3868,3.3921,3.3895,3.3868,3.3868,3.3842,3.3815,3.3815,3.5468,3.6303,3.6303,3.7918,3.8658,3.8559,3.8446,3.8368,0.4004,0.4295,0.0,0.0,0.0,0.0,0.0,0.0,0.0,0.0,0.0,0.0,0.0,0.0,0.0,0.0,0.0,0.0,0.0,0.0,0.0,0.0,0.0,0.0,0.0,0.0,0.0,0.0,0.0,0.0,0.0,2.8649,2.9287,2.91,3.0403,3.1083,3.1083,3.0908,3.1206,3.2003,3.1789,3.2144,3.3006,3.3055,3.3268,3.3605,3.3605,3.3605,3.3605,3.3605,3.3605,3.3605,3.3605,3.3605,3.3605,3.3605,3.3512,3.339,3.339,3.3332,3.3321,3.353,3.3291,3.2996,3.3541,3.3408,3.3172,3.3502,3.3339,3.3172,3.3502,3.3753,3.3868,3.3815,3.386,3.3895,3.3895,3.3842,3.3834,3.3895,3.3842,3.3807,3.3807,3.386,3.3895,3.3895,3.3947,3.3998,3.3998,3.3998,3.3998,3.3998,3.3998,3.3998,3.3998,3.3998,3.3998,3.3998,3.3998,3.3998,3.3998,3.3947,3.3895,3.3895,3.5468,3.6303,3.6303,3.7918,3.8707,3.8707,3.8496,3.8382,0.3398,0.0,0.0,0.0,0.0,0.0,0.0,0.0,0.0,0.0,0.0,0.0,0.0,0.0,0.0,0.0,0.0,0.0,0.0,0.0,0.0,0.0,0.0,0.0,0.0,0.0,0.0,0.0,0.0,0.0,0.0,2.7252,2.8404,2.896,2.9542,3.0149,3.0754,3.0788,3.0908,3.1167,3.1439,3.1968,3.2737,3.2623,3.2674,3.2755,3.2755,3.269,3.2555,3.269,3.2755,3.2787,3.2957,3.2862,3.2654,3.3045,3.2921,3.257,3.2766,3.283,3.2816,3.288,3.2908,3.2934,3.3014,3.3124,3.3184,3.3232,3.3172,3.3111,3.3202,3.3075,3.3027,3.3541,3.3484,3.3408,3.3643,3.3671,3.3671,3.3753,3.3753,3.3753,3.3842,3.3921,3.3998,3.4023,3.4049,3.4049,3.3998,3.3998,3.3998,3.3998,3.3998,3.3998,3.3998,3.3998,3.4023,3.4074,3.4074,3.4023,3.3921,3.3895,3.3868,3.3815,3.5468,3.6303,3.6303,3.7918,3.8707,3.8707,3.8528,3.8446,0.4663,0.0,0.0,0.0,0.0,0.0,0.0,0.0,0.0,0.0,0.0,0.0,0.0,0.0,0.0,0.0,0.0,0.0,0.0,0.0,0.0,0.0,0.0,0.0,0.0,0.0,0.0,0.0,0.0,0.0,0.0,2.5894,2.691,2.746,2.8001,2.8648,2.9379,2.9608,2.9889,3.0296,3.0746,3.1291,3.1968,3.2056,3.2126,3.2126,3.2126,3.2126,3.2179,3.2126,3.2214,3.2353,3.2368,3.2317,3.2266,3.2601,3.2486,3.2214,3.237,3.2438,3.2404,3.2454,3.247,3.2519,3.2651,3.2716,3.2699,3.2813,3.2684,3.2568,3.2749,3.2368,3.2196,3.2952,3.3001,3.2921,3.3154,3.3291,3.3397,3.3419,3.3541,3.3643,3.378,3.386,3.3921,3.4049,3.4099,3.4124,3.4074,3.4074,3.4074,3.4074,3.4074,3.4074,3.4074,3.4074,3.4099,3.4148,3.4148,3.4099,3.3972,3.3947,3.3895,3.3842,3.511,3.5954,3.6303,3.7588,3.8395,3.8707,3.8559,3.8478,0.0,0.0,0.0,0.0,0.0,0.0,0.0,0.0,0.0,0.0,0.0,0.0,0.0,0.0,0.0,0.0,0.0,0.0,0.0,0.0,0.0,0.0,0.0,0.0,0.0,0.0,0.0,0.0,0.0,0.0,2.3618,2.4554,2.5109,2.5229,2.6091,2.6855,2.7474,2.7799,2.8458,2.9297,2.9733,3.0195,3.074,3.1333,3.1588,3.1605,3.1605,3.1806,3.2162,3.1752,3.1842,3.2127,3.1806,3.1878,3.2214,3.2249,3.2232,3.2144,3.2144,3.2108,3.2108,3.2214,3.202,3.1856,3.237,3.2214,3.1966,3.2283,3.2039,3.1787,3.2127,3.1748,3.1389,3.2179,3.2417,3.2433,3.2565,3.2809,3.3032,3.3009,3.3214,3.3415,3.3577,3.3615,3.3734,3.3972,3.4099,3.4173,3.4173,3.4173,3.4173,3.4173,3.4173,3.4173,3.4173,3.4173,3.4173,3.4173,3.4173,3.4148,3.4074,3.4023,3.3972,3.3895,3.4623,3.5404,3.6174,3.7055,3.7863,3.8566,3.8523,3.8446,0.0,0.0,0.0,0.0,0.0,0.0,0.0,0.0,0.0,0.0,0.0,0.0,0.0,0.0,0.0,0.0,0.0,0.0,0.0,0.0,0.0,0.0,0.0,0.0,0.0,0.0,0.0,0.0,0.0,0.0,2.2621,2.3673,2.4364,2.4582,2.5221,2.5864,2.6435,2.6957,2.7439,2.7849,2.8274,2.8523,2.8715,3.0241,3.092,3.092,3.0794,3.0954,3.1253,3.1038,3.096,3.1077,3.1342,3.1397,3.1393,3.1765,3.1893,3.191,3.191,3.1873,3.1873,3.1893,3.1783,3.1654,3.1785,3.1877,3.1967,3.1985,3.1913,3.1841,3.1823,3.1524,3.1269,3.1428,3.1694,3.195,3.2299,3.2401,3.2586,3.2925,3.2713,3.2695,3.3386,3.3361,3.3393,3.3928,3.4023,3.4049,3.4049,3.4049,3.4049,3.4049,3.4049,3.4049,3.4049,3.4049,3.4049,3.4049,3.4049,3.4023,3.3947,3.3972,3.3972,3.3895,3.4623,3.5082,3.5265,3.6655,3.7412,3.7595,3.8154,3.8401,0.0,0.0,0.0,0.0,0.0,0.0,0.0,0.0,0.0,0.0,0.0,0.0,0.0,0.0,0.0,0.0,0.0,0.0,0.0,0.0,0.0,0.0,0.0,0.0,0.0,0.0,0.0,0.0,0.0,2.2534,2.2189,2.2701,2.317,2.3491,2.4029,2.4633,2.5272,2.6114,2.6656,2.6976,2.7445,2.7672,2.7533,2.8836,2.9423,2.9423,2.932,2.952,2.9854,2.9543,2.9719,3.0172,3.0195,3.0453,3.0885,3.1295,3.1449,3.1504,3.1709,3.18,3.18,3.18,3.1746,3.1709,3.1709,3.1765,3.1804,3.1748,3.1674,3.16,3.1507,3.1351,3.119,3.119,3.1329,3.1524,3.1731,3.1896,3.2074,3.23,3.2196,3.2264,3.2731,3.2934,3.313,3.3411,3.3698,3.3895,3.3895,3.3947,3.3998,3.3998,3.3998,3.3998,3.3998,3.3998,3.3998,3.3998,3.3998,3.3972,3.3947,3.3947,3.3921,3.3842,3.4211,3.4633,3.499,3.6161,3.6936,3.7308,3.805,3.8368,0.0,0.0,0.0,0.0,0.0,0.0,0.0,0.0,0.0,0.0,0.0,0.0,0.0,0.0,0.0,0.0,0.0,0.0,0.0,0.0,0.0,0.0,0.0,0.0,0.0,0.0,0.0,0.0,0.0,2.2044,2.2044,2.2044,2.2123,2.2374,2.2815,2.342,2.4059,2.5035,2.5664,2.599,2.6513,2.6598,2.6397,2.6951,2.7421,2.7761,2.7802,2.8056,2.8384,2.8017,2.8418,2.9194,2.8837,2.928,3.0112,3.0633,3.0718,3.069,3.1401,3.1585,3.1499,3.1674,3.1763,3.1763,3.1763,3.1634,3.1542,3.1542,3.1428,3.1274,3.1257,3.1213,3.119,3.119,3.119,3.119,3.119,3.1428,3.162,3.16,3.1841,3.1986,3.1986,3.24,3.2777,3.2872,3.3255,3.3532,3.3606,3.3716,3.3752,3.3707,3.3778,3.3823,3.3752,3.3778,3.3778,3.3778,3.385,3.3876,3.3876,3.3868,3.386,3.3807,3.3807,3.4137,3.477,3.5538,3.6285,3.7107,3.7849,3.8209,0.0,0.0,0.0,0.0,0.0,0.0,0.0,0.0,0.0,0.0,0.0,0.0,0.0,0.0,0.0,0.0,0.0,0.0,0.0,0.0,0.0,0.0,0.0,0.0,0.0,0.0,0.0,0.0,2.2044,2.2184,2.2184,2.2184,2.2091,2.1888,2.2328,2.2649,2.2756,2.3305,2.367,2.3882,2.3973,2.4018,2.3975,2.4046,2.5118,2.6891,2.7047,2.7158,2.7243,2.7416,2.7563,2.7702,2.7932,2.8103,2.8387,2.9301,2.9181,2.8838,3.051,3.0639,3.0239,3.1202,3.1555,3.1555,3.1555,3.1445,3.1351,3.1252,3.123,3.119,3.1055,3.1112,3.119,3.119,3.119,3.119,3.119,3.123,3.1368,3.162,3.186,3.1914,3.1625,3.1897,3.2299,3.2731,3.2598,3.2548,3.289,3.2952,3.284,3.2497,3.2903,3.3093,3.2727,3.2872,3.2952,3.2952,3.3243,3.339,3.339,3.368,3.3807,3.3807,3.3807,3.3844,3.3972,3.4696,3.5433,3.6194,3.6934,3.7602,0.0,0.0,0.0,0.0,0.0,0.0,0.0,0.0,0.0,0.0,0.0,0.0,0.0,0.0,0.0,0.0,0.0,0.0,0.0,0.0,0.0,0.0,0.0,0.0,0.0,0.0,0.0,0.0,2.1712,2.1746,2.1746,2.1793,2.1793,2.1712,2.2203,2.2558,2.2694,2.3187,2.3537,2.3706,2.3593,2.355,2.355,2.3376,2.3995,2.5304,2.5373,2.5597,2.5907,2.6005,2.6243,2.6535,2.6684,2.6924,2.7306,2.7996,2.8005,2.7818,2.9231,2.9639,2.9705,3.052,3.0965,3.123,3.123,3.1117,3.1004,3.0982,3.0958,3.0912,3.0855,3.0935,3.1032,3.1032,3.1112,3.119,3.119,3.119,3.123,3.1295,3.1372,3.1355,3.1106,3.1376,3.1677,3.1825,3.1986,3.2144,3.2334,3.2417,3.2382,3.2229,3.2449,3.2533,3.2366,3.2415,3.25,3.2616,3.2777,3.289,3.3032,3.3332,3.3522,3.3522,3.3707,3.3807,3.3807,3.4549,3.5078,3.5403,3.657,3.7289,0.0,0.0,0.0,0.0,0.0,0.0,0.0,0.0,0.0,0.0,0.0,0.0,0.0,0.0,0.0,0.0,0.0,0.0,0.0,0.0,0.0,0.0,0.0,0.0,0.0,0.0,0.0,0.0,2.1375,2.1423,2.152,2.1616,2.1664,2.1664,2.2109,2.2434,2.2618,2.2979,2.3231,2.3348,2.3231,2.3143,2.3143,2.2889,2.3128,2.3776,2.3903,2.4184,2.4574,2.4735,2.5033,2.5389,2.5503,2.5832,2.6275,2.6741,2.6719,2.663,2.7827,2.8338,2.8584,2.9468,3.0104,3.0547,3.073,3.0781,3.0764,3.0764,3.0699,3.0651,3.0651,3.0733,3.0871,3.0871,3.0992,3.1151,3.119,3.119,3.119,3.1055,3.1015,3.0935,3.0814,3.0998,3.114,3.1162,3.1414,3.166,3.175,3.1844,3.1898,3.1773,3.1933,3.1969,3.188,3.1915,3.1986,3.2162,3.2282,3.2384,3.255,3.3032,3.3273,3.3273,3.3625,3.3807,3.3807,3.4358,3.4723,3.4914,3.6049,3.6692,0.0,0.0,0.0,0.0,0.0,0.0,0.0,0.0,0.0,0.0,0.0,0.0,0.0,0.0,0.0,0.0,0.0,0.0,0.0,0.0,0.0,0.0,0.0,0.0,0.0,0.0,0.0,0.0,2.1326,2.152,2.1746,2.1793,2.1793,2.1793,2.1793,2.1841,2.1841,2.1888,2.1888,2.1888,2.1888,2.1888,2.1888,2.1888,2.2109,2.2589,2.3084,2.326,2.3348,2.4002,2.4266,2.4297,2.4717,2.486,2.497,2.5415,2.5118,2.4704,2.6392,2.6509,2.6194,2.7934,2.8793,2.9329,2.9953,3.041,3.0692,3.0692,3.0609,3.051,3.051,3.0609,3.0692,3.0692,3.0855,3.1072,3.119,3.119,3.119,3.119,3.1112,3.0975,3.0975,3.0855,3.0838,3.1218,3.0861,3.0699,3.1123,3.1145,3.1004,3.0617,3.1106,3.13,3.0998,3.1134,3.1269,3.1269,3.164,3.1861,3.1861,3.2727,3.3214,3.3214,3.3606,3.3807,3.3807,3.3844,3.4211,3.4895,3.4968,3.5396,0.0,0.0,0.0,0.0,0.0,0.0,0.0,0.0,0.0,0.0,0.0,0.0,0.0,0.0,0.0,0.0,0.0,0.0,0.0,0.0,0.0,0.0,0.0,0.0,0.0,0.0,0.0,0.0,0.0,2.1423,2.1568,2.1793,2.1841,2.1664,2.1949,2.1996,2.1793,2.1616,2.1568,2.1568,2.1568,2.1616,2.1793,2.1712,2.1793,2.2077,2.2156,2.2558,2.3143,2.3391,2.3435,2.342,2.3852,2.4036,2.4067,2.451,2.4449,2.4231,2.5131,2.5459,2.5672,2.6629,2.7261,2.7891,2.8812,2.9199,2.9456,3.0185,3.0359,3.0274,3.0189,3.0359,3.0526,3.0568,3.0773,3.0952,3.0992,3.1112,3.119,3.119,3.1151,3.1112,3.1015,3.0895,3.0855,3.0935,3.0675,3.0551,3.0716,3.0699,3.0675,3.0526,3.0699,3.0781,3.0651,3.0692,3.0814,3.0992,3.1179,3.1355,3.1452,3.2074,3.2417,3.2417,3.2777,3.3255,3.3807,3.3807,3.3927,3.4193,3.4668,3.507,0.0,0.0,0.0,0.0,0.0,0.0,0.0,0.0,0.0,0.0,0.0,0.0,0.0,0.0,0.0,0.0,0.0,0.0,0.0,0.0,0.0,0.0,0.0,0.0,0.0,0.0,0.0,0.0,0.0,0.0,2.1423,2.1664,2.1698,2.1568,2.1793,2.1841,2.1664,2.1471,2.1423,2.1423,2.1423,2.1471,2.1616,2.152,2.1568,2.1664,2.1458,2.1827,2.2526,2.2709,2.2768,2.2723,2.3377,2.3595,2.3653,2.4024,2.4124,2.4101,2.4265,2.4548,2.4958,2.5423,2.5949,2.6569,2.7549,2.803,2.842,2.9447,2.9828,2.9936,3.0054,3.0146,3.0316,3.0443,3.0609,3.0749,3.0773,3.0975,3.119,3.119,3.119,3.119,3.1072,3.0992,3.0871,3.0773,3.0609,3.0526,3.0526,3.0526,3.0526,3.0526,3.0526,3.0526,3.0526,3.0526,3.0568,3.0733,3.0895,3.1015,3.1157,3.1677,3.195,3.195,3.2316,3.2759,3.3343,3.3504,3.3652,3.3798,3.4275,3.4559,0.0,0.0,0.0,0.0,0.0,0.0,0.0,0.0,0.0,0.0,0.0,0.0,0.0,0.0,0.0,0.0,0.0,0.0,0.0,0.0,0.0,0.0,0.0,0.0,0.0,0.0,0.0,0.0,2.0921,2.1082,2.1375,2.1375,2.1375,2.1423,2.1375,2.1375,2.1375,2.1375,2.1375,2.1375,2.1375,2.1326,2.118,2.118,2.1277,2.1375,2.1104,2.1153,2.1423,2.1949,2.2184,2.2278,2.3201,2.3551,2.361,2.4024,2.4166,2.4124,2.3882,2.3797,2.3902,2.4432,2.4938,2.5469,2.6147,2.6972,2.7786,2.854,2.8992,2.9395,3.0018,3.0087,3.006,3.0333,3.0375,3.0401,3.0485,3.0855,3.119,3.119,3.119,3.119,3.119,3.1032,3.0912,3.0912,3.0692,3.051,3.0526,3.0526,3.0526,3.0526,3.0526,3.0526,3.0526,3.0526,3.0526,3.0526,3.0733,3.0912,3.0912,3.1435,3.1789,3.1789,3.2248,3.2484,3.2484,3.2952,3.3379,3.3698,3.3762,3.3807,0.0674,0.0,0.0,0.0,0.0,0.0,0.0,0.0,0.0,0.0,0.0,0.0,0.0,0.0,0.0,0.0,0.0,0.0,0.0,0.0,0.0,0.0,0.0,0.0,0.0,0.0,0.0,0.0,2.0885,2.1033,2.1082,2.1082,2.118,2.1375,2.1082,2.0947,2.1082,2.0997,2.0848,2.0749,2.0749,2.0736,2.0772,2.0772,2.0858,2.0957,2.0894,2.0858,2.0871,2.1313,2.152,2.1712,2.2342,2.2586,2.2663,2.3377,2.3595,2.3653,2.3882,2.394,2.397,2.4109,2.4255,2.4548,2.5478,2.592,2.6356,2.7671,2.8087,2.8347,2.9165,2.9668,2.9946,3.0033,3.0162,3.0274,3.0274,3.0568,3.0814,3.0733,3.0855,3.0992,3.0992,3.0992,3.0952,3.0912,3.0733,3.0609,3.051,3.0526,3.0526,3.0526,3.0526,3.0526,3.0526,3.0526,3.0526,3.0526,3.0651,3.079,3.0912,3.1117,3.1257,3.1351,3.1487,3.1694,3.1914,3.2731,3.3202,3.335,3.3652,3.3807,0.0,0.0,0.0,0.0,0.0,0.0,0.5152,0.5429,0.6056,0.0,0.0,0.0,0.0,0.0,0.0,0.0,0.0,0.0,0.0,0.0,0.0,0.0,0.0,0.0,0.0,2.0599,2.0699,2.0699,2.0799,2.0848,2.0848,2.0848,2.0947,2.1082,2.0848,2.0749,2.0799,2.0662,2.0562,2.0347,2.0347,2.0398,2.0372,2.0372,2.0422,2.056,2.0459,2.0459,2.061,2.0723,2.0983,2.1277,2.1684,2.2016,2.231,2.3054,2.3406,2.3551,2.394,2.4082,2.4082,2.4024,2.3982,2.4085,2.4706,2.4983,2.5373,2.6522,2.7102,2.7506,2.819,2.8769,2.9187,2.9405,2.9778,3.0076,3.0076,3.0248,3.0401,3.0468,3.0692,3.079,3.0733,3.0733,3.0733,3.0733,3.0651,3.0568,3.0526,3.0526,3.0526,3.0526,3.0526,3.0526,3.0526,3.0526,3.0526,3.0526,3.0609,3.0773,3.0912,3.0975,3.1055,3.119,3.119,3.1351,3.1677,3.2435,3.3001,3.3408,3.3652,3.378,0.0,0.0,0.0,0.0,0.0,0.0,0.4598,0.5132,0.6134,0.8714,0.0,0.0,0.0,0.0,0.0,0.0,0.0,0.0,0.0,0.0,0.0,0.0,0.0,0.0,2.0118,2.0448,2.0599,2.0649,2.0662,2.0662,2.0662,2.0662,2.0662,2.0649,2.0649,2.0612,2.0461,2.0461,2.0347,2.0182,2.0182,2.0131,1.999,1.999,2.0029,2.0118,1.9901,2.0055,2.051,2.0271,2.0485,2.0983,2.1237,2.1623,2.2123,2.2815,2.3216,2.3508,2.3982,2.4166,2.4166,2.4067,2.4024,2.4024,2.4024,2.4261,2.4714,2.5389,2.6172,2.6862,2.7147,2.7631,2.8112,2.8517,2.9211,2.9789,2.9789,2.9853,3.0033,3.0359,3.0568,3.0609,3.0485,3.0443,3.0443,3.0485,3.0443,3.0417,3.0485,3.0485,3.0485,3.0485,3.0485,3.0526,3.0526,3.0526,3.0526,3.0526,3.0609,3.0733,3.0912,3.0952,3.1072,3.119,3.119,3.1351,3.1677,3.2144,3.2763,3.3587,3.3625,3.368,0.0,0.0,0.0,0.0,0.0,0.0,0.3909,0.4437,0.5255,0.0,0.0,0.0,0.0,0.0,0.0,0.0,0.0,0.0,0.0,0.0,0.0,0.0,0.0,0.0,1.9798,1.9965,2.0067,2.0283,2.0448,2.0562,2.0562,2.0562,2.0448,2.0283,2.0283,2.0283,2.0233,2.0233,2.0182,2.0042,2.0042,1.9978,1.9862,1.9862,1.9862,1.9862,1.9798,1.985,1.9952,1.9901,2.0207,2.066,2.0759,2.0809,2.1042,2.1988,2.236,2.2543,2.3653,2.4024,2.4067,2.4193,2.4219,2.4234,2.4166,2.4208,2.4348,2.4704,2.5466,2.6151,2.6135,2.6741,2.7408,2.7492,2.8281,2.9043,2.9069,2.9567,2.9989,3.0033,3.0162,3.0274,3.0274,3.0401,3.0485,3.0417,3.0417,3.0375,3.0274,3.0359,3.0401,3.0401,3.0485,3.0526,3.0526,3.0526,3.0526,3.0526,3.051,3.0651,3.0871,3.0912,3.0992,3.119,3.119,3.1351,3.1677,3.1842,3.2231,3.2816,3.3142,3.3332,0.0,0.0,0.0,0.1435,0.0,0.0,0.0,0.4471,0.5445,0.6533,0.6943,0.0,0.0,0.0,0.0,0.0,0.0,0.0,0.0,0.0,0.0,0.0,0.0,0.0,1.9552,1.9708,1.9914,2.0182,2.0296,2.0347,2.0347,2.0347,2.0296,2.0182,2.0182,2.0182,2.008,2.008,2.0029,1.9926,1.999,1.9978,1.9926,1.9926,1.9926,1.9926,1.9811,1.9798,1.9798,1.9798,1.9952,2.0207,2.0207,2.0359,2.066,2.1321,2.1799,2.2221,2.3157,2.361,2.3839,2.4051,2.4151,2.4151,2.4234,2.4234,2.4276,2.4359,2.4616,2.4947,2.503,2.5696,2.634,2.634,2.719,2.7971,2.7801,2.8244,2.8688,2.8646,2.915,2.9636,3.0011,3.0103,3.0189,3.0189,3.0189,3.0189,3.0189,3.0274,3.0333,3.0417,3.0443,3.0485,3.0485,3.0526,3.0526,3.0526,3.0526,3.0609,3.0871,3.0912,3.0992,3.119,3.119,3.1291,3.1449,3.147,3.1841,3.2521,3.2716,3.2921,0.0,0.0,0.0,0.0,0.0,0.2965,0.0,0.0,0.0,0.6421,0.6701,0.0,0.0,0.0,0.0,0.0,0.0,0.0,0.0,0.0,0.0,0.0,0.0,0.0,1.896,1.9288,1.9685,2.0067,2.0029,2.0003,2.0067,2.0131,2.0131,2.0131,2.0131,2.008,1.9978,1.9978,1.9926,1.9798,1.9926,1.9978,1.9978,1.9978,1.9978,1.9978,1.9862,1.9798,1.9798,1.9798,1.9798,1.9798,1.9798,2.0055,2.0459,2.0795,2.1369,2.2035,2.2603,2.3157,2.3551,2.3839,2.3982,2.4024,2.4177,2.4261,2.4317,2.425,2.4024,2.3882,2.4135,2.4702,2.523,2.523,2.6083,2.6783,2.6514,2.6909,2.7358,2.74,2.8117,2.8958,2.9562,2.9821,2.9902,2.9973,2.9973,3.0017,3.0119,3.0146,3.0189,3.0316,3.0375,3.0401,3.0485,3.0468,3.0526,3.0526,3.0526,3.0609,3.0871,3.0912,3.0992,3.119,3.119,3.119,3.119,3.119,3.1524,3.2179,3.2231,3.2502,0.0,0.0,0.0,0.0,0.2583,0.0,0.0,0.0,0.5115,0.5179,0.0,0.0,0.0,0.0,0.0,0.0,0.0,0.0,0.0,0.0,0.0,0.0,0.0,0.0,0.0,1.8112,1.888,1.9619,1.9359,1.9296,1.9643,1.9875,1.9978,1.985,1.9862,1.985,1.9811,1.9811,1.9811,1.9798,1.9811,1.9811,1.9811,1.9811,1.9811,1.9811,1.9811,1.9798,1.9798,1.9798,1.9798,1.9798,1.9798,1.985,1.9952,2.0459,2.0993,2.1561,2.2314,2.2889,2.3363,2.3566,2.3797,2.4024,2.4024,2.4151,2.4302,2.4317,2.4151,2.3982,2.3882,2.4055,2.4269,2.4269,2.5002,2.5737,2.5848,2.6588,2.7243,2.74,2.7794,2.829,2.89,2.9524,2.9902,2.9902,2.9902,2.9918,2.9902,2.9989,3.0017,3.006,3.0274,3.0401,3.0417,3.0485,3.0526,3.0526,3.0526,3.0568,3.0692,3.0895,3.1072,3.119,3.119,3.119,3.119,3.119,3.1291,3.1432,3.1733,3.1968,0.0,0.0,0.0,0.0,0.0,0.0,0.4068,0.0,0.4893,0.0,0.0,0.0,0.0,0.0,0.0,0.0,1.0131,0.0,0.0,0.0,0.0,0.0,0.0,0.0,0.0,0.0,0.0,0.0,1.9187,1.9202,1.9695,1.9668,1.972,1.9798,1.9798,1.9798,1.9798,1.9798,1.9798,1.9798,1.9862,1.9926,1.9926,1.9926,1.9926,1.9926,1.985,1.9798,1.9798,1.9798,1.9798,1.9798,1.9798,1.9798,1.985,2.0055,2.0497,2.0993,2.1272,2.1752,2.2267,2.2785,2.3334,2.3782,2.3782,2.3882,2.4009,2.4094,2.4009,2.3882,2.3925,2.4009,2.4036,2.3797,2.4249,2.466,2.4475,2.5197,2.5853,2.595,2.6782,2.7541,2.7797,2.8715,2.944,2.944,2.9713,2.9946,2.9946,2.9946,2.9946,2.9973,3.0231,3.0417,3.0443,3.0609,3.0733,3.0733,3.0733,3.0773,3.0855,3.0975,3.1055,3.119,3.119,3.119,3.119,3.119,3.123,3.1252,3.1389,3.1582,0.1387,0.0,0.0,0.0,0.0,0.0,0.0,0.0,0.0,0.0,0.0,0.0,0.0,0.0,0.0,0.0,0.0,1.033,0.0,0.0,0.0,0.0,0.0,0.0,0.0,0.0,0.0,1.9031,1.8875,1.8988,1.954,1.946,1.946,1.9656,1.9759,1.9798,1.9798,1.9798,1.9798,1.9798,1.9823,1.9888,1.9926,1.9888,1.9888,1.9926,1.9862,1.9798,1.9798,1.9798,1.9798,1.9798,1.9798,1.9798,1.9798,1.9798,2.0156,2.061,2.061,2.1042,2.1718,2.2374,2.3024,2.3523,2.3523,2.361,2.3782,2.3925,2.3839,2.3782,2.3925,2.3952,2.3909,2.3581,2.3754,2.3867,2.3581,2.4214,2.4863,2.4902,2.5972,2.6854,2.6854,2.7925,2.8862,2.9034,2.9424,2.9745,2.9957,2.9946,2.9902,2.9989,3.0146,3.0316,3.0485,3.0651,3.0831,3.0912,3.0912,3.0952,3.0975,3.1015,3.1055,3.119,3.119,3.119,3.119,3.119,3.119,3.119,3.119,3.1329,0.0,0.0,0.0,0.3295,0.0,0.0,0.0,0.0,0.5102,0.0,0.0,0.0,0.0,0.0,0.0,0.0,0.0,0.0,0.0,0.0,0.0,0.0,0.0,0.0,0.0,1.7079,1.7379,1.8193,1.8229,1.8446,1.9016,1.9263,1.942,1.942,1.9656,1.9798,1.9798,1.9798,1.9798,1.9798,1.9565,1.9565,1.9811,1.9512,1.9565,1.9811,1.9798,1.9798,1.9798,1.9798,1.9798,1.9798,1.9798,1.9798,1.9798,1.9798,2.0156,2.061,2.061,2.1299,2.2263,2.2752,2.3068,2.3319,2.3319,2.3436,2.3638,2.3782,2.3696,2.3653,2.3782,2.3696,2.3595,2.3595,2.3581,2.3538,2.361,2.4199,2.4752,2.4863,2.5621,2.6253,2.6253,2.7224,2.8232,2.8828,2.8916,2.9176,2.9821,2.9918,2.9918,2.9902,2.9989,3.0103,3.0375,3.0485,3.0609,3.0871,3.0912,3.0952,3.0975,3.1015,3.1055,3.119,3.119,3.119,3.119,3.119,3.119,3.119,3.119,3.119,0.0,0.0,0.1762,0.2886,0.0,0.0,0.0,0.0,0.0,0.0,0.0,0.0,0.0,0.0,0.0,0.0,0.0,0.0,0.0,0.0,0.0,0.0,0.0,0.0,0.0,0.0,0.0,1.7875,1.8061,1.8384,1.8975,1.8934,1.8934,1.9146,1.9408,1.9565,1.9565,1.9708,1.9798,1.9798,1.9512,1.9473,1.9512,1.9263,1.9198,1.9291,1.9291,1.9291,1.9291,1.946,1.9565,1.9565,1.9759,1.9798,1.9798,1.9798,1.9901,2.0105,2.0459,2.1091,2.1779,2.2278,2.2706,2.3023,2.3023,2.3157,2.3334,2.3553,2.3581,2.3581,2.3754,2.3696,2.3595,2.3595,2.3551,2.3566,2.361,2.4241,2.4863,2.4902,2.5605,2.622,2.622,2.6545,2.7052,2.774,2.8132,2.8551,2.9303,2.9231,2.934,2.987,3.0033,3.0146,3.0274,3.0568,3.0871,3.1072,3.1032,3.1032,3.1112,3.1072,3.1055,3.119,3.119,3.119,3.119,3.119,3.119,3.119,3.119,3.119,-0.0,0.0422,0.0,0.2427,0.385,0.0,0.5005,0.0,0.5318,0.0,0.0,0.0,0.0,0.0,0.0,0.0,0.0,0.0,0.0,0.9866,0.0,0.0,0.0,0.0,0.0,0.0,1.7015,1.7618,1.7775,1.8105,0.0,1.8614,1.8614,1.8827,1.9105,1.9263,1.9263,1.95,1.9656,1.9656,1.9408,1.9316,1.9368,1.904,1.8881,1.8987,1.8987,1.8987,1.8987,1.921,1.9263,1.9251,1.9565,1.9656,1.9656,1.9759,1.9901,2.0156,2.0696,2.1237,2.1766,2.2263,2.2661,2.2888,2.2888,2.2947,2.3126,2.357,2.3511,2.3408,2.3909,2.3746,2.3523,2.3595,2.3595,2.3595,2.3595,2.4282,2.4902,2.4902,2.5605,2.6203,2.6222,2.6222,2.6471,2.7127,2.7454,2.7856,2.8592,2.8526,2.8676,2.9448,2.9599,2.9868,3.0258,3.0651,3.0992,3.119,3.1112,3.1112,3.119,3.1112,3.1112,3.119,3.119,3.119,3.119,3.119,3.119,3.119,3.119,3.119]},{"header":{"parameterUnit":"m.s-1","parameterCategory":1,"la1":30.6,"la2":29.2853,"lo1":-89.7004,"lo2":-87.6739,"dy":0.0162,"dx":0.0183,"nx":112,"ny":82,"refTime":"2023-09-10T18:00:00:Z","depth":0,"parameterNumber":3,"parameterNumberName":"V-component_of_WINDS"},"data":[0.0,0.0,0.0,0.0,0.0,0.0,0.0,0.0,0.0,0.0,0.0,0.0,0.0,0.0,0.0,0.0,0.0,0.0,0.0,0.0,0.0,0.0,0.0,0.0,0.0,0.0,0.0,0.0,0.0,0.0,0.0,0.0,0.0,0.0,0.0,0.0,0.0,0.0,0.0,0.0,0.0,0.0,0.0,0.0,0.0,0.0,0.0,0.0,0.0,0.0,0.0,0.0,0.0,0.0,0.0,0.0,0.0,0.0,0.0,0.0,0.0,0.0,0.0,0.0,0.0,0.0,0.0,0.0,0.0,0.0,0.0,0.0,0.0,0.0,0.0,0.0,0.0,0.0,0.0,0.0,0.0,0.0,0.0,0.0,0.0,0.0,0.0,0.0,0.0,0.0,0.4681,0.4719,0.4299,0.4097,0.4233,0.4489,0.5019,0.582,0.0,0.0,0.0,0.0,0.0,0.0,0.0,0.0,0.0,0.0,0.0,0.0,0.0,0.0,0.0,0.0,0.0,0.0,0.0,0.0,0.0,0.0,0.0,0.0,0.0,0.0,0.0,0.0,0.0,0.0,0.0,0.0,0.0,0.0,0.0,0.0,0.0,0.0,0.0,0.0,0.0,0.0,0.0,0.0,0.0,0.0,0.0,0.0,0.0,0.0,0.0,0.0,0.0,0.0,0.0,0.0,0.0,0.0,0.0,0.0,0.0,0.0,0.0,0.0,0.0,0.0,0.0,0.0,0.0,0.0,0.0,0.0,0.0,0.0,0.0,0.0,0.0,0.0,0.0,0.0,0.0,0.0,0.0,0.0,0.0,0.0,0.0,0.0,0.0,0.0,0.0,0.0,0.0,0.0,0.0,0.0,0.0,0.0,0.0,0.0,0.0,0.0,0.0,0.0,0.482,0.4418,0.4278,0.4164,0.4028,0.3959,0.4186,0.4738,0.0,0.0,0.0,0.0,0.0,0.0,0.0,0.0,0.0,0.0,0.0,0.0,0.0,0.0,0.0,0.0,0.0,0.0,0.0,0.0,0.0,0.0,0.0,0.0,0.0,0.0,0.0,0.0,0.0,0.0,0.0,0.0,0.0,0.0,0.0,0.0,0.0,0.0,0.0,0.0,0.0,0.0,0.0,0.0,0.0,0.0,0.0,0.0,0.0,0.0,0.0,0.0,0.0,0.0,0.0,0.0,0.0,0.0,0.0,0.0,0.0,0.0,0.0,0.0,0.0,0.0,0.0,0.0,0.0,0.0,0.0,0.0,0.0,0.0,0.0,0.0,0.0,0.0,0.0,0.0,0.0,0.0,0.0,0.0,0.0,0.0,0.0,0.0,0.0,0.0,0.0,0.0,0.0,0.0,0.0,0.0,0.0,0.0,0.0,0.0,0.0,0.0,0.0,0.4908,0.4528,0.4342,0.4231,0.4164,0.4164,0.3949,0.4193,0.4874,0.5651,0.0,0.0,0.0,0.0,0.0,0.0,0.0,0.0,0.0,0.0,0.0,0.0,0.0,0.0,0.0,0.0,0.0,0.0,0.0,0.0,0.0,0.0,0.0,0.0,0.0,0.0,0.0,0.0,0.0,0.0,0.0,0.0,0.0,0.0,0.0,0.0,0.0,0.0,0.0,0.0,0.0,0.0,0.0,0.0,0.0,0.0,0.0,0.0,0.0,0.0,0.0,0.0,0.0,0.0,0.0,0.0,0.0,0.0,0.0,0.0,0.0,0.0,0.0,0.0,0.0,0.0,0.0,0.0,0.0,0.0,0.0,0.0,0.0,0.0,0.0,0.0,0.0,0.0,0.0,0.0,0.0,0.0,0.0,0.0,0.0,0.0,0.0,0.0,0.0,0.0,0.0,0.0,0.0,0.0,0.0,0.0,0.0,0.0,0.0,0.0,0.0,0.0,0.4281,0.4266,0.4322,0.4162,0.4178,0.4384,0.4117,0.4295,0.4996,0.5001,0.0,0.0,0.0,0.0,0.0,0.0,0.0,0.0,0.0,0.0,0.0,0.0,0.0,0.0,0.0,0.0,0.0,0.0,0.0,0.0,0.0,0.0,0.0,0.0,0.0,0.0,0.0,0.0,0.0,0.0,0.0,0.0,0.0,0.0,0.0,0.0,0.0,0.0,0.0,0.0,0.0,0.0,0.0,0.0,0.0,0.0,0.0,0.0,0.0,0.0,0.0,0.0,0.0,0.0,0.0,0.0,0.0,0.0,0.0,0.0,0.0,0.0,0.0,0.0,0.0,0.0,0.0,0.0,0.0,0.0,0.0,0.0,0.0,0.0,0.0,0.0,0.0,0.0,0.0,0.0,0.0,0.0,0.0,0.0,0.0,0.0,0.0,0.0,0.0,0.0,0.0,0.0,0.0,0.0,0.0,0.0,0.0,0.0,0.0,0.0,0.0,0.0,0.4431,0.4508,0.4455,0.4351,0.4416,0.4629,0.4277,0.4142,0.4388,0.4362,0.0,0.0,0.0,0.0,0.0,0.0,0.0,0.0,0.0,0.0,0.0,0.0,0.0,0.0,0.0,0.0,0.0,0.0,0.0,0.0,0.0,0.0,0.0,0.0,0.0,0.0,0.0,0.0,0.0,0.0,0.0,0.0,0.0,0.0,0.0,0.0,0.0,0.0,0.0,0.0,0.0,0.0,0.0,0.0,0.0,0.0,0.0,0.0,0.0,0.0,0.0,0.0,0.0,0.0,0.0,0.0,0.0,0.0,0.0,0.0,0.0,0.0,0.0,0.0,0.0,0.0,0.0,0.0,0.0,0.0,0.0,0.0,0.0,0.0,0.0,0.0,0.0,0.0,0.0,0.0,0.0,0.0,0.0,0.0,0.0,0.0,0.0,0.0,0.0,0.0,0.0,0.0,0.0,0.0,0.0,0.0,0.0,0.0,0.0,0.0,0.0,0.0,0.4371,0.4429,0.0,0.4485,0.4581,0.4726,0.4575,0.4541,0.4581,0.0,0.0,0.0,0.0,0.0,0.0,0.0,0.0,0.0,0.0,0.0,0.0,0.0,0.0,0.0,0.0,0.0,0.0,0.0,0.0,0.0,0.0,0.0,0.0,0.0,0.0,0.0,0.0,0.0,0.0,0.0,0.0,0.0,0.0,0.0,0.0,0.0,0.0,0.0,0.0,0.0,0.0,0.0,0.0,0.0,0.0,0.0,0.0,0.0,0.0,0.0,0.0,0.0,0.0,0.0,0.0,0.0,0.0,0.0,0.0,0.0,0.0,0.0,0.0,0.0,0.0,0.0,0.0,0.0,0.0,0.0,0.0,0.0,0.0,0.0,0.0,0.0,0.0,0.0,0.0,0.0,0.0,0.0,0.0,0.0,0.0,0.0,0.0,0.0,0.0,0.0,0.0,0.0,0.0,0.0,0.0,0.0,0.0,0.0,0.0,0.0,0.0,0.4349,0.4488,0.4475,0.0,0.4599,0.4694,0.4768,0.4769,0.4735,0.4713,0.0,0.0,0.0,0.0,0.0,0.0,0.0,0.0,0.0,0.0,0.0,0.0,0.0,0.0,0.0,0.0,0.0,0.0,0.0,0.0,0.0,0.0,0.0,0.0,0.0,0.0,0.0,0.0,0.0,0.0,0.0,0.0,0.0,0.0,0.0,0.0,0.0,0.0,0.0,0.0,0.0,0.0,0.0,0.0,0.0,0.0,0.0,0.0,0.0,0.0,0.0,0.0,0.0,0.0,0.0,0.0,0.0,0.0,0.0,0.0,0.0,0.0,0.0,0.0,0.0,0.0,0.0,0.0,0.0,0.0,0.0,0.0,0.0,0.0,0.0,0.0,0.0,0.0,0.0,0.0,0.0,0.0,0.0,0.0,0.0,0.0,0.0,0.0,0.0,0.0,0.0,0.0,0.0,0.0,0.0,0.0,0.0,0.0,0.0,0.0,0.0,0.0,0.4668,0.4759,0.4836,0.4836,0.4711,0.4779,0.5018,0.4779,0.4707,0.0,0.0,0.0,0.0,0.0,0.0,0.0,0.0,0.0,0.0,0.0,0.0,0.0,0.0,0.0,0.0,0.0,0.0,0.0,0.0,0.0,0.0,0.0,0.0,0.0,0.0,0.0,0.0,0.0,0.0,0.0,0.0,0.0,0.0,0.0,0.0,0.0,0.0,0.0,0.0,0.0,0.0,0.0,0.0,0.0,0.0,0.0,0.0,0.0,0.0,0.0,0.0,0.0,0.0,0.0,0.0,0.0,0.0,0.0,0.0,0.0,0.0,0.0,0.0,0.0,0.0,0.0,0.0,0.0,0.0,0.0,0.0,0.0,0.0,0.0,0.0,0.0,0.0,0.0,0.0,0.0,0.0,0.0,0.0,0.0,0.0,0.0,0.0,0.0,0.0,0.0,0.0,0.0,0.0,0.0,0.0,0.0,0.0,0.0,0.0,0.0,0.0,0.0,0.4385,0.4587,0.473,0.473,0.4838,0.4937,0.5018,0.4937,0.4822,0.469,0.0,0.0,0.0,0.0,0.0,0.0,0.0,0.0,0.0,0.0,0.0,0.0,0.0,0.0,0.0,0.0,0.0,0.0,0.0,0.0,0.0,0.0,0.0,0.0,0.0,0.0,0.0,0.0,0.0,0.0,0.0,0.0,0.0,0.0,0.0,0.0,0.0,0.0,0.0,0.0,0.0,0.0,0.0,0.0,0.0,0.0,0.0,0.0,0.0,0.0,0.0,0.0,0.0,0.0,0.0,0.0,0.0,0.0,0.0,0.0,0.0,0.0,0.0,0.0,0.0,0.0,0.0,0.0,0.0,0.0,0.0,0.0,0.0,0.0,0.0,0.0,0.0,0.0,0.0,0.0,0.0,0.0,0.0,0.0,0.0,0.0,0.0,0.0,0.0,0.0,0.0,0.0,0.0,0.0,0.0,0.0,0.0,0.0,0.0,0.0,0.0,0.0,0.4514,0.4715,0.4857,0.4857,0.4937,0.5018,0.5018,0.5018,0.4934,0.4738,0.0,0.0,0.0,0.0,0.0,0.0,0.0,0.0,0.0,0.0,0.0,0.0,0.0,0.0,0.0,0.0,0.0,0.0,0.0,0.0,0.0,0.0,0.0,0.0,0.0,0.0,0.0,0.0,0.0,0.0,0.0,0.0,0.0,0.0,0.0,0.0,0.0,0.0,0.0,0.0,0.0,0.0,0.0,0.0,0.0,0.0,0.0,0.0,0.0,0.0,0.0,0.0,0.0,0.0,0.0,0.0,0.0,0.0,0.0,0.0,0.0,0.0,0.0,0.0,0.0,0.0,0.0,0.0,0.0,0.0,0.0,0.0,0.0,0.0,0.0,0.0,0.0,0.0,0.0,0.0,0.0,0.0,0.0,0.0,0.0,0.0,0.0,0.0,0.0,0.0,0.0,0.0,0.0,0.0,0.0,0.0,0.0,0.0,0.0,0.0,0.0,0.0,0.4873,0.4944,0.5018,0.4937,0.4937,0.494,0.4937,0.4937,0.4966,0.4841,0.0,0.0,0.0,0.0,0.0,0.0,0.0,0.0,0.0,0.0,0.0,0.0,0.0,0.0,0.0,0.0,0.0,0.0,0.0,0.0,0.0,0.0,0.0,0.0,0.0,0.0,0.0,0.0,0.0,0.0,0.0,0.0,0.0,0.0,0.0,0.0,0.0,0.0,0.0,0.0,0.0,0.0,0.0,0.0,0.0,0.0,0.0,0.0,0.0,0.0,0.0,0.0,0.0,0.0,0.0,0.0,0.0,0.0,0.0,0.0,1.06,0.0,0.0,0.0,0.0,0.0,0.0,0.0,0.0,0.0,0.0,0.0,0.0,0.0,0.0,0.0,0.0,0.0,0.0,0.0,0.0,0.0,0.0,0.0,0.0,0.0,0.0,0.0,0.0,0.0,0.0,0.0,0.0,0.0,0.0,0.0,0.0,0.0,0.0,0.0,0.0,0.0,0.4873,0.4944,0.4779,0.4304,0.4701,0.4779,0.4304,0.4701,0.4966,0.4841,0.4811,0.0,0.0,0.0,0.0,0.0,0.0,0.0,0.0,0.0,0.0,0.0,0.0,0.0,0.0,0.0,0.0,0.0,0.0,0.0,0.0,0.0,0.0,0.0,0.0,0.0,0.0,0.0,0.0,0.0,0.0,0.0,0.0,0.0,0.0,0.0,0.0,0.0,0.0,0.0,0.0,0.0,0.0,0.0,0.0,0.0,0.0,0.0,0.0,0.0,0.0,0.0,0.0,0.0,0.0,0.0,0.0,0.0,0.0,0.0,0.0,1.0904,0.0,0.0,0.0,0.0,0.0,0.0,0.0,0.0,0.0,0.0,0.0,0.0,0.0,0.0,0.0,0.0,0.0,0.0,0.0,0.0,0.0,0.0,0.0,0.0,0.0,0.0,0.0,0.0,0.0,0.0,0.0,0.0,0.0,0.0,0.0,0.0,0.0,0.0,0.0,0.0,0.4509,0.4561,0.4307,0.3679,0.3915,0.4073,0.3995,0.4307,0.4753,0.5081,0.4944,0.0,0.0,0.0,0.0,0.0,0.0,0.0,0.0,0.0,0.0,0.0,0.0,0.0,0.0,0.0,0.0,0.0,0.0,0.0,0.0,0.0,0.0,0.0,0.0,0.0,0.0,0.0,0.0,0.0,0.0,0.0,0.0,0.0,0.0,0.0,0.0,0.0,0.0,0.0,0.0,0.0,0.0,0.0,0.0,0.0,0.0,0.0,0.0,0.0,0.0,0.0,0.0,0.0,1.2453,1.2683,1.3029,1.3313,1.372,1.4139,1.2661,1.2258,1.2629,1.1748,0.0,0.0,0.0,0.0,0.0,0.0,0.0,0.0,0.0,0.0,0.0,0.0,0.0,0.0,0.0,0.0,0.0,0.0,0.0,0.0,0.0,0.0,0.0,0.0,0.524,0.5215,0.0,0.0,0.0,0.0,0.0,0.0,0.0,0.0,0.0,0.0,0.0,0.0,0.4099,0.4036,0.3834,0.3054,0.2976,0.3212,0.3604,0.3915,0.4384,0.5257,0.5075,0.4927,0.0,0.0,0.0,0.0,0.0,0.0,0.0,0.0,0.0,0.0,0.0,0.0,0.0,0.0,0.0,0.0,0.0,0.0,0.0,0.0,0.0,0.0,0.0,0.0,0.0,0.0,0.0,0.0,0.0,0.0,0.0,0.0,1.1787,1.189,0.0,0.0,0.0,0.0,0.0,0.0,0.0,0.0,0.0,0.0,0.0,0.0,0.0,1.3119,1.2814,1.3079,1.3322,1.3562,1.3909,1.4426,1.5115,1.5006,1.5088,1.5441,1.479,0.0,1.3859,1.3943,0.0,0.0,0.0,0.0,0.0,0.0,0.0,0.0,0.0,0.0,0.0,0.0,0.0,0.0,0.0,0.0,0.0,0.0,0.0,0.0,0.0,0.0,0.5744,0.5575,0.5451,0.533,0.0,0.496,0.4758,0.4873,0.4896,0.0,0.0,0.0,0.0,0.0,0.0,0.0,0.4266,0.4155,0.3679,0.243,0.251,0.2743,0.3132,0.3604,0.4153,0.5018,0.5154,0.5092,0.4838,0.4963,0.0,0.0,0.0,0.0,0.0,0.0,0.0,0.0,0.0,0.0,0.0,0.0,0.0,0.0,0.0,0.0,0.0,0.0,0.0,0.0,0.0,0.0,0.0,0.0,0.0,0.0,0.0,0.0,0.0,1.2573,1.2853,1.316,1.2792,1.2538,0.0,0.0,0.0,0.0,0.0,0.0,0.0,0.0,0.0,1.5414,1.5507,1.539,1.5143,1.506,1.5212,1.5566,1.5586,1.5913,1.6475,1.6493,1.6563,1.6704,1.6493,1.6237,1.5907,1.4736,1.3803,1.3136,0.0,0.0,0.0,0.0,1.1639,1.0691,1.1001,1.0365,0.0,0.9302,0.0,0.0,0.0,0.0,0.0,0.0,0.0,0.0,0.0,0.0,0.5976,0.5833,0.5643,0.5526,0.5734,0.5581,0.5301,0.0,0.5067,0.5051,0.5196,0.0,0.0,0.0,0.0,0.4548,0.3768,0.3824,0.3358,0.1842,0.1783,0.1869,0.2084,0.2881,0.3901,0.4951,0.5096,0.5143,0.5087,0.5017,0.493,0.0,0.0,0.0,0.0,0.0,0.0,0.0,0.0,0.0,0.0,0.0,0.0,0.0,0.0,0.0,0.0,0.0,0.0,0.0,0.0,0.0,0.0,0.0,0.0,0.0,0.0,0.0,0.0,1.3094,1.3533,1.4211,1.365,1.3401,0.0,0.0,0.0,0.0,0.0,0.0,1.5229,1.5833,1.6318,1.6665,1.6957,1.7026,1.6712,1.6431,1.6513,1.6971,1.6757,1.6846,1.7278,1.7437,1.7521,1.7521,1.7512,1.7596,1.7397,1.5556,1.4598,1.4219,1.373,1.335,1.3034,1.2988,1.2168,1.1163,1.1276,1.0628,0.9729,0.9526,0.9482,0.9526,0.939,0.0,0.0,0.0,0.0,0.7843,0.6457,0.6129,0.6139,0.5962,0.5811,0.5793,0.6074,0.6009,0.5851,0.0,0.5355,0.5295,0.5583,0.0,0.0,0.0,0.0,0.4586,0.3615,0.3516,0.2951,0.1313,0.1084,0.1087,0.1151,0.1969,0.3011,0.4241,0.4607,0.4744,0.4899,0.4632,0.441,0.4307,0.0,0.0,0.0,0.0,0.0,0.0,0.0,0.0,0.0,0.0,0.0,0.0,0.0,0.0,0.0,0.0,0.0,0.0,0.0,0.0,0.0,0.0,0.0,0.0,0.0,0.0,0.0,0.0,0.0,1.439,1.3965,0.0,0.0,0.0,0.0,1.3636,1.4754,1.5459,1.5472,1.6562,1.688,1.6087,1.7033,1.7224,1.6404,1.6422,1.6694,1.7208,1.6802,1.6919,1.7521,1.7521,1.7521,1.7521,1.7737,1.7803,1.7766,1.7225,1.6599,1.5939,1.536,1.4723,1.4123,1.4054,1.3477,1.2755,1.2573,1.1951,1.1175,1.0344,0.9746,0.9395,0.9702,0.9519,0.0,0.0,0.7777,0.7637,0.6291,0.6048,0.6167,0.6074,0.6102,0.6102,0.6117,0.6009,0.5907,0.0,0.5858,0.5797,0.5728,0.0,0.5864,0.5703,0.5536,0.5134,0.4279,0.3559,0.252,0.0841,0.0673,0.0673,0.0671,0.0671,0.1257,0.2509,0.3362,0.3891,0.3891,0.3644,0.3328,0.3104,0.3624,0.0,0.0,0.0,0.0,0.0,0.0,0.0,0.0,0.0,0.0,0.0,0.0,0.0,0.0,0.0,0.0,0.0,0.0,0.0,0.0,0.0,0.0,0.0,0.0,0.0,0.0,0.0,0.0,1.4974,1.4713,0.0,1.4744,1.4465,1.4427,1.4719,1.5468,1.6188,1.6714,1.7513,1.7997,1.7981,1.8356,1.8436,1.8145,1.7904,1.7886,1.8105,1.7682,1.7587,1.7795,1.7795,1.7952,1.8109,1.8179,1.8266,1.8395,1.8078,1.7599,1.6914,1.6198,1.578,1.5454,1.4536,1.3758,1.303,1.2293,1.1552,1.0835,1.0512,1.0297,1.0193,1.0279,1.0214,0.9959,0.9027,0.8514,0.7986,0.6912,0.6371,0.6166,0.6385,0.6417,0.6443,0.6704,0.6613,0.6515,0.6515,0.6322,0.6143,0.6165,0.6076,0.5787,0.5143,0.4841,0.4358,0.3319,0.2882,0.2321,0.1205,0.0523,0.0175,0.0172,0.0172,0.0427,0.084,0.1166,0.1812,0.2921,0.2896,0.2931,0.3096,0.3249,0.3565,0.0,0.0,0.0,0.0,0.0,0.0,0.0,0.0,0.0,0.0,0.0,0.0,0.0,0.0,0.0,0.0,0.0,0.0,0.0,0.0,0.0,0.0,0.0,0.0,0.0,0.0,1.5566,1.5664,1.5458,1.5369,1.5713,1.5265,1.521,1.5857,1.6399,1.6917,1.7506,1.8326,1.8816,1.8797,1.9303,1.9305,1.8703,1.8905,1.8811,1.8518,1.832,1.8201,1.8201,1.8201,1.8362,1.8523,1.8603,1.8683,1.8834,1.8722,1.8443,1.8011,1.6911,1.6438,1.6133,1.4802,1.4024,1.3403,1.2307,1.1353,1.0713,1.0713,1.0632,1.0649,1.0729,1.0751,1.0587,0.9761,0.9146,0.8426,0.7537,0.6894,0.6531,0.6711,0.6734,0.6847,0.7031,0.7065,0.6914,0.6914,0.6512,0.6312,0.639,0.6223,0.582,0.5197,0.4573,0.3894,0.3114,0.2244,0.1495,0.088,0.0624,0.0447,0.044,0.035,0.0173,0.0,0.0254,0.0921,0.2077,0.2128,0.2257,0.246,0.2518,0.2841,0.3687,0.0,0.0,0.0,0.0,0.0,0.0,0.0,0.0,0.0,0.0,0.0,0.0,0.0,0.0,0.0,0.0,0.0,0.0,0.0,0.0,0.0,0.0,0.0,1.5292,1.5177,1.5439,1.6417,1.6095,1.6147,1.6959,1.6795,1.6746,1.691,1.7437,1.7728,1.7746,1.8788,1.9097,1.8357,1.9733,1.9696,1.8057,1.9073,1.9152,1.8442,1.8612,1.87,1.87,1.87,1.8709,1.8718,1.894,1.9029,1.9038,1.9268,1.9329,1.9158,1.7543,1.6725,1.619,1.4839,1.4279,1.4045,1.2565,1.1537,1.0897,1.0897,1.0821,1.0697,1.0929,1.0993,1.0826,1.0065,0.9524,0.9018,0.7994,0.7465,0.7139,0.7139,0.7139,0.7139,0.7051,0.7051,0.7054,0.6792,0.6487,0.6303,0.6303,0.6133,0.5918,0.5785,0.4639,0.0,0.3714,0.1574,0.0,0.0,0.0807,0.1433,0.1433,0.088,0.0439,0.009,0.0777,0.1278,0.1218,0.1253,0.1305,0.1303,0.1348,0.1857,0.2951,0.0,0.0,0.0,0.0,0.0,0.0,0.0,0.0,0.0,0.0,0.0,0.0,0.0,0.0,0.0,0.0,0.0,0.0,0.0,0.0,0.0,0.0,1.5287,1.5512,1.5652,1.6042,1.6674,1.6668,1.683,1.7387,1.7217,1.7212,1.7749,1.7621,1.7735,1.818,1.8364,1.8479,1.8516,1.8938,1.8918,1.8434,1.8754,1.8705,1.8442,1.8442,1.8531,1.87,1.87,1.8923,1.9344,1.9417,1.967,2.0108,2.0182,1.9852,1.9218,1.8152,1.7652,1.7246,1.5116,1.3559,1.232,1.1736,1.1404,1.1155,1.1155,1.1155,1.1165,1.1406,1.1508,1.1508,1.1417,1.0499,0.9396,0.9169,0.8066,0.7139,0.7139,0.7139,0.7051,0.6881,0.6881,0.6792,0.6523,0.6289,0.624,0.6325,0.6237,0.5877,0.5318,0.4579,0.0,0.176,0.1246,0.0982,0.0968,0.1125,0.1208,0.1403,0.1292,0.1123,0.0984,0.0533,0.0351,0.0348,0.0689,0.0926,0.0977,0.164,0.2131,0.0,0.0,0.0,0.0,0.0,0.0,0.0,0.0,0.0,0.0,0.0,0.0,0.0,0.0,0.0,0.0,0.0,0.0,0.0,0.0,0.0,0.0,1.5539,1.5717,1.5458,1.6073,1.6623,1.7081,1.7142,1.7326,1.7734,1.7608,1.7613,1.7996,1.7864,1.7949,1.849,1.8353,1.8442,1.8819,1.9155,1.9077,1.8588,1.9151,1.9132,1.8442,1.877,1.8851,1.886,1.9111,1.9381,1.9761,1.9925,2.0218,2.0521,2.0521,2.0216,0.0,0.0,0.0,0.0,0.0,1.3307,1.1785,1.1613,1.1613,1.1613,1.1613,1.1613,1.1613,1.1785,1.1871,1.1785,1.1516,1.0549,0.9497,0.9152,0.8101,0.7139,0.7139,0.719,0.7148,0.6975,0.6886,0.6793,0.643,0.6207,0.0,0.6083,0.5994,0.5802,0.531,0.4994,0.4291,0.2745,0.1517,0.0805,0.0795,0.1047,0.1217,0.1233,0.1384,0.0,0.0,0.0,0.0176,0.0,0.069,0.0,0.0,0.0,0.1844,0.169,0.0,0.0,0.0,0.2299,0.2357,0.0,0.0,0.0,0.0,0.0,0.0,0.0,0.0,0.0,0.0,0.0,0.0,0.0,0.0,0.0,0.0,1.604,1.6053,1.5254,1.6237,1.7134,1.7415,1.7483,1.7743,1.8124,1.8013,1.7926,1.8095,1.804,1.8194,1.8645,0.0,0.0,0.0,0.0,1.9805,1.88,1.9964,1.9933,1.8574,1.9261,1.9489,1.9146,1.9752,2.0017,2.0081,2.0429,2.0613,2.0659,2.0659,2.0546,2.0192,1.9002,1.7945,1.6976,1.4977,1.3307,1.2037,1.2037,0.0,0.0,1.2043,1.2043,1.2043,1.2037,1.2043,1.1866,1.0895,1.0193,0.941,0.846,0.7683,0.7166,0.7166,0.7285,0.7305,0.7126,0.7034,0.6847,0.6462,0.6195,0.6034,0.5844,0.5744,0.57,0.551,0.5416,0.5272,0.4826,0.1954,0.0,0.0,0.0,0.0,0.1073,0.1229,0.1314,0.1433,0.0882,0.0349,0.0,0.077,0.1171,0.1308,0.1278,0.126,0.1178,0.1178,0.11,0.102,0.2025,0.2229,0.0,0.0,0.0,0.0,0.0,0.0,0.0,0.0,0.0,0.0,0.0,0.0,0.0,0.0,0.0,1.4875,1.4829,1.472,1.4638,1.534,1.6162,1.6923,1.7582,1.8142,1.8541,1.8417,1.8443,1.8754,1.8282,1.8357,1.9068,1.8754,1.8913,1.9607,1.9712,1.9852,1.9783,1.9852,1.9739,1.9547,0.0,0.0,1.9967,2.0291,2.0576,2.0879,2.0961,2.119,2.1502,2.1502,2.0589,1.9163,1.8151,1.6933,1.5643,1.4146,1.3052,1.2283,1.2037,1.2043,1.2043,1.2043,1.2043,1.2037,1.2283,1.2283,0.0,1.1413,1.0534,0.9662,0.8715,0.7856,0.7326,0.7326,0.7444,0.746,0.7176,0.7172,0.7047,0.6661,0.6519,0.6354,0.6167,0.5888,0.5727,0.5703,0.438,0.3401,0.3299,0.1343,0.0,0.0,0.0431,0.0687,0.0699,0.0687,0.0862,0.1342,0.0625,0.0089,0.0,0.0175,0.0599,0.1256,0.1309,0.0961,0.0235,0.0235,-0.0078,-0.0784,0.0155,0.0465,0.0,0.0,0.0,0.0,0.0,0.0,0.0,0.0,0.0,0.0,0.0,1.4309,0.0,0.0,1.463,1.5273,1.4931,1.4537,1.4352,1.4812,1.5498,1.637,1.7265,1.7897,1.8175,1.8442,1.8612,1.8851,1.8531,1.8609,1.915,1.9103,1.9307,1.9903,2.0013,2.0021,2.0096,2.0191,2.0079,1.9844,2.0134,2.0296,2.0201,2.0647,2.0924,2.1117,2.1328,2.1539,2.1741,2.1741,2.058,1.8847,1.7779,1.6384,1.4852,1.3867,1.3137,1.2534,1.2375,1.2375,1.2375,1.2375,1.2375,1.2375,1.2534,1.2186,1.1666,1.0885,0.9927,0.8973,0.8017,0.7553,0.7255,0.7255,0.7373,0.7393,0.7111,0.7111,0.6996,0.6743,0.6599,0.6415,0.5745,0.5546,0.5549,0.565,0.4881,0.3592,0.1705,0.0629,0.0,0.0,0.0175,0.0437,0.0619,0.0613,0.079,0.1344,0.0987,0.0448,0.0,0.044,0.0775,0.0927,0.1153,0.1126,0.0628,0.0235,-0.0235,-0.0627,-0.1097,-0.1019,0.0,0.0,0.0,0.0,0.0,0.0,0.0,0.0,1.3099,1.3711,1.4188,1.4603,1.5116,1.5086,1.5041,1.5492,1.5046,1.4505,1.4076,1.4321,1.4854,1.5574,1.6533,1.7196,1.7367,1.787,1.8201,1.829,1.8362,1.8528,1.8719,1.9201,1.9471,1.9519,2.0052,2.0202,2.0008,2.0462,2.0518,2.0161,2.0656,2.0734,2.0436,2.0739,2.0884,2.0974,2.1042,2.1087,2.0988,2.0988,1.9881,1.8155,1.7183,1.5735,1.4281,1.3662,1.318,1.2705,1.2705,1.2705,1.2705,1.2705,1.2705,1.2705,1.2443,1.1929,1.1063,0.9927,0.9061,0.8281,0.7316,0.7163,0.7183,0.7183,0.7302,0.7417,0.7145,0.7145,0.704,0.6825,0.6658,0.6265,0.5238,0.5022,0.5076,0.5339,0.5272,0.4139,0.1438,0.0449,0.0,0.0,0.0,0.018,0.0539,0.0718,0.0987,0.1345,0.1436,0.1076,0.0269,0.0795,0.0779,0.0168,0.0579,0.0727,0.0549,-0.0157,-0.0548,-0.0783,-0.2116,-0.2352,0.7079,0.8533,0.0,1.0658,1.0902,1.149,0.0,0.0,1.3059,1.4462,1.4689,1.4522,1.4308,1.4109,1.3996,1.4034,1.384,1.366,1.3647,1.3665,1.383,1.4066,1.5345,1.6214,1.6296,1.6378,1.6468,1.664,1.7204,1.7434,1.7191,1.8676,1.8904,1.7548,1.9371,2.0103,1.9533,2.0364,2.0889,2.1257,2.1302,2.1302,2.1248,2.0369,2.0138,2.0369,1.9505,1.8864,1.8372,1.8372,1.7524,1.6094,1.5444,1.4617,1.3525,1.2992,1.2742,1.2705,1.2705,1.2705,1.2705,1.2705,1.2705,1.2528,1.1671,1.1413,1.089,0.9148,0.8544,0.8281,0.7316,0.7241,0.7346,0.7346,0.7461,0.7573,0.7573,0.7577,0.7536,0.7305,0.6545,0.5834,0.553,0.4702,0.4137,0.4418,0.3769,0.3681,0.4864,0.2067,0.0,0.0,0.0,0.0,0.009,0.0808,0.1345,0.1436,0.1436,0.1345,0.1256,0.0538,-0.0439,-0.1599,-0.1258,-0.1393,-0.204,-0.2195,-0.2586,-0.337,-0.3606,-0.3214,0.7153,0.0,0.0,0.0,1.0604,1.0959,1.2119,1.2424,1.279,1.4094,1.4337,1.4387,1.4522,1.3833,1.3324,0.0,1.2959,1.2566,1.2824,1.2701,1.2786,1.3299,1.4003,1.4782,1.5516,1.618,1.6624,1.6542,1.6862,1.6926,1.6822,1.8096,1.8574,1.7929,1.8762,1.9306,1.9268,1.8943,1.8999,1.9352,1.9352,1.9462,1.9575,1.914,1.9085,1.943,1.8972,1.8495,1.7995,1.7995,1.698,1.5298,1.5081,1.4229,1.3055,1.2826,1.2679,1.2705,1.2705,1.2705,1.2705,1.2705,1.2377,1.1975,1.1532,1.0651,0.9678,0.8872,0.8178,0.7577,0.7228,0.7187,0.7238,0.7238,0.7285,0.7333,0.7333,0.7333,0.7312,0.7248,0.653,0.5652,0.4906,0.4027,0.3211,0.2516,0.1704,0.1526,0.2247,0.0988,0.018,0.0718,0.0808,0.0808,0.0808,0.1166,0.1436,0.1436,0.1436,0.1256,0.0987,-0.0448,-0.1406,-0.1851,-0.2016,-0.1971,-0.1803,-0.2275,-0.2668,-0.3059,-0.3528,-0.3528,0.65,0.0,0.0,0.8967,0.9568,1.0072,1.075,1.133,1.2082,1.3157,1.3502,1.3615,1.3962,1.3171,1.2592,1.2872,1.2218,1.1774,1.2057,1.1947,1.2037,1.2649,1.3022,1.3439,1.4251,1.5606,1.6296,1.6124,1.637,1.637,1.6041,1.7282,1.7818,1.7305,1.7841,1.8327,1.8756,1.797,1.7803,1.8414,1.8056,1.797,1.8209,1.7935,1.7761,1.7644,1.7735,1.7445,1.7035,1.695,1.5973,1.4549,1.4453,1.3737,1.2841,1.2751,1.2674,1.2635,1.2381,1.2318,1.2296,1.2112,1.1668,1.115,1.0875,0.9881,0.8798,0.8516,0.7854,0.7204,0.7204,0.7173,0.7064,0.7012,0.6992,0.7064,0.7015,0.6811,0.6697,0.6697,0.5784,0.4818,0.4034,0.3171,0.2277,0.1258,0.0718,0.0359,0.018,0.018,0.0449,0.1166,0.1345,0.1436,0.1436,0.1436,0.1436,0.1436,0.0897,0.0448,-0.009,-0.1433,-0.2194,-0.244,-0.2854,-0.2709,-0.1958,-0.2586,-0.2823,-0.2901,-0.3528,-0.3684,0.0,0.0,0.6185,0.6359,0.7446,0.8722,0.9564,1.0133,1.0743,1.1793,1.2037,1.2003,1.1855,1.1632,1.1484,1.1484,1.1632,1.1706,1.1706,1.1713,1.1821,1.2088,1.2368,1.2493,0.0,1.3798,1.4734,1.4734,1.5643,1.5636,1.4566,1.6293,1.6423,1.4291,1.6203,1.7494,1.7937,1.7676,1.8272,1.9746,1.8518,1.7929,1.785,1.6881,1.576,1.4663,1.4952,1.4955,1.4638,1.4192,1.388,1.3539,1.305,1.2991,1.3051,1.2869,1.274,1.2533,1.1668,1.139,1.1405,1.0508,1.0376,1.0274,0.9343,0.9064,0.8788,0.7868,0.7482,0.7363,0.7363,0.7251,0.6999,0.6687,0.6886,0.7002,0.669,0.6164,0.5719,0.5719,0.4295,0.2959,0.2957,0.2153,0.1436,0.1436,0.1345,0.1166,0.0718,0.0718,0.0718,0.0718,0.1166,0.1436,0.1436,0.1436,0.1436,0.1436,-0.0269,-0.1525,-0.2064,-0.2151,-0.2722,-0.3787,-0.3867,-0.3781,-0.3763,-0.3763,-0.3763,-0.3763,-0.3763,-0.3684,0.3045,0.0,0.4345,0.5403,0.6214,0.6962,0.777,0.8495,0.9181,0.9969,0.9946,0.985,1.0272,1.0208,1.0047,1.0047,1.033,1.0519,1.0519,1.0519,1.0831,1.1627,1.1582,0.0,0.0,0.0,0.0,1.3899,1.465,1.4985,1.465,1.5831,1.6202,1.5568,1.5978,1.6337,1.665,1.5755,1.5526,1.6048,1.5734,1.5611,1.5618,1.5567,1.5253,1.4823,1.4917,1.467,1.4086,1.3999,1.359,1.2958,1.2273,1.2027,1.2032,1.1406,1.1159,1.1189,1.1424,1.1217,1.0731,1.0456,1.0036,0.9539,0.9254,0.8611,0.7966,0.7691,0.7207,0.6888,0.7155,0.6781,0.6412,0.6554,0.6483,0.6132,0.5354,0.4949,0.4632,0.3937,0.2769,0.1879,0.1879,0.1075,0.0448,0.0448,0.0987,0.1345,0.1166,0.1166,0.1166,0.1166,0.1345,0.1436,0.1436,0.1436,0.1076,0.0179,-0.0807,-0.1704,-0.2331,-0.3315,-0.3951,-0.3871,-0.4116,-0.4106,-0.3763,-0.3763,-0.3763,-0.3763,-0.3763,-0.3606,0.1902,0.2472,0.3017,0.4175,0.4789,0.5256,0.5879,0.6663,0.7457,0.8101,0.827,0.8436,0.898,0.8888,0.8712,0.8707,0.89,0.9173,0.9484,0.9494,0.9943,1.1054,1.0869,1.1005,0.0,0.0,0.0,1.3112,1.362,1.4025,1.43,1.4864,1.5289,1.5716,1.5511,1.5646,1.6234,1.4902,1.4166,1.4088,1.4275,1.4362,1.4376,1.4487,1.453,1.4537,1.4462,1.4025,1.3432,1.3239,1.2819,1.2165,1.1487,1.1194,1.1268,1.0651,1.0307,1.0171,1.0562,1.0329,0.9921,0.955,0.92,0.8766,0.8766,0.8268,0.7685,0.7743,0.7289,0.6904,0.7225,0.6857,0.656,0.6566,0.6236,0.5712,0.4623,0.3941,0.3361,0.2506,0.1609,0.0896,0.0896,0.0358,0.0,0.0,0.0538,0.0987,0.1166,0.1256,0.1436,0.1436,0.1436,0.1436,0.1436,0.1076,0.0538,-0.0269,-0.1345,-0.2151,-0.2597,-0.3853,-0.4393,-0.3954,-0.4116,-0.4106,-0.3684,-0.3684,-0.3606,-0.353,-0.353,-0.3374,0.0347,0.1203,0.2075,0.2531,0.3066,0.3602,0.3793,0.4649,0.5565,0.6061,0.6805,0.7458,0.0,0.0,0.7478,0.7328,0.7491,0.7865,0.8665,0.8768,0.9155,0.0,0.0,0.0,0.0,0.0,0.0,1.2427,0.0,1.28,1.3562,1.3494,1.3728,1.4594,1.4622,1.5274,1.6522,1.512,1.4321,1.3997,1.4004,1.4004,1.401,1.3659,1.3598,1.353,1.3363,1.2986,1.2554,1.2089,1.1561,1.1077,1.0502,1.0498,1.0685,1.0404,0.9912,0.9461,0.9123,0.9025,0.8975,0.8111,0.7923,0.8038,0.8038,0.7933,0.7838,0.7977,0.7709,0.7414,0.7543,0.7386,0.7103,0.6636,0.6082,0.5438,0.4424,0.2998,0.1882,0.1343,0.0537,-0.009,-0.009,-0.009,-0.009,-0.009,-0.009,0.009,0.0628,0.1076,0.1345,0.1345,0.1256,0.1256,0.1256,0.0359,-0.0179,-0.0269,-0.206,-0.3047,-0.3045,-0.3937,-0.4299,-0.4038,-0.4032,-0.3858,-0.3524,-0.3524,-0.3372,-0.3139,-0.3139,-0.3141,-0.101,-0.0371,0.0193,0.0481,0.0836,0.1334,0.2107,0.2666,0.3242,0.3981,0.4123,0.4251,0.0,0.0,0.0,0.6404,0.7112,0.0,0.8075,0.8102,0.0,0.8709,0.0,0.8238,0.8452,0.8312,0.0,0.0,1.1543,1.2686,1.2917,1.2933,1.3013,1.3166,1.3702,1.4097,1.4427,1.4406,1.4055,1.3281,1.313,1.279,1.2277,1.1894,1.1749,1.1858,1.1567,1.1343,1.1101,1.0986,1.0894,1.0502,0.9809,0.9513,0.9509,0.8825,0.8531,0.8421,0.8241,0.8241,0.8276,0.798,0.8007,0.8038,0.8038,0.7933,0.7797,0.7729,0.7344,0.7028,0.7215,0.6007,0.4784,0.4901,0.3823,0.2443,0.139,0.092,0.0365,-0.0539,-0.0896,-0.1076,-0.1076,-0.1076,-0.1076,-0.1076,-0.0718,-0.0359,0.009,0.0269,0.0359,0.0359,-0.0269,-0.0716,-0.0716,-0.1608,-0.2858,-0.4478,-0.5107,-0.5285,-0.5008,-0.5112,-0.518,-0.5037,-0.4869,-0.4596,-0.4151,-0.4151,-0.3917,-0.3372,-0.3372,-0.3215,-0.2475,-0.1781,-0.1212,-0.1014,-0.0685,-0.0206,0.0559,0.097,0.1355,0.1951,0.2315,0.0,0.0,0.0,0.0,0.0,0.0,0.0,0.6738,0.6542,0.6764,0.0,0.748,0.0,0.7959,0.7251,0.7021,0.0,0.9587,1.122,1.2056,1.2037,1.2189,1.2705,1.302,1.3163,1.2953,1.2968,1.276,1.2157,1.1912,1.1574,1.123,1.0809,1.0772,1.0875,0.0,1.0223,0.9857,0.9966,0.9744,0.9324,0.8825,0.8627,0.852,0.7664,0.7346,0.7239,0.6689,0.6571,0.6686,0.7697,0.7697,0.7359,0.7819,0.7933,0.7697,0.7426,0.6741,0.6054,0.6003,0.4691,0.354,0.3742,0.2678,0.1493,0.0549,0.0,-0.0455,-0.1259,-0.1436,-0.1436,-0.1436,-0.1436,-0.1436,-0.1436,-0.1166,-0.1076,-0.1254,-0.0896,-0.0627,-0.0627,-0.152,-0.2054,-0.2054,-0.2945,-0.4018,-0.528,-0.573,-0.5908,-0.5719,-0.5523,-0.532,-0.5285,-0.5002,-0.4649,-0.4231,-0.4231,-0.4075,-0.3604,-0.3604,-0.3528,-0.3915,-0.3175,-0.2485,-0.2351,-0.1933,-0.1407,-0.0932,-0.0532,-0.0197,0.0062,0.0,0.1758,0.2013,0.2549,0.3052,0.3391,0.0,0.3569,0.5005,0.4671,0.5089,0.7343,0.6798,0.6601,0.7391,0.6393,0.5838,0.5992,0.7215,0.8802,1.0828,1.088,1.1349,1.2482,1.2495,1.2382,1.207,1.1646,1.1268,1.0961,1.0611,1.0366,1.0313,1.0046,0.9956,0.9993,0.9736,0.9374,0.8879,0.8902,0.8398,0.7809,0.7809,0.7697,0.7467,0.6563,0.6136,0.6024,0.5065,0.4649,0.4856,0.6905,0.7006,0.6349,0.7245,0.7391,0.7196,0.671,0.5774,0.4782,0.4428,0.3497,0.2739,0.2607,0.1904,0.1096,0.0539,-0.0179,-0.0897,-0.1345,-0.1436,-0.1436,-0.1436,-0.1436,-0.1436,-0.1436,-0.1524,-0.1883,-0.2778,-0.2149,-0.161,-0.1789,-0.2679,-0.3299,-0.3299,-0.4105,-0.4645,-0.4645,-0.545,-0.5891,-0.5786,-0.5497,-0.5294,-0.5175,-0.4819,-0.4477,-0.4233,-0.4233,-0.4077,-0.3841,-0.3841,-0.3999,-0.5148,-0.49,-0.454,-0.4036,-0.3875,-0.3633,-0.2461,-0.1911,0.0,0.0,-0.0535,-0.0118,0.08,0.1285,0.1805,0.2718,0.0,0.0,0.0,0.0,0.3854,0.0,0.0,0.0,0.0,0.0,0.0,0.0,0.0,0.6662,0.9029,0.9769,1.0543,1.1498,1.1504,1.1866,1.2536,1.214,1.1455,1.0539,1.0014,0.9407,0.8767,0.8209,0.8143,0.8458,0.8177,0.0,0.8014,0.8143,0.7546,0.668,0.668,0.6131,0.5277,0.5068,0.4966,0.4964,0.4757,0.4137,0.363,0.4858,0.5265,0.5249,0.4791,0.4875,0.4858,0.3906,0.3561,0.3416,0.3193,0.2118,0.1082,0.1097,0.0091,-0.09,-0.0987,-0.1166,-0.1345,-0.1346,-0.1436,-0.1436,-0.1436,-0.1436,-0.1436,-0.1436,-0.2152,-0.2688,-0.2867,-0.2777,-0.2955,-0.3753,-0.4643,-0.5181,-0.5181,-0.6071,-0.6605,-0.6605,-0.6782,-0.6734,-0.6445,-0.6304,-0.6083,-0.5785,-0.5498,-0.5188,-0.4849,-0.4849,-0.454,-0.4079,-0.4079,-0.4307,-0.6309,-0.628,-0.6276,-0.588,-0.5735,-0.5399,-0.4259,0.0,0.0,0.0,-0.2227,-0.1593,-0.1175,0.0,0.0,0.0,0.0,0.0,0.0,0.0,0.0,0.0,0.0,0.0,0.0,0.0,0.0,0.0,0.0,0.5767,0.7613,0.8408,0.8975,0.9385,0.9852,1.0274,1.0706,1.0263,0.9798,0.922,0.886,0.8419,0.7948,0.7692,0.7696,0.7859,0.766,0.0,0.6933,0.7,0.6407,0.5492,0.5492,0.5174,0.4651,0.404,0.3837,0.3738,0.3147,0.2657,0.2276,0.285,0.3526,0.4217,0.4542,0.4649,0.4545,0.3468,0.3087,0.2714,0.1872,0.0554,-0.0456,-0.0369,-0.091,-0.1436,-0.1436,-0.1436,-0.1436,-0.1436,-0.1436,-0.1436,-0.1436,-0.1436,-0.1614,-0.2062,-0.2598,-0.3224,-0.4204,-0.4383,-0.4561,-0.5003,-0.5894,-0.6432,-0.6432,-0.6874,-0.7139,-0.7139,-0.7139,-0.6987,-0.6583,-0.6357,-0.6052,-0.5675,-0.539,-0.5171,-0.501,-0.501,-0.4857,-0.4548,-0.4548,-0.4929,-0.7379,-0.745,-0.76,-0.741,-0.723,-0.6833,-0.5893,-0.5525,0.0,0.0,-0.3732,-0.3012,-0.301,0.0,0.0,0.0,0.0,0.0,0.0,0.0,0.0,0.0,0.0,0.0,0.0,0.0,0.0,0.0,0.0,0.0,0.6528,0.72,0.7517,0.7517,0.8033,0.8367,0.8321,0.7908,0.7665,0.759,0.7312,0.7119,0.6985,0.6951,0.6954,0.6889,0.6889,0.0,0.0,0.5884,0.5303,0.4344,0.4344,0.424,0.3935,0.3043,0.275,0.2653,0.1713,0.1345,0.1256,0.1345,0.2174,0.3218,0.3919,0.4217,0.4116,0.2962,0.224,0.1602,0.0467,-0.0557,-0.1386,-0.138,-0.1362,-0.1436,-0.1614,-0.1704,-0.1793,-0.1883,-0.1972,-0.2061,-0.2061,-0.2061,-0.2329,-0.3045,-0.3401,-0.4026,-0.5542,-0.5897,-0.5985,-0.5985,-0.6694,-0.7139,-0.7139,-0.7139,-0.7139,-0.7139,-0.7024,-0.6853,-0.6537,-0.6148,-0.5767,-0.5396,-0.5143,-0.5018,-0.5018,-0.5018,-0.5018,-0.5018,-0.5171,-0.5705,-0.8522,-0.8536,-0.839,-0.8082,-0.805,-0.7813,-0.6869,0.0,0.0,-0.5026,-0.478,-0.4505,-0.3996,-0.3118,0.0,0.0,0.0,0.0,0.0,0.0,0.0,0.0,0.0,0.0,0.0,0.0,0.0,0.0,0.0,0.0,0.5736,0.6535,0.6865,0.6865,0.6581,0.651,0.6568,0.6315,0.6184,0.6083,0.5547,0.525,0.5177,0.4804,0.463,0.4807,0.4807,0.0,0.0,0.4847,0.4231,0.3238,0.3238,0.2654,0.1713,0.162,0.1529,0.1528,0.1436,0.1076,0.0807,0.1256,0.1797,0.216,0.1171,0.1262,0.1538,0.0552,-0.037,-0.1024,-0.0852,-0.0938,-0.1105,-0.1355,-0.1438,-0.1614,-0.2239,-0.2598,-0.2956,-0.358,-0.3846,-0.4022,-0.4022,-0.4022,-0.4022,-0.42,-0.4914,-0.5542,-0.5719,-0.6428,-0.6962,-0.6962,-0.7051,-0.7139,-0.7139,-0.7139,-0.7139,-0.7139,-0.684,-0.6534,-0.6142,-0.5764,-0.5394,-0.5037,-0.5023,-0.5018,-0.5018,-0.5018,-0.5018,-0.5018,-0.5783,-0.6546,-0.9881,-0.9951,-1.0051,-0.9899,-0.9999,-0.9842,-0.8537,0.0,0.0,-0.7264,-0.6696,-0.6268,-0.5761,-0.5019,-0.4271,0.0,0.0,0.0,0.0,0.0,0.0,0.0,0.0,0.0,0.0,0.0,0.0,0.0,0.0,0.0,0.1708,0.2992,0.3814,0.4374,0.4836,0.5339,0.5892,0.578,0.5759,0.5732,0.5461,0.5245,0.4973,0.4838,0.4749,0.4601,0.4601,0.4309,0.0,0.3735,0.3046,0.2089,0.2115,0.1826,0.144,0.1476,0.1283,0.0898,0.0545,0.0453,0.0538,0.009,0.0538,0.1345,0.1436,0.1436,0.1348,0.0906,-0.0458,-0.176,-0.1308,-0.121,-0.138,-0.1892,-0.2151,-0.2419,-0.3042,-0.3312,-0.358,-0.3669,-0.3846,-0.3935,-0.4024,-0.4024,-0.4291,-0.5003,-0.5453,-0.5897,-0.6428,-0.6874,-0.7139,-0.7139,-0.7139,-0.7139,-0.7139,-0.7139,-0.7014,-0.684,-0.6694,-0.6307,-0.5761,-0.5621,-0.5377,-0.5021,-0.5018,-0.5018,-0.5018,-0.5476,-0.5476,-0.5018,-0.5857,-0.67,-1.1211,-1.1377,-1.1666,-1.1472,-1.1526,-1.1298,0.0,0.0,0.0,-0.8832,-0.8276,-0.7875,-0.7593,-0.6794,-0.6006,0.0,0.0,-0.4235,0.0,0.0,0.0,0.0,0.0,0.0,0.0,0.0,0.0,0.0,0.0,0.0,-0.1797,-0.0555,0.08,0.2323,0.2927,0.3577,0.4457,0.4457,0.4454,0.4346,0.4557,0.4406,0.3977,0.4094,0.3828,0.3455,0.3643,0.0,0.0,0.2486,0.2199,0.1452,0.1297,0.1203,0.1191,0.0843,0.0554,0.009,-0.0546,-0.0632,-0.0533,-0.0982,-0.0716,-0.0089,0.0622,0.071,0.0445,-0.0448,-0.1623,-0.2632,-0.2179,-0.209,-0.2081,-0.2672,-0.2942,-0.3223,-0.3846,-0.4113,-0.438,-0.438,-0.4559,-0.4648,-0.4825,-0.4828,-0.5095,-0.5985,-0.6074,-0.6343,-0.7051,-0.7139,-0.7139,-0.7139,-0.7139,-0.7139,-0.7139,-0.7011,-0.6857,-0.6583,-0.6414,-0.6031,-0.5523,-0.5399,-0.526,-0.5018,-0.5018,-0.5093,-0.5323,-0.5935,-0.6012,-0.5783,-0.6549,-0.7391,-1.2493,-1.2628,-1.3034,-1.2528,-1.2199,-1.1757,0.0,0.0,0.0,-0.9197,-0.9135,-0.9265,-0.9273,-0.8215,-0.7461,-0.7702,-0.6305,0.0,0.0,0.0,0.0,0.0,0.0,0.0,0.0,0.0,0.0,0.0,0.0,0.0,-0.4068,-0.3444,-0.1721,0.1254,0.0864,0.0964,0.1765,0.1766,0.17,0.1565,0.2222,0.2043,0.1218,0.1689,0.1346,0.0448,0.1166,0.0897,0.0,0.1101,0.148,0.1483,0.0946,0.0667,0.057,-0.0651,-0.1002,-0.0984,-0.1787,-0.2381,-0.2524,-0.1686,-0.1875,-0.2403,-0.2444,-0.1823,-0.1746,-0.4746,-0.4877,-0.4002,-0.3826,-0.3563,-0.3389,-0.3388,-0.3527,-0.3757,-0.4561,-0.5092,-0.5536,-0.6251,-0.6786,-0.7051,-0.7051,-0.7051,-0.7051,-0.7051,-0.7051,-0.7051,-0.7139,-0.7139,-0.7139,-0.7139,-0.7139,-0.7139,-0.7139,-0.6834,-0.6579,-0.6576,-0.5903,-0.5517,-0.5514,-0.5159,-0.5018,-0.5018,-0.5018,-0.5401,-0.6163,-0.6163,-0.6623,-0.7464,-0.8313,-0.9084,-1.3672,-1.3335,-1.3245,-1.3457,-1.3057,-1.2473,-1.1905,0.0,0.0,-1.133,-1.0789,-1.0501,-1.0767,-0.9952,-0.9158,-0.8798,-0.8099,0.0,0.0,0.0,0.0,0.0,0.0,0.0,0.0,0.0,0.0,0.0,0.0,0.0,-0.4768,-0.3988,-0.2735,-0.0938,-0.047,0.0159,0.0985,0.0985,0.0913,0.0849,0.1026,0.0855,0.0255,0.0342,0.0173,0.0,-0.0088,-0.0177,0.0,-0.0451,-0.0362,-0.0363,-0.074,-0.0925,-0.1007,-0.1403,-0.1844,-0.2329,-0.3087,-0.3514,-0.3816,-0.42,-0.4349,-0.4472,-0.4446,-0.3386,-0.2513,-0.4825,-0.5049,-0.4594,-0.4244,-0.3906,-0.3736,-0.3986,-0.4174,-0.4554,-0.5321,-0.56,-0.5799,-0.6151,-0.6346,-0.6435,-0.6609,-0.6789,-0.6966,-0.7054,-0.7139,-0.7139,-0.7139,-0.7139,-0.7139,-0.7139,-0.6877,-0.673,-0.673,-0.6688,-0.6411,-0.5891,-0.5638,-0.5396,-0.5154,-0.5037,-0.5249,-0.5783,-0.5246,-0.5705,-0.708,-0.6468,-0.6623,-0.754,-0.8313,-0.8856,0.0,-1.4168,-1.417,-1.4105,-1.3638,0.0,0.0,0.0,0.0,0.0,-1.1832,-1.1415,-1.1788,-1.1217,-1.0582,-1.0043,-0.9562,0.0,0.0,0.0,0.0,0.0,0.0,0.0,0.0,0.0,0.0,0.0,0.0,0.0,-0.6311,-0.53,-0.429,-0.3433,-0.1723,-0.0477,0.0325,0.0325,0.0163,-0.0,0.0251,0.0084,-0.0581,-0.0335,-0.0508,-0.0943,-0.0686,0.0,0.0,-0.1339,-0.126,-0.1272,-0.1946,-0.2223,-0.2295,-0.2524,-0.304,-0.3585,-0.4264,-0.4589,-0.4875,-0.5366,-0.5457,-0.5235,-0.5276,-0.4516,-0.3748,-0.4876,-0.5112,-0.4971,-0.4676,-0.4449,-0.4392,-0.4557,-0.4834,-0.5131,-0.563,-0.5735,-0.5846,-0.5927,-0.6153,-0.6361,-0.6446,-0.6753,-0.6969,-0.6966,-0.6966,-0.6946,-0.6806,-0.6796,-0.6776,-0.6721,-0.655,-0.6392,-0.6173,-0.6167,-0.6013,-0.5523,-0.5391,-0.5328,-0.5479,-0.5476,-0.5705,-0.6163,-0.6012,-0.6472,-0.7464,-0.754,-0.7846,-0.8385,-0.8927,-0.916,0.0,0.0,0.0,0.0,0.0,0.0,0.0,0.0,0.0,0.0,0.0,0.0,0.0,-1.2151,-1.1707,-1.1319,-1.0622,0.0,0.0,0.0,0.0,0.0,0.0,0.0,0.0,0.0,0.0,0.0,0.0,0.0,-0.838,-0.7069,-0.615,-0.5925,-0.3051,-0.1269,-0.0568,-0.0729,-0.0971,-0.1214,-0.0497,-0.058,-0.1381,-0.0748,-0.0925,0.0,-0.1011,0.0,0.0,-0.1776,-0.1629,-0.1753,-0.2725,-0.3029,-0.3116,-0.399,-0.4464,-0.4659,-0.5193,-0.539,-0.5491,-0.5409,-0.5208,-0.5017,-0.5135,-0.526,-0.5226,-0.508,-0.5094,-0.5148,-0.5045,-0.5094,-0.5175,-0.5264,-0.5355,-0.5444,-0.5449,-0.5621,-0.5707,-0.571,-0.6138,-0.6563,-0.6563,-0.6843,-0.6933,-0.6763,-0.6763,-0.663,-0.6328,-0.6313,-0.6263,-0.6133,-0.6111,-0.597,-0.5603,-0.5514,-0.5511,-0.558,-0.5232,-0.5476,-0.624,-0.6318,-0.6318,-0.6395,-0.7234,-0.7617,-0.754,-0.915,-0.9852,-0.9868,-0.9873,-0.9954,-1.6035,0.0,-1.525,-1.4538,-1.3842,0.0,0.0,0.0,0.0,0.0,0.0,0.0,0.0,0.0,0.0,0.0,0.0,0.0,0.0,0.0,0.0,0.0,0.0,0.0,0.0,0.0,0.0,0.0,0.0,-0.9583,-0.8456,-0.7452,-0.6608,-0.5922,-0.4758,-0.407,-0.3855,-0.3934,-0.4086,-0.424,-0.3544,-0.3334,-0.3726,-0.299,-0.2883,-0.3363,0.0,0.0,-0.3824,-0.4018,-0.4037,-0.397,-0.4624,-0.472,-0.4535,-0.4784,-0.4945,-0.5193,-0.5102,-0.5265,-0.5398,-0.5165,-0.5083,-0.5004,-0.5042,-0.5078,-0.5091,-0.5034,-0.5037,-0.505,-0.5023,-0.5037,-0.5156,-0.5645,-0.5773,-0.5825,-0.609,-0.6117,-0.5954,-0.5707,-0.5814,-0.5919,-0.5919,-0.6111,-0.6298,-0.6301,-0.6301,-0.6204,-0.6173,-0.617,-0.6155,-0.6124,-0.5864,-0.5866,-0.6471,-0.5913,-0.563,-0.5993,-0.5954,-0.6318,-0.7157,-0.7157,-0.7468,-0.8084,-0.8922,-0.8765,-0.754,-0.915,-0.9703,-0.9325,-0.9886,-1.0299,-1.6641,-1.6108,-1.5828,-1.4907,-1.4511,-1.4256,0.0,0.0,0.0,0.0,0.0,0.0,0.0,0.0,0.0,0.0,0.0,0.0,0.0,0.0,0.0,0.0,0.0,0.0,0.0,0.0,0.0,0.0,0.0,-1.1089,-1.0099,-0.9346,-0.8666,-0.8129,-0.7596,-0.6451,-0.491,-0.5063,-0.5217,-0.5292,-0.4972,-0.4928,-0.501,-0.4598,-0.436,-0.4378,-0.4378,0.0,-0.4324,-0.4761,-0.4879,-0.475,-0.5193,-0.528,-0.5003,-0.5308,-0.5553,-0.5894,-0.6002,-0.5898,-0.5786,-0.5679,-0.5612,-0.5653,-0.5849,-0.6093,-0.6244,-0.5249,-0.5323,-0.5643,-0.5471,-0.5726,-0.6212,-0.6607,-0.6704,-0.6809,-0.6972,-0.6912,-0.6671,-0.6188,-0.6486,-0.6836,-0.6763,-0.7297,-0.7593,-0.7102,-0.6936,-0.6585,-0.6031,-0.5776,-0.5834,-0.6096,-0.594,-0.6208,-0.7066,-0.6674,-0.656,-0.678,-0.6777,-0.7161,-0.8003,-0.808,-0.8466,-0.9236,-0.9311,-0.9079,-0.8613,-0.9571,-0.9921,-0.965,-1.0158,-1.0599,-1.7127,-1.687,-1.6681,-1.5413,-1.5385,-1.5447,0.0,0.0,0.0,0.0,0.0,0.0,0.0,0.0,0.0,0.0,0.0,0.0,0.0,0.0,0.0,0.0,0.0,0.0,0.0,0.0,0.0,0.0,0.0,-1.2664,-1.2031,-1.1545,-1.1099,-1.0783,-1.0357,-0.867,-0.5668,-0.5752,-0.5755,-0.5755,-0.5783,-0.5796,-0.5796,-0.574,-0.5501,-0.5127,0.0,0.0,-0.4653,-0.5082,-0.5226,-0.5142,-0.5494,-0.5491,-0.53,-0.5809,-0.6199,-0.6521,-0.7058,-0.6847,-0.641,-0.6592,-0.6617,-0.6662,-0.7061,-0.7625,-0.7774,-0.6089,-0.6163,-0.6651,-0.6321,-0.6831,-0.7549,-0.7807,-0.7894,-0.7894,-0.7894,-0.7894,-0.7648,-0.6914,-0.758,-0.8277,-0.8107,-0.8927,-0.9285,-0.8401,-0.7996,-0.7373,-0.6364,-0.5949,-0.5981,-0.6556,-0.6619,-0.6927,-0.7766,-0.7842,-0.7918,-0.8071,-0.7846,-0.808,-0.8851,-0.8851,-0.9236,-0.9916,-0.9311,-0.9327,-0.9976,-1.0341,-1.0488,-1.0486,-1.0681,-1.0871,-1.7947,-1.7583,-1.7028,-1.5801,-1.56,-1.5616,0.0,0.0,0.0,0.0,0.0,0.0,0.0,0.0,0.0,0.0,0.0,0.0,0.0,0.0,0.0,0.0,0.0,0.0,0.0,0.0,0.0,0.0,0.0,-1.2962,-1.2057,-1.1929,-1.1545,-1.0783,-1.0875,-1.0571,-0.9863,-0.8604,-0.7931,-0.7936,-0.7156,-0.6752,-0.6756,-0.6316,-0.6223,-0.6331,0.0,-0.6678,-0.6715,-0.6798,-0.6812,-0.6833,-0.6916,-0.6756,-0.6589,-0.6732,-0.6805,-0.6885,-0.7349,-0.7495,-0.7464,-0.7621,-0.7644,-0.777,-0.8056,-0.8228,-0.8304,-0.8147,-0.7999,-0.7855,-0.7812,-0.7893,-0.809,-0.8645,-0.8765,-0.8765,-0.8765,-0.8765,-0.8631,-0.8227,-0.8223,-0.8458,-0.856,-0.8732,-0.8832,-0.8679,-0.8535,-0.8449,-0.825,-0.8169,-0.8237,-0.8282,-0.8277,-0.8661,-0.9437,-0.9513,-0.982,-1.0501,-0.9296,-0.8851,-0.969,-0.9695,-0.9765,-0.9922,-1.0143,-1.0247,-1.0239,-1.1039,-1.1435,-1.1458,-1.1498,-1.1623,-1.8421,-1.8368,-1.8277,-1.7433,-1.7055,-1.6749,0.0,0.0,0.0,0.0,0.0,0.0,0.0,0.0,0.0,0.0,0.0,0.0,0.0,0.0,0.0,0.0,0.0,0.0,0.0,0.0,0.0,0.0,0.0,0.0,-1.4053,-1.3996,-1.3643,-1.2858,-1.2498,-1.2271,-1.2191,-1.0914,-1.0185,-0.9836,-0.8942,-0.8531,-0.8531,-0.7836,-0.7453,-0.7384,0.0,-0.7349,-0.7177,-0.7177,-0.7098,-0.7015,-0.7015,-0.7015,-0.7087,-0.7805,-0.8347,-0.8658,-0.8497,-0.8492,-0.8553,-0.8622,-0.8822,-0.9034,-0.9327,-0.975,-1.0121,-0.9895,-0.9518,-0.9165,-0.8976,-0.9314,-0.9802,-1.0223,-1.0323,-1.0323,-1.0323,-1.0323,-1.014,-0.9493,-0.9699,-1.0035,-0.9981,-1.0329,-1.0479,-1.0034,-0.9809,-0.9502,-0.9115,-0.8808,-0.8883,-0.9271,-0.9352,-0.9658,-1.0501,-1.0576,-1.0732,-1.1111,-1.0432,-1.0132,-1.0513,-1.0513,-1.0513,-1.0513,-1.0878,-1.1089,-1.0979,-1.1732,-1.2077,-1.2242,-1.2374,-1.259,-1.893,-1.8958,-1.9118,-1.8856,0.0,-1.786,-1.7105,0.0,0.0,0.0,0.0,0.0,0.0,0.0,0.0,0.0,0.0,0.0,0.0,0.0,0.0,0.0,0.0,0.0,0.0,0.0,0.0,0.0,0.0,0.0,-1.6027,-1.5773,-1.5438,-1.4903,-1.4106,-1.3673,-1.3673,-1.291,-1.2098,-1.1242,-1.0651,-1.0207,-0.9986,-0.9453,-0.8861,-0.8391,-0.8396,-0.8233,-0.7793,-0.7793,-0.7712,-0.7639,-0.7639,-0.7635,-0.7854,-0.8894,-0.9668,-1.0212,-0.9755,-0.9679,-0.975,-0.975,-0.9976,-1.0271,-1.0513,-1.1111,-1.1706,-1.126,-1.095,-1.0611,-1.0193,-1.0627,-1.1254,-1.1401,-1.1401,-1.1401,-1.1484,-1.1478,-1.1324,-1.0716,-1.11,-1.1493,-1.1372,-1.1855,-1.2077,-1.1484,-1.1099,-1.0714,-1.0104,-0.9718,-0.9798,-1.0421,-1.0496,-1.072,-1.1335,-1.1409,-1.1409,-1.1409,-1.1186,-1.1111,-1.1111,-1.1111,-1.1111,-1.1111,-1.153,-1.1701,-1.169,-1.2332,-1.2769,-1.2837,-1.3037,-1.3392,-1.9726,-1.9195,-1.8621,-1.9266,0.0,0.0,-1.7984,0.0,0.0,0.0,0.0,0.0,0.0,0.0,0.0,0.0,0.0,0.0,0.0,0.0,0.0,0.0,0.0,0.0,0.0,0.0,0.0,0.0,0.0,0.0,-1.6693,-1.6044,-1.5711,-1.5641,-1.4895,-1.4489,-1.4489,-1.4418,-1.3513,-1.1864,-1.1563,-1.1137,-1.049,-1.0559,-1.0207,-0.9494,-0.9716,-0.9727,-0.9737,-0.9737,-0.9661,-0.9661,-0.9661,-0.9661,-0.9737,-0.9797,-1.0084,-1.0443,-1.0438,-1.0663,-1.0962,-1.0962,-1.1111,-1.1335,-1.1558,-1.1781,-1.2003,-1.215,-1.215,-1.2083,-1.1658,-1.1434,-1.1434,-1.1664,-1.1515,-1.144,-1.1658,-1.1658,-1.1738,-1.1887,-1.1887,-1.2029,-1.2157,-1.2224,-1.2305,-1.2231,-1.2224,-1.215,-1.2077,-1.207,-1.207,-1.215,-1.215,-1.215,-1.2224,-1.2224,-1.2224,-1.2224,-1.1484,-1.1111,-1.1111,-1.1111,-1.1111,-1.1111,-1.1834,-1.2026,-1.1896,-1.3001,-1.345,-1.3366,-1.3555,-1.3652,-1.9963,-2.0004,-1.9932,-1.9599,0.0,0.0,0.0,0.0,0.0,0.0,0.0,0.0,0.0,0.0,0.0,0.0,0.0,0.0,0.0,0.0,0.0,0.0,0.0,0.0,0.0,0.0,0.0,0.0,0.0,0.0,-1.751,-1.76,-1.7257,-1.6498,-1.6026,-1.57,-1.5363,-1.5363,-1.4991,-1.4307,-1.3208,-1.2551,-1.2265,-1.189,-1.1527,-1.1236,-1.131,-1.131,-1.131,-1.131,-1.131,-1.131,-1.1105,-1.1248,-1.1465,-1.0881,-1.1329,-1.2137,-1.1774,-1.1706,-1.1855,-1.1855,-1.1632,-1.1409,-1.1632,-1.1855,-1.2003,-1.2224,-1.2305,-1.2224,-1.2077,-1.2003,-1.2003,-1.2077,-1.2003,-1.2003,-1.2077,-1.2077,-1.2077,-1.215,-1.2157,-1.215,-1.215,-1.2077,-1.2077,-1.1929,-1.2003,-1.2077,-1.2077,-1.2231,-1.2305,-1.2305,-1.2305,-1.2305,-1.2305,-1.2305,-1.2231,-1.215,-1.1929,-1.1855,-1.1855,-1.1855,-1.1855,-1.1855,-1.2472,-1.2772,-1.2724,-1.3523,-1.3968,-1.4062,-1.423,-1.4405,-2.0469,-2.0762,0.0,0.0,0.0,0.0,0.0,0.0,0.0,0.0,0.0,0.0,0.0,0.0,0.0,0.0,0.0,0.0,0.0,0.0,0.0,0.0,0.0,0.0,0.0,0.0,0.0,0.0,0.0,0.0,0.0,-1.8534,-1.8308,-1.7543,-1.721,-1.6881,-1.6482,-1.6621,-1.6403,-1.5921,-1.4958,-1.4235,-1.3673,-1.3077,-1.2638,-1.2418,-1.2418,-1.2418,-1.2418,-1.2418,-1.2418,-1.2425,-1.2144,-1.2365,-1.2579,-1.1922,-1.2291,-1.3164,-1.2732,-1.2666,-1.2666,-1.2526,-1.2439,-1.2278,-1.2077,-1.2291,-1.2586,-1.2526,-1.2666,-1.2813,-1.2526,-1.2378,-1.2231,-1.2305,-1.2231,-1.2224,-1.2224,-1.2224,-1.2305,-1.2231,-1.2224,-1.2224,-1.215,-1.2003,-1.1929,-1.1855,-1.1855,-1.1929,-1.1929,-1.2003,-1.2077,-1.2077,-1.2077,-1.2077,-1.2077,-1.2077,-1.2077,-1.1929,-1.2003,-1.2077,-1.2077,-1.215,-1.2224,-1.2224,-1.2822,-1.3213,-1.3213,-1.3801,-1.4166,-1.4321,-1.4566,-1.4824,-2.1346,-2.135,0.0,0.0,0.0,0.0,0.0,0.0,0.0,0.0,0.0,0.0,0.0,0.0,0.0,0.0,0.0,0.0,0.0,0.0,0.0,0.0,0.0,0.0,0.0,0.0,0.0,0.0,0.0,0.0,0.0,-1.8605,-1.8478,-1.8807,-1.8268,-1.8037,-1.8037,-1.8297,-1.7745,-1.6306,-1.6636,-1.5939,-1.4266,-1.4201,-1.3695,-1.29,-1.29,-1.29,-1.29,-1.29,-1.29,-1.29,-1.29,-1.29,-1.29,-1.29,-1.3032,-1.3237,-1.3237,-1.3382,-1.3462,-1.3039,-1.3535,-1.4091,-1.2959,-1.3244,-1.3825,-1.3112,-1.347,-1.3825,-1.3112,-1.2452,-1.2077,-1.2224,-1.2157,-1.2003,-1.2003,-1.215,-1.2231,-1.2003,-1.215,-1.2305,-1.2305,-1.2157,-1.2003,-1.2003,-1.1855,-1.1706,-1.1706,-1.1706,-1.1706,-1.1706,-1.1706,-1.1706,-1.1706,-1.1706,-1.1706,-1.1706,-1.1706,-1.1706,-1.1706,-1.1855,-1.2003,-1.2003,-1.2822,-1.3213,-1.3213,-1.3801,-1.4088,-1.4088,-1.4489,-1.4734,-2.0581,0.0,0.0,0.0,0.0,0.0,0.0,0.0,0.0,0.0,0.0,0.0,0.0,0.0,0.0,0.0,0.0,0.0,0.0,0.0,0.0,0.0,0.0,0.0,0.0,0.0,0.0,0.0,0.0,0.0,0.0,-1.8555,-1.88,-1.8987,-1.855,-1.8385,-1.8479,-1.8499,-1.8297,-1.7813,-1.7248,-1.6289,-1.4919,-1.5213,-1.515,-1.4927,-1.4927,-1.507,-1.5267,-1.507,-1.4927,-1.4856,-1.433,-1.4545,-1.5054,-1.4027,-1.4314,-1.5188,-1.476,-1.4617,-1.4697,-1.4553,-1.4394,-1.4235,-1.4099,-1.389,-1.3745,-1.368,-1.3825,-1.397,-1.3753,-1.3954,-1.4019,-1.2959,-1.3105,-1.3244,-1.2746,-1.2673,-1.2673,-1.2452,-1.2452,-1.2452,-1.215,-1.1929,-1.1706,-1.1632,-1.1558,-1.1558,-1.1706,-1.1706,-1.1706,-1.1706,-1.1706,-1.1706,-1.1706,-1.1706,-1.1632,-1.1484,-1.1484,-1.1632,-1.1929,-1.2003,-1.2077,-1.2224,-1.2822,-1.3213,-1.3213,-1.3801,-1.4088,-1.4088,-1.4405,-1.4566,-2.1252,0.0,0.0,0.0,0.0,0.0,0.0,0.0,0.0,0.0,0.0,0.0,0.0,0.0,0.0,0.0,0.0,0.0,0.0,0.0,0.0,0.0,0.0,0.0,0.0,0.0,0.0,0.0,0.0,0.0,0.0,-1.8987,-1.9283,-1.9317,-1.9155,-1.8962,-1.8807,-1.9136,-1.895,-1.8294,-1.8111,-1.7434,-1.6289,-1.6245,-1.6193,-1.6193,-1.6193,-1.6193,-1.6132,-1.6193,-1.6061,-1.578,-1.5525,-1.5675,-1.5912,-1.5029,-1.5321,-1.6061,-1.57,-1.5559,-1.563,-1.548,-1.5401,-1.5251,-1.4966,-1.4824,-1.4816,-1.4609,-1.4895,-1.51,-1.4752,-1.5525,-1.5877,-1.4243,-1.4178,-1.4314,-1.3818,-1.3535,-1.3324,-1.3164,-1.2959,-1.2746,-1.2378,-1.2157,-1.1929,-1.1558,-1.1409,-1.1335,-1.1484,-1.1484,-1.1484,-1.1484,-1.1484,-1.1484,-1.1484,-1.1484,-1.1409,-1.126,-1.126,-1.1409,-1.1781,-1.1855,-1.2003,-1.215,-1.2779,-1.3086,-1.3213,-1.3681,-1.3975,-1.4088,-1.4321,-1.4482,0.0,0.0,0.0,0.0,0.0,0.0,0.0,0.0,0.0,0.0,0.0,0.0,0.0,0.0,0.0,0.0,0.0,0.0,0.0,0.0,0.0,0.0,0.0,0.0,0.0,0.0,0.0,0.0,0.0,0.0,-1.9556,-1.9707,-1.9794,-1.9799,-1.993,-1.9691,-1.9059,-1.992,-1.9559,-1.813,-1.8942,-1.8868,-1.7927,-1.7279,-1.6973,-1.6982,-1.6982,-1.6645,-1.6035,-1.6706,-1.6576,-1.6105,-1.6645,-1.6507,-1.5974,-1.5903,-1.5982,-1.6202,-1.6202,-1.6272,-1.6272,-1.5974,-1.6403,-1.676,-1.57,-1.5974,-1.6464,-1.5745,-1.6237,-1.6724,-1.6018,-1.6881,-1.7579,-1.5869,-1.5376,-1.5296,-1.5013,-1.4522,-1.4106,-1.4011,-1.3673,-1.3331,-1.2973,-1.282,-1.2445,-1.1781,-1.1409,-1.1186,-1.1186,-1.1186,-1.1186,-1.1186,-1.1186,-1.1186,-1.1186,-1.1186,-1.1186,-1.1186,-1.1186,-1.126,-1.1484,-1.1632,-1.1781,-1.2003,-1.2516,-1.2886,-1.3166,-1.3487,-1.3781,-1.4132,-1.4307,-1.4566,0.0,0.0,0.0,0.0,0.0,0.0,0.0,0.0,0.0,0.0,0.0,0.0,0.0,0.0,0.0,0.0,0.0,0.0,0.0,0.0,0.0,0.0,0.0,0.0,0.0,0.0,0.0,0.0,0.0,0.0,-1.9406,-1.9428,-1.9818,-2.0536,-2.0061,-1.9936,-2.0284,-1.9947,-1.9482,-1.8962,-1.8537,-1.8259,-1.803,-1.8081,-1.8123,-1.8123,-1.8412,-1.8142,-1.7503,-1.792,-1.8055,-1.7852,-1.7463,-1.7404,-1.7491,-1.689,-1.6691,-1.67,-1.67,-1.6769,-1.6769,-1.6691,-1.6899,-1.7097,-1.6811,-1.6594,-1.6376,-1.6385,-1.6524,-1.6664,-1.6655,-1.7295,-1.7872,-1.751,-1.6941,-1.6367,-1.5666,-1.5455,-1.5108,-1.4402,-1.4736,-1.4728,-1.3404,-1.331,-1.307,-1.1848,-1.1632,-1.1558,-1.1558,-1.1558,-1.1558,-1.1558,-1.1558,-1.1558,-1.1558,-1.1558,-1.1558,-1.1558,-1.1558,-1.1632,-1.1855,-1.1781,-1.1781,-1.2003,-1.2516,-1.2856,-1.2923,-1.3614,-1.3988,-1.4056,-1.4455,-1.4741,0.0,0.0,0.0,0.0,0.0,0.0,0.0,0.0,0.0,0.0,0.0,0.0,0.0,0.0,0.0,0.0,0.0,0.0,0.0,0.0,0.0,0.0,0.0,0.0,0.0,0.0,0.0,0.0,0.0,-2.0739,-2.0422,-2.044,-2.0589,-2.0875,-2.0253,-1.9858,-1.9744,-1.9412,-1.9101,-1.8714,-1.8687,-1.8665,-1.8835,-1.8459,-1.8297,-1.8297,-1.8499,-1.8178,-1.7585,-1.8104,-1.8301,-1.8309,-1.8233,-1.8298,-1.8375,-1.7706,-1.7432,-1.7373,-1.7038,-1.6908,-1.6908,-1.6908,-1.6968,-1.7038,-1.7038,-1.689,-1.6733,-1.6881,-1.7019,-1.7157,-1.7285,-1.7647,-1.8008,-1.8008,-1.7725,-1.7295,-1.6872,-1.6515,-1.6167,-1.5754,-1.5877,-1.5649,-1.4744,-1.4235,-1.3723,-1.3077,-1.2432,-1.2003,-1.2003,-1.1855,-1.1706,-1.1706,-1.1706,-1.1706,-1.1706,-1.1706,-1.1706,-1.1706,-1.1706,-1.1781,-1.1855,-1.1855,-1.1929,-1.215,-1.2452,-1.2605,-1.2822,-1.343,-1.381,-1.4042,-1.4511,-1.4824,0.0,0.0,0.0,0.0,0.0,0.0,0.0,0.0,0.0,0.0,0.0,0.0,0.0,0.0,0.0,0.0,0.0,0.0,0.0,0.0,0.0,0.0,0.0,0.0,0.0,0.0,0.0,0.0,0.0,-2.1568,-2.1568,-2.1568,-2.1458,-2.114,-2.0633,-1.9914,-1.9137,-1.9124,-1.8904,-1.8453,-1.8999,-1.9414,-1.9622,-1.8784,-1.8409,-1.8462,-1.8401,-1.8047,-1.7564,-1.8108,-1.8279,-1.8331,-1.8817,-1.8924,-1.8816,-1.8225,-1.8004,-1.7898,-1.7316,-1.706,-1.7014,-1.7019,-1.6978,-1.6978,-1.6978,-1.7176,-1.7304,-1.7304,-1.751,-1.7784,-1.7774,-1.793,-1.8008,-1.8008,-1.8008,-1.8008,-1.8008,-1.751,-1.7079,-1.7157,-1.6664,-1.6298,-1.621,-1.5367,-1.4593,-1.4378,-1.352,-1.2872,-1.2732,-1.2439,-1.2285,-1.2352,-1.2211,-1.2144,-1.2285,-1.2211,-1.2211,-1.2211,-1.207,-1.1996,-1.1996,-1.2077,-1.2157,-1.2305,-1.2305,-1.2425,-1.2741,-1.3199,-1.3657,-1.3966,-1.4434,-1.4859,0.0,0.0,0.0,0.0,0.0,0.0,0.0,0.0,0.0,0.0,0.0,0.0,0.0,0.0,0.0,0.0,0.0,0.0,0.0,0.0,0.0,0.0,0.0,0.0,0.0,0.0,0.0,0.0,-2.1568,-2.1423,-2.1423,-2.1423,-2.152,-2.1698,-2.1188,-2.0845,-2.067,-2.0258,-1.9861,-1.9512,-1.9587,-1.9624,-1.9676,-1.9559,-1.9624,-1.9807,-1.9561,-1.9372,-1.9253,-1.9108,-1.9033,-1.9039,-1.8664,-1.8513,-1.8435,-1.8309,-1.8058,-1.7758,-1.7972,-1.7868,-1.7546,-1.7474,-1.7401,-1.7401,-1.7401,-1.752,-1.7647,-1.7862,-1.794,-1.8008,-1.8202,-1.8144,-1.8008,-1.8008,-1.8008,-1.8008,-1.8008,-1.794,-1.7657,-1.7079,-1.6585,-1.6437,-1.6904,-1.6428,-1.5666,-1.4744,-1.4942,-1.5005,-1.4386,-1.4243,-1.445,-1.5067,-1.4307,-1.3962,-1.4657,-1.4378,-1.4243,-1.4243,-1.36,-1.3237,-1.3237,-1.2592,-1.2305,-1.2305,-1.2305,-1.2318,-1.2365,-1.2886,-1.3424,-1.3894,-1.4363,-1.4907,0.0,0.0,0.0,0.0,0.0,0.0,0.0,0.0,0.0,0.0,0.0,0.0,0.0,0.0,0.0,0.0,0.0,0.0,0.0,0.0,0.0,0.0,0.0,0.0,0.0,0.0,0.0,0.0,-2.1902,-2.1841,-2.1841,-2.1793,-2.1793,-2.1902,-2.1348,-2.0944,-2.0795,-2.0245,-1.9837,-1.9542,-1.9709,-1.9761,-1.9761,-1.9965,-1.9868,-1.9416,-1.9294,-1.9027,-1.8737,-1.8635,-1.8805,-1.9102,-1.8859,-1.9028,-1.9298,-1.8884,-1.8624,-1.8588,-1.8712,-1.8431,-1.8025,-1.8338,-1.824,-1.794,-1.794,-1.8056,-1.8172,-1.825,-1.8327,-1.8482,-1.8539,-1.8405,-1.8279,-1.8279,-1.8144,-1.8008,-1.8008,-1.8008,-1.794,-1.7706,-1.7569,-1.756,-1.7959,-1.7482,-1.6932,-1.6567,-1.621,-1.5939,-1.5596,-1.5376,-1.5359,-1.5632,-1.5217,-1.5084,-1.5438,-1.5288,-1.5155,-1.495,-1.4593,-1.4386,-1.4106,-1.3382,-1.2952,-1.2952,-1.2519,-1.2305,-1.2305,-1.2832,-1.3202,-1.3502,-1.4221,-1.4689,0.0,0.0,0.0,0.0,0.0,0.0,0.0,0.0,0.0,0.0,0.0,0.0,0.0,0.0,0.0,0.0,0.0,0.0,0.0,0.0,0.0,0.0,0.0,0.0,0.0,0.0,0.0,0.0,-2.2231,-2.2184,-2.2091,-2.1996,-2.1949,-2.1949,-2.1444,-2.1104,-2.0908,-2.051,-2.0194,-2.0029,-2.0194,-2.0295,-2.0295,-2.061,-2.0283,-1.9426,-1.927,-1.898,-1.8602,-1.8387,-1.8608,-1.9045,-1.8958,-1.9202,-1.9621,-1.9251,-1.9147,-1.9171,-1.9304,-1.8935,-1.8562,-1.9137,-1.8903,-1.8445,-1.8556,-1.8586,-1.8576,-1.8576,-1.8721,-1.8875,-1.8875,-1.8741,-1.8549,-1.8549,-1.8347,-1.8076,-1.8008,-1.8008,-1.8008,-1.8202,-1.8269,-1.8405,-1.8607,-1.8259,-1.7978,-1.7901,-1.7413,-1.6922,-1.6793,-1.6489,-1.6341,-1.654,-1.6271,-1.6201,-1.6419,-1.6349,-1.621,-1.5948,-1.5658,-1.5446,-1.5092,-1.4106,-1.3528,-1.3528,-1.2739,-1.2305,-1.2305,-1.2675,-1.2982,-1.3141,-1.3838,-1.4177,0.0,0.0,0.0,0.0,0.0,0.0,0.0,0.0,0.0,0.0,0.0,0.0,0.0,0.0,0.0,0.0,0.0,0.0,0.0,0.0,0.0,0.0,0.0,0.0,0.0,0.0,0.0,0.0,-2.2278,-2.2091,-2.1841,-2.1793,-2.1793,-2.1793,-2.1793,-2.1746,-2.1746,-2.1698,-2.1698,-2.1698,-2.1698,-2.1698,-2.1698,-2.1698,-2.1444,-2.0881,-2.0333,-2.0131,-2.0029,-1.9178,-1.8874,-1.8898,-1.8541,-1.848,-1.8561,-1.9238,-1.9273,-1.9042,-1.9529,-1.9437,-1.9206,-1.956,-1.9239,-1.8775,-1.9359,-1.9187,-1.8808,-1.8808,-1.8942,-1.9065,-1.9065,-1.8942,-1.8808,-1.8808,-1.8539,-1.8212,-1.8008,-1.8008,-1.8008,-1.8008,-1.8144,-1.8337,-1.8337,-1.8539,-1.8529,-1.7842,-1.8452,-1.8721,-1.7969,-1.7891,-1.8172,-1.8854,-1.7959,-1.7619,-1.8259,-1.8066,-1.7872,-1.7872,-1.7001,-1.6498,-1.6498,-1.4657,-1.3673,-1.3673,-1.2732,-1.2305,-1.2305,-1.2318,-1.2621,-1.3134,-1.3161,-1.341,0.0,0.0,0.0,0.0,0.0,0.0,0.0,0.0,0.0,0.0,0.0,0.0,0.0,0.0,0.0,0.0,0.0,0.0,0.0,0.0,0.0,0.0,0.0,0.0,0.0,0.0,0.0,0.0,0.0,-2.2184,-2.2044,-2.1793,-2.1746,-2.1949,-2.1664,-2.1616,-2.1793,-2.1996,-2.2044,-2.2044,-2.2044,-2.1996,-2.1793,-2.1902,-2.1793,-2.1506,-2.1396,-2.0944,-2.0295,-1.9978,-1.9927,-1.9914,-1.9488,-1.9291,-1.9316,-1.9322,-1.9274,-1.9361,-2.008,-1.998,-1.961,-2.0158,-1.9897,-1.9349,-1.9525,-1.951,-1.9404,-1.9323,-1.9341,-1.9473,-1.9605,-1.9341,-1.9075,-1.9008,-1.8674,-1.8414,-1.8347,-1.8144,-1.8008,-1.8008,-1.8076,-1.8144,-1.8269,-1.8472,-1.8539,-1.8405,-1.8798,-1.8998,-1.8731,-1.8721,-1.8798,-1.9075,-1.8721,-1.8586,-1.8875,-1.8808,-1.8607,-1.8347,-1.791,-1.756,-1.7345,-1.6079,-1.5376,-1.5376,-1.4593,-1.352,-1.2305,-1.2305,-1.2432,-1.2614,-1.2962,-1.3112,0.0,0.0,0.0,0.0,0.0,0.0,0.0,0.0,0.0,0.0,0.0,0.0,0.0,0.0,0.0,0.0,0.0,0.0,0.0,0.0,0.0,0.0,0.0,0.0,0.0,0.0,0.0,0.0,0.0,0.0,-2.2184,-2.1949,-2.1888,-2.2044,-2.1793,-2.1746,-2.1949,-2.2137,-2.2184,-2.2184,-2.2184,-2.2137,-2.1996,-2.2091,-2.2044,-2.1949,-2.2123,-2.1732,-2.1006,-2.0809,-2.0772,-2.0822,-2.0055,-1.9798,-1.9759,-1.9368,-1.9275,-1.9429,-2.0092,-2.0056,-1.9764,-2.0496,-2.0273,-1.975,-1.9832,-1.9627,-1.9441,-1.949,-1.9371,-1.9348,-1.9704,-1.9671,-1.9407,-1.9208,-1.8942,-1.8751,-1.8674,-1.8337,-1.8008,-1.8008,-1.8008,-1.8008,-1.8212,-1.8347,-1.8549,-1.8674,-1.8942,-1.9075,-1.9075,-1.9075,-1.9075,-1.9075,-1.9075,-1.9075,-1.9075,-1.9075,-1.9008,-1.8741,-1.8472,-1.8269,-1.7988,-1.6932,-1.6367,-1.6367,-1.5587,-1.4585,-1.3302,-1.2945,-1.2666,-1.2385,-1.273,-1.275,0.0,0.0,0.0,0.0,0.0,0.0,0.0,0.0,0.0,0.0,0.0,0.0,0.0,0.0,0.0,0.0,0.0,0.0,0.0,0.0,0.0,0.0,0.0,0.0,0.0,0.0,0.0,0.0,-2.2632,-2.2509,-2.2231,-2.2231,-2.2231,-2.2184,-2.2231,-2.2231,-2.2231,-2.2231,-2.2231,-2.2231,-2.2231,-2.2278,-2.2417,-2.2417,-2.2324,-2.2231,-2.2434,-2.2388,-2.2184,-2.1664,-2.1423,-2.1326,-2.0258,-1.985,-1.9811,-1.9368,-1.9223,-1.9275,-1.9512,-1.9617,-1.9703,-2.041,-2.0195,-1.9809,-2.0337,-1.9597,-1.8742,-1.916,-1.9008,-1.8817,-1.9401,-1.9726,-1.9802,-1.9417,-1.9351,-1.9274,-1.9142,-1.8539,-1.8008,-1.8008,-1.8008,-1.8008,-1.8008,-1.8279,-1.8482,-1.8482,-1.8808,-1.9065,-1.9075,-1.9075,-1.9075,-1.9075,-1.9075,-1.9075,-1.9075,-1.9075,-1.9075,-1.9075,-1.8741,-1.8482,-1.8482,-1.7335,-1.6636,-1.6636,-1.5728,-1.5234,-1.5234,-1.4243,-1.3317,-1.2599,-1.2372,-1.2305,-2.0575,0.0,0.0,0.0,0.0,0.0,0.0,0.0,0.0,0.0,0.0,0.0,0.0,0.0,0.0,0.0,0.0,0.0,0.0,0.0,0.0,0.0,0.0,0.0,0.0,0.0,0.0,0.0,-2.2692,-2.2555,-2.2509,-2.2509,-2.2417,-2.2231,-2.2509,-2.2661,-2.2509,-2.2615,-2.2752,-2.2843,-2.2843,-2.2828,-2.2768,-2.2768,-2.2663,-2.2572,-2.2603,-2.2663,-2.2678,-2.2263,-2.2091,-2.1902,-2.1202,-2.097,-2.0858,-2.0055,-1.9798,-1.9759,-1.9512,-1.9473,-1.9497,-1.9698,-1.9642,-1.9526,-1.9638,-1.9444,-1.9149,-1.8841,-1.8678,-1.8674,-1.903,-1.9544,-2.0009,-1.9878,-1.9681,-1.9473,-1.9473,-1.9008,-1.8607,-1.8741,-1.8539,-1.8347,-1.8347,-1.8347,-1.8414,-1.8482,-1.8741,-1.8942,-1.9065,-1.9075,-1.9075,-1.9075,-1.9075,-1.9075,-1.9075,-1.9075,-1.9075,-1.9075,-1.8875,-1.8684,-1.8482,-1.8056,-1.7774,-1.7647,-1.7364,-1.6941,-1.6437,-1.4744,-1.3753,-1.339,-1.2666,-1.2305,0.0,0.0,0.0,0.0,0.0,0.0,-2.146,-2.2398,-2.3207,0.0,0.0,0.0,0.0,0.0,0.0,0.0,0.0,0.0,0.0,0.0,0.0,0.0,0.0,0.0,0.0,-2.2978,-2.2888,-2.2888,-2.2797,-2.2752,-2.2752,-2.2752,-2.2661,-2.2509,-2.2752,-2.2843,-2.2797,-2.2947,-2.3037,-2.3201,-2.3201,-2.3157,-2.3127,-2.3127,-2.3083,-2.2934,-2.3024,-2.3024,-2.2889,-2.2814,-2.2601,-2.2324,-2.1874,-2.1541,-2.1264,-2.0396,-1.9991,-1.985,-1.9473,-1.9328,-1.9328,-1.9368,-1.942,-1.9417,-1.939,-1.9257,-1.9033,-1.8918,-1.8977,-1.9081,-1.9015,-1.9588,-2.0153,-1.9834,-1.9803,-1.9813,-1.9813,-1.955,-1.9274,-1.9131,-1.8808,-1.8684,-1.8741,-1.8741,-1.8741,-1.8741,-1.8875,-1.9008,-1.9075,-1.9075,-1.9075,-1.9075,-1.9075,-1.9075,-1.9075,-1.9075,-1.9075,-1.9075,-1.8942,-1.8674,-1.8482,-1.8337,-1.8202,-1.8008,-1.8008,-1.7647,-1.6932,-1.5384,-1.4178,-1.3244,-1.2666,-1.2378,0.0,0.0,0.0,0.0,0.0,0.0,-2.1866,-2.2228,-2.2499,-2.3307,0.0,0.0,0.0,0.0,0.0,0.0,0.0,0.0,0.0,0.0,0.0,0.0,0.0,0.0,-2.3348,-2.3112,-2.2978,-2.2933,-2.2947,-2.2947,-2.2947,-2.2947,-2.2947,-2.2933,-2.2933,-2.2992,-2.3127,-2.3127,-2.3201,-2.3319,-2.3319,-2.3363,-2.3509,-2.3509,-2.3451,-2.3348,-2.3508,-2.3377,-2.2979,-2.3216,-2.3053,-2.2601,-2.2282,-2.1908,-2.1458,-2.0633,-2.0181,-1.9901,-1.942,-1.9223,-1.9223,-1.9316,-1.9368,-1.9368,-1.9368,-1.904,-1.8708,-1.9045,-1.9367,-1.9516,-1.9186,-1.9618,-2.0052,-1.9508,-1.9703,-1.9998,-1.9998,-2.0042,-1.9878,-1.9341,-1.9008,-1.8942,-1.9142,-1.9208,-1.9208,-1.9142,-1.9208,-1.9285,-1.9142,-1.9142,-1.9142,-1.9142,-1.9142,-1.9075,-1.9075,-1.9075,-1.9075,-1.9075,-1.8942,-1.8741,-1.8482,-1.8414,-1.8212,-1.8008,-1.8008,-1.7647,-1.6932,-1.6026,-1.4673,-1.2893,-1.2739,-1.2592,0.0,0.0,0.0,0.0,0.0,0.0,-2.0589,-2.1101,-2.1476,0.0,0.0,0.0,0.0,0.0,0.0,0.0,0.0,0.0,0.0,0.0,0.0,0.0,0.0,0.0,-2.3595,-2.348,-2.3392,-2.3231,-2.3112,-2.3037,-2.3037,-2.3037,-2.3112,-2.3231,-2.3231,-2.3231,-2.3275,-2.3275,-2.3319,-2.3466,-2.3466,-2.3494,-2.3566,-2.3566,-2.3566,-2.3566,-2.3595,-2.3551,-2.3465,-2.3508,-2.3246,-2.2844,-2.2754,-2.2709,-2.2466,-2.1513,-2.1126,-2.093,-1.9759,-1.9368,-1.9316,-1.9158,-1.9093,-1.9105,-1.9223,-1.917,-1.9023,-1.8785,-1.8844,-1.9,-1.8988,-1.9251,-1.946,-1.934,-1.9437,-1.9497,-1.9423,-1.9663,-1.9944,-1.9878,-1.9681,-1.9473,-1.9473,-1.9274,-1.9142,-1.9285,-1.9285,-1.9351,-1.9473,-1.9341,-1.9274,-1.9274,-1.9142,-1.9075,-1.9075,-1.9075,-1.9075,-1.9075,-1.9065,-1.8875,-1.8549,-1.8482,-1.8347,-1.8008,-1.8008,-1.7647,-1.6932,-1.6576,-1.5807,-1.4697,-1.3897,-1.3382,0.0,0.0,0.0,-2.0516,0.0,0.0,0.0,-2.1034,-2.1247,-2.1367,-2.1689,0.0,0.0,0.0,0.0,0.0,0.0,0.0,0.0,0.0,0.0,0.0,0.0,0.0,-2.3824,-2.3696,-2.3523,-2.3319,-2.3246,-2.3201,-2.3201,-2.3201,-2.3246,-2.3319,-2.3319,-2.3319,-2.3407,-2.3407,-2.3451,-2.3538,-2.3509,-2.3494,-2.3538,-2.3538,-2.3538,-2.3538,-2.361,-2.3595,-2.3595,-2.3595,-2.3465,-2.3246,-2.3246,-2.3113,-2.2844,-2.2175,-2.1704,-2.1272,-2.0308,-1.9811,-1.9565,-1.9303,-1.921,-1.921,-1.9105,-1.9105,-1.9052,-1.8946,-1.906,-1.9143,-1.9034,-1.9188,-1.9402,-1.9402,-1.9395,-1.9404,-1.9648,-1.9594,-1.9533,-1.9596,-1.9477,-1.9523,-1.977,-1.9736,-1.9605,-1.9605,-1.9605,-1.9605,-1.9605,-1.9473,-1.9417,-1.9285,-1.9208,-1.9142,-1.9142,-1.9075,-1.9075,-1.9075,-1.9075,-1.8942,-1.8549,-1.8482,-1.8347,-1.8008,-1.8008,-1.7794,-1.7432,-1.7354,-1.6664,-1.5338,-1.4824,-1.4314,0.0,0.0,0.0,0.0,0.0,-2.045,0.0,0.0,0.0,-2.1503,-2.1581,0.0,0.0,0.0,0.0,0.0,0.0,0.0,0.0,0.0,0.0,0.0,0.0,0.0,-2.405,-2.3712,-2.346,-2.3392,-2.3245,-2.3215,-2.3392,-2.3363,-2.3363,-2.3363,-2.3363,-2.3407,-2.3494,-2.3494,-2.3538,-2.3595,-2.3538,-2.3494,-2.3494,-2.3494,-2.3494,-2.3494,-2.3566,-2.3595,-2.3595,-2.3595,-2.3595,-2.3595,-2.3595,-2.3377,-2.3024,-2.2694,-2.2128,-2.1465,-2.0894,-2.0308,-1.985,-1.9565,-1.942,-1.9368,-1.9146,-1.904,-1.8999,-1.9117,-1.9368,-1.9512,-1.9198,-1.93,-1.9447,-1.9447,-1.9389,-1.9459,-1.9889,-1.9551,-1.9157,-1.9097,-1.9054,-1.9167,-1.9846,-2.002,-2.0074,-1.9933,-1.9933,-1.9868,-1.9747,-1.9671,-1.9605,-1.9407,-1.9351,-1.9274,-1.9142,-1.9131,-1.9075,-1.9075,-1.9075,-1.8942,-1.8549,-1.8482,-1.8347,-1.8008,-1.8008,-1.8008,-1.8008,-1.8008,-1.7295,-1.5956,-1.5807,-1.5242,0.0,0.0,0.0,0.0,-2.0305,0.0,0.0,0.0,-2.0142,-2.0206,0.0,0.0,0.0,0.0,0.0,0.0,0.0,0.0,0.0,0.0,0.0,0.0,0.0,0.0,0.0,-2.3498,-2.3314,-2.3694,-2.3071,-2.2996,-2.3724,-2.3581,-2.3494,-2.3551,-2.3566,-2.3551,-2.361,-2.361,-2.361,-2.3595,-2.361,-2.361,-2.361,-2.361,-2.361,-2.361,-2.361,-2.3595,-2.3595,-2.3595,-2.3595,-2.3595,-2.3595,-2.3551,-2.3465,-2.3024,-2.2512,-2.1941,-2.1175,-2.061,-2.0131,-1.9862,-1.9617,-1.9368,-1.9368,-1.921,-1.8987,-1.8999,-1.921,-1.942,-1.9512,-1.9393,-1.9218,-1.9218,-1.9359,-1.9394,-1.9214,-1.9229,-1.9253,-1.9097,-1.8659,-1.8548,-1.9219,-1.9727,-2.0074,-2.0074,-2.0074,-2.0085,-2.0074,-1.9944,-1.9868,-1.9802,-1.9473,-1.9274,-1.9285,-1.9142,-1.9075,-1.9075,-1.9075,-1.9008,-1.8808,-1.8472,-1.8212,-1.8008,-1.8008,-1.8008,-1.8008,-1.8008,-1.7794,-1.7423,-1.6784,-1.6289,0.0,0.0,0.0,0.0,0.0,0.0,-2.022,0.0,-1.9996,0.0,0.0,0.0,0.0,0.0,0.0,0.0,-2.0657,0.0,0.0,0.0,0.0,0.0,0.0,0.0,0.0,0.0,0.0,0.0,-2.3694,-2.3606,-2.3681,-2.3754,-2.3711,-2.3595,-2.3595,-2.3595,-2.3595,-2.3595,-2.3595,-2.3595,-2.3566,-2.3538,-2.3538,-2.3538,-2.3538,-2.3538,-2.3551,-2.3595,-2.3595,-2.3595,-2.3595,-2.3595,-2.3595,-2.3595,-2.3551,-2.3377,-2.2965,-2.2512,-2.2221,-2.1752,-2.1224,-2.0696,-2.0105,-1.9604,-1.9604,-1.9512,-1.9356,-1.9251,-1.9356,-1.9512,-1.946,-1.9356,-1.9291,-1.9617,-1.9462,-1.9353,-1.9556,-1.9073,-1.8612,-1.851,-1.8065,-1.78,-1.8052,-1.8826,-1.9394,-1.9394,-1.976,-2.0009,-2.0009,-2.0009,-2.0009,-1.9933,-1.9539,-1.9285,-1.9208,-1.8942,-1.8741,-1.8741,-1.8741,-1.8674,-1.8539,-1.8337,-1.8202,-1.8008,-1.8008,-1.8008,-1.8008,-1.8008,-1.794,-1.7862,-1.7579,-1.7148,-2.1165,0.0,0.0,0.0,0.0,0.0,0.0,0.0,0.0,0.0,0.0,0.0,0.0,0.0,0.0,0.0,0.0,-2.0274,0.0,0.0,0.0,0.0,0.0,0.0,0.0,0.0,0.0,-2.3819,-2.3943,-2.3978,-2.3809,-2.3925,-2.3925,-2.3739,-2.3653,-2.3595,-2.3595,-2.3595,-2.3595,-2.3595,-2.3625,-2.3596,-2.3538,-2.3596,-2.3596,-2.3538,-2.3566,-2.3595,-2.3595,-2.3595,-2.3595,-2.3595,-2.3595,-2.3595,-2.3595,-2.3595,-2.329,-2.2889,-2.2889,-2.2466,-2.1813,-2.114,-2.0459,-1.9914,-1.9914,-1.9811,-1.9604,-1.946,-1.9565,-1.9604,-1.946,-1.9396,-1.9448,-1.9875,-1.9668,-1.95,-1.9875,-1.9004,-1.8147,-1.8093,-1.7518,-1.7026,-1.7026,-1.7962,-1.8743,-1.8945,-1.9383,-1.9782,-1.9922,-2.0009,-2.0074,-1.9944,-1.9671,-1.9407,-1.9142,-1.8875,-1.8617,-1.8482,-1.8482,-1.8414,-1.8337,-1.8269,-1.8202,-1.8008,-1.8008,-1.8008,-1.8008,-1.8008,-1.8008,-1.8008,-1.8008,-1.7725,0.0,0.0,0.0,-2.1724,0.0,0.0,0.0,0.0,-2.1252,0.0,0.0,0.0,0.0,0.0,0.0,0.0,0.0,0.0,0.0,0.0,0.0,0.0,0.0,0.0,0.0,-2.2664,-2.2854,-2.3286,-2.3332,-2.3609,-2.423,-2.4109,-2.3982,-2.3982,-2.3739,-2.3595,-2.3595,-2.3595,-2.3595,-2.3595,-2.3839,-2.3839,-2.361,-2.3882,-2.3839,-2.361,-2.3595,-2.3595,-2.3595,-2.3595,-2.3595,-2.3595,-2.3595,-2.3595,-2.3595,-2.3595,-2.329,-2.2889,-2.2889,-2.2249,-2.1313,-2.0848,-2.0498,-2.0182,-2.0182,-2.0016,-1.9747,-1.9604,-1.9708,-1.9759,-1.9604,-1.9708,-1.9798,-1.9798,-1.9875,-1.9926,-1.9811,-1.8992,-1.8232,-1.8147,-1.72,-1.6405,-1.6405,-1.7427,-1.8422,-1.9081,-1.923,-1.9403,-2.002,-2.0085,-2.0085,-2.0074,-1.9944,-1.9736,-1.9351,-1.9142,-1.8942,-1.8549,-1.8482,-1.8414,-1.8337,-1.8269,-1.8202,-1.8008,-1.8008,-1.8008,-1.8008,-1.8008,-1.8008,-1.8008,-1.8008,-1.8008,0.0,0.0,-2.3704,-2.2688,0.0,0.0,0.0,0.0,0.0,0.0,0.0,0.0,0.0,0.0,0.0,0.0,0.0,0.0,0.0,0.0,0.0,0.0,0.0,0.0,0.0,0.0,0.0,-2.3507,-2.4076,-2.4396,-2.4287,-2.4343,-2.4343,-2.4177,-2.3967,-2.3839,-2.3839,-2.3696,-2.3595,-2.3595,-2.3882,-2.394,-2.3882,-2.4109,-2.4135,-2.4036,-2.4036,-2.4036,-2.4036,-2.3925,-2.3839,-2.3839,-2.3653,-2.3595,-2.3595,-2.3595,-2.3508,-2.3334,-2.3024,-2.242,-2.1779,-2.1326,-2.0898,-2.0549,-2.0549,-2.0398,-2.0195,-1.9939,-1.9875,-1.9875,-1.9668,-1.9708,-1.9798,-1.9798,-1.985,-1.9862,-1.9811,-1.8939,-1.8147,-1.8093,-1.719,-1.6384,-1.6384,-1.6748,-1.7151,-1.7672,-1.8182,-1.8719,-1.9212,-1.9532,-1.979,-2.0053,-1.9878,-1.9671,-1.9473,-1.9008,-1.8549,-1.8212,-1.8279,-1.8279,-1.8144,-1.8212,-1.8202,-1.8008,-1.8008,-1.8008,-1.8008,-1.8008,-1.8008,-1.8008,-1.8008,-1.8008,-2.3652,-2.4195,0.0,-2.3586,-2.397,0.0,-2.3297,0.0,-2.2365,0.0,0.0,0.0,0.0,0.0,0.0,0.0,0.0,0.0,0.0,-1.8556,0.0,0.0,0.0,0.0,0.0,0.0,-2.2786,-2.3064,-2.4021,-2.4579,0.0,-2.4589,-2.4589,-2.4426,-2.4234,-2.4109,-2.4109,-2.3867,-2.3739,-2.3739,-2.3967,-2.4067,-2.4024,-2.4261,-2.4385,-2.4302,-2.4302,-2.4302,-2.4302,-2.4151,-2.4109,-2.4094,-2.3839,-2.3739,-2.3739,-2.3653,-2.3508,-2.329,-2.2785,-2.2282,-2.1766,-2.1313,-2.0947,-2.0699,-2.0699,-2.0662,-2.055,-2.0489,-2.0348,-2.0169,-2.0062,-2.0013,-1.9914,-1.9798,-1.9798,-1.9798,-1.9798,-1.8886,-1.8093,-1.8093,-1.719,-1.6374,-1.6306,-1.6306,-1.6461,-1.7033,-1.7575,-1.8176,-1.8657,-1.897,-1.9342,-1.977,-1.9684,-1.9489,-1.9462,-1.8875,-1.8347,-1.8008,-1.8144,-1.8144,-1.8008,-1.8144,-1.8144,-1.8008,-1.8008,-1.8008,-1.8008,-1.8008,-1.8008,-1.8008,-1.8008,-1.8008]}]]